<?xml version="1.0" encoding="UTF-8" standalone="no" ?>
<gpx xmlns="http://www.topografix.com/GPX/1/1" xmlns:xsi="http://www.w3.org/2001/XMLSchema-instance" xsi:schemaLocation="http://www.topografix.com/GPX/1/1 http://www.topografix.com/GPX/1/1/gpx.xsd" version="1.1" creator="VisuGPX - https://www.visugpx.com">
  <metadata>
    <name>GR20-J6</name>
    <desc><![CDATA[GR20-J6     SEPT 2015
]]></desc>
  </metadata>
  <trk>
    <name><![CDATA[11-SEP-15 13:30:11]]></name>
    <trkseg>
      <trkpt lat="42.2868" lon="8.8937">
        <ele>1375.3</ele>
        <time>2015-09-11T05:39:08Z</time>
      </trkpt>
      <trkpt lat="42.2868" lon="8.89372">
        <ele>1379.63</ele>
        <time>2015-09-11T05:39:11Z</time>
      </trkpt>
      <trkpt lat="42.28679" lon="8.89372">
        <ele>1379.63</ele>
        <time>2015-09-11T05:39:12Z</time>
      </trkpt>
      <trkpt lat="42.2868" lon="8.89372">
        <ele>1382.99</ele>
        <time>2015-09-11T05:39:16Z</time>
      </trkpt>
      <trkpt lat="42.28681" lon="8.89373">
        <ele>1386.84</ele>
        <time>2015-09-11T05:39:20Z</time>
      </trkpt>
      <trkpt lat="42.2868" lon="8.89373">
        <ele>1387.32</ele>
        <time>2015-09-11T05:39:22Z</time>
      </trkpt>
      <trkpt lat="42.28679" lon="8.89374">
        <ele>1390.68</ele>
        <time>2015-09-11T05:39:28Z</time>
      </trkpt>
      <trkpt lat="42.28679" lon="8.89374">
        <ele>1391.65</ele>
        <time>2015-09-11T05:39:30Z</time>
      </trkpt>
      <trkpt lat="42.28681" lon="8.89374">
        <ele>1395.01</ele>
        <time>2015-09-11T05:39:36Z</time>
      </trkpt>
      <trkpt lat="42.28681" lon="8.89375">
        <ele>1398.37</ele>
        <time>2015-09-11T05:39:45Z</time>
      </trkpt>
      <trkpt lat="42.2868" lon="8.89375">
        <ele>1399.82</ele>
        <time>2015-09-11T05:39:49Z</time>
      </trkpt>
      <trkpt lat="42.2868" lon="8.89374">
        <ele>1401.74</ele>
        <time>2015-09-11T05:40:03Z</time>
      </trkpt>
      <trkpt lat="42.28679" lon="8.89373">
        <ele>1403.18</ele>
        <time>2015-09-11T05:40:15Z</time>
      </trkpt>
      <trkpt lat="42.28669" lon="8.89356">
        <ele>1404.62</ele>
        <time>2015-09-11T05:40:28Z</time>
      </trkpt>
      <trkpt lat="42.28669" lon="8.89354">
        <ele>1404.62</ele>
        <time>2015-09-11T05:40:30Z</time>
      </trkpt>
      <trkpt lat="42.28668" lon="8.8935">
        <ele>1404.62</ele>
        <time>2015-09-11T05:40:33Z</time>
      </trkpt>
      <trkpt lat="42.28664" lon="8.89344">
        <ele>1405.1</ele>
        <time>2015-09-11T05:40:39Z</time>
      </trkpt>
      <trkpt lat="42.28656" lon="8.89353">
        <ele>1404.14</ele>
        <time>2015-09-11T05:40:48Z</time>
      </trkpt>
      <trkpt lat="42.28646" lon="8.89374">
        <ele>1403.18</ele>
        <time>2015-09-11T05:41:04Z</time>
      </trkpt>
      <trkpt lat="42.28645" lon="8.894">
        <ele>1402.7</ele>
        <time>2015-09-11T05:41:17Z</time>
      </trkpt>
      <trkpt lat="42.28645" lon="8.89404">
        <ele>1402.7</ele>
        <time>2015-09-11T05:41:19Z</time>
      </trkpt>
      <trkpt lat="42.28645" lon="8.89415">
        <ele>1402.22</ele>
        <time>2015-09-11T05:41:25Z</time>
      </trkpt>
      <trkpt lat="42.28642" lon="8.89438">
        <ele>1401.26</ele>
        <time>2015-09-11T05:41:39Z</time>
      </trkpt>
      <trkpt lat="42.28643" lon="8.8945">
        <ele>1400.78</ele>
        <time>2015-09-11T05:41:46Z</time>
      </trkpt>
      <trkpt lat="42.28642" lon="8.89442">
        <ele>1401.26</ele>
        <time>2015-09-11T05:41:59Z</time>
      </trkpt>
      <trkpt lat="42.28641" lon="8.89438">
        <ele>1401.26</ele>
        <time>2015-09-11T05:42:21Z</time>
      </trkpt>
      <trkpt lat="42.28642" lon="8.89446">
        <ele>1400.78</ele>
        <time>2015-09-11T05:42:29Z</time>
      </trkpt>
      <trkpt lat="42.28641" lon="8.89454">
        <ele>1400.3</ele>
        <time>2015-09-11T05:42:35Z</time>
      </trkpt>
      <trkpt lat="42.28628" lon="8.89468">
        <ele>1397.41</ele>
        <time>2015-09-11T05:42:48Z</time>
      </trkpt>
      <trkpt lat="42.28612" lon="8.89471">
        <ele>1394.05</ele>
        <time>2015-09-11T05:43:01Z</time>
      </trkpt>
      <trkpt lat="42.28598" lon="8.89463">
        <ele>1391.65</ele>
        <time>2015-09-11T05:43:10Z</time>
      </trkpt>
      <trkpt lat="42.28586" lon="8.89459">
        <ele>1390.68</ele>
        <time>2015-09-11T05:43:19Z</time>
      </trkpt>
      <trkpt lat="42.28576" lon="8.89445">
        <ele>1388.28</ele>
        <time>2015-09-11T05:43:29Z</time>
      </trkpt>
      <trkpt lat="42.28566" lon="8.89433">
        <ele>1385.88</ele>
        <time>2015-09-11T05:43:38Z</time>
      </trkpt>
      <trkpt lat="42.28556" lon="8.89429">
        <ele>1382.51</ele>
        <time>2015-09-11T05:43:48Z</time>
      </trkpt>
      <trkpt lat="42.28554" lon="8.89429">
        <ele>1380.59</ele>
        <time>2015-09-11T05:43:53Z</time>
      </trkpt>
      <trkpt lat="42.28534" lon="8.89425">
        <ele>1377.71</ele>
        <time>2015-09-11T05:44:06Z</time>
      </trkpt>
      <trkpt lat="42.28527" lon="8.89426">
        <ele>1374.34</ele>
        <time>2015-09-11T05:44:17Z</time>
      </trkpt>
      <trkpt lat="42.28524" lon="8.89429">
        <ele>1373.38</ele>
        <time>2015-09-11T05:44:20Z</time>
      </trkpt>
      <trkpt lat="42.28514" lon="8.89433">
        <ele>1370.02</ele>
        <time>2015-09-11T05:44:29Z</time>
      </trkpt>
      <trkpt lat="42.28508" lon="8.89437">
        <ele>1368.57</ele>
        <time>2015-09-11T05:44:35Z</time>
      </trkpt>
      <trkpt lat="42.28502" lon="8.89438">
        <ele>1367.13</ele>
        <time>2015-09-11T05:44:41Z</time>
      </trkpt>
      <trkpt lat="42.2849" lon="8.89446">
        <ele>1364.25</ele>
        <time>2015-09-11T05:44:52Z</time>
      </trkpt>
      <trkpt lat="42.28488" lon="8.89453">
        <ele>1363.29</ele>
        <time>2015-09-11T05:44:56Z</time>
      </trkpt>
      <trkpt lat="42.28479" lon="8.89455">
        <ele>1361.84</ele>
        <time>2015-09-11T05:45:06Z</time>
      </trkpt>
      <trkpt lat="42.28465" lon="8.89459">
        <ele>1359.44</ele>
        <time>2015-09-11T05:45:16Z</time>
      </trkpt>
      <trkpt lat="42.28453" lon="8.89472">
        <ele>1357.04</ele>
        <time>2015-09-11T05:45:27Z</time>
      </trkpt>
      <trkpt lat="42.28447" lon="8.89475">
        <ele>1355.12</ele>
        <time>2015-09-11T05:45:32Z</time>
      </trkpt>
      <trkpt lat="42.28436" lon="8.89481">
        <ele>1351.75</ele>
        <time>2015-09-11T05:45:44Z</time>
      </trkpt>
      <trkpt lat="42.28419" lon="8.8948">
        <ele>1349.35</ele>
        <time>2015-09-11T05:45:56Z</time>
      </trkpt>
      <trkpt lat="42.28403" lon="8.89477">
        <ele>1345.98</ele>
        <time>2015-09-11T05:46:08Z</time>
      </trkpt>
      <trkpt lat="42.28387" lon="8.89471">
        <ele>1342.62</ele>
        <time>2015-09-11T05:46:23Z</time>
      </trkpt>
      <trkpt lat="42.28376" lon="8.89479">
        <ele>1341.18</ele>
        <time>2015-09-11T05:46:34Z</time>
      </trkpt>
      <trkpt lat="42.2837" lon="8.89485">
        <ele>1339.25</ele>
        <time>2015-09-11T05:46:41Z</time>
      </trkpt>
      <trkpt lat="42.28369" lon="8.89488">
        <ele>1338.29</ele>
        <time>2015-09-11T05:46:44Z</time>
      </trkpt>
      <trkpt lat="42.28365" lon="8.89495">
        <ele>1336.85</ele>
        <time>2015-09-11T05:46:49Z</time>
      </trkpt>
      <trkpt lat="42.28364" lon="8.89502">
        <ele>1335.41</ele>
        <time>2015-09-11T05:46:53Z</time>
      </trkpt>
      <trkpt lat="42.28357" lon="8.89517">
        <ele>1332.04</ele>
        <time>2015-09-11T05:47:04Z</time>
      </trkpt>
      <trkpt lat="42.28348" lon="8.89529">
        <ele>1331.56</ele>
        <time>2015-09-11T05:47:14Z</time>
      </trkpt>
      <trkpt lat="42.28347" lon="8.8953">
        <ele>1331.56</ele>
        <time>2015-09-11T05:47:15Z</time>
      </trkpt>
      <trkpt lat="42.2834" lon="8.89532">
        <ele>1331.08</ele>
        <time>2015-09-11T05:47:19Z</time>
      </trkpt>
      <trkpt lat="42.28318" lon="8.89511">
        <ele>1331.08</ele>
        <time>2015-09-11T05:47:32Z</time>
      </trkpt>
      <trkpt lat="42.28304" lon="8.89495">
        <ele>1330.6</ele>
        <time>2015-09-11T05:47:47Z</time>
      </trkpt>
      <trkpt lat="42.28299" lon="8.89481">
        <ele>1331.08</ele>
        <time>2015-09-11T05:47:57Z</time>
      </trkpt>
      <trkpt lat="42.28297" lon="8.89466">
        <ele>1331.08</ele>
        <time>2015-09-11T05:48:06Z</time>
      </trkpt>
      <trkpt lat="42.28289" lon="8.89439">
        <ele>1331.08</ele>
        <time>2015-09-11T05:48:21Z</time>
      </trkpt>
      <trkpt lat="42.28289" lon="8.8942">
        <ele>1330.12</ele>
        <time>2015-09-11T05:48:33Z</time>
      </trkpt>
      <trkpt lat="42.28288" lon="8.89405">
        <ele>1330.12</ele>
        <time>2015-09-11T05:48:45Z</time>
      </trkpt>
      <trkpt lat="42.28287" lon="8.89374">
        <ele>1330.12</ele>
        <time>2015-09-11T05:49:01Z</time>
      </trkpt>
      <trkpt lat="42.28288" lon="8.89367">
        <ele>1330.12</ele>
        <time>2015-09-11T05:49:06Z</time>
      </trkpt>
      <trkpt lat="42.2829" lon="8.89337">
        <ele>1330.6</ele>
        <time>2015-09-11T05:49:22Z</time>
      </trkpt>
      <trkpt lat="42.2829" lon="8.89307">
        <ele>1330.6</ele>
        <time>2015-09-11T05:49:36Z</time>
      </trkpt>
      <trkpt lat="42.28296" lon="8.89285">
        <ele>1331.08</ele>
        <time>2015-09-11T05:49:46Z</time>
      </trkpt>
      <trkpt lat="42.28298" lon="8.89282">
        <ele>1330.6</ele>
        <time>2015-09-11T05:49:49Z</time>
      </trkpt>
      <trkpt lat="42.28306" lon="8.8927">
        <ele>1330.6</ele>
        <time>2015-09-11T05:49:58Z</time>
      </trkpt>
      <trkpt lat="42.28301" lon="8.89264">
        <ele>1331.08</ele>
        <time>2015-09-11T05:50:04Z</time>
      </trkpt>
      <trkpt lat="42.28297" lon="8.89256">
        <ele>1331.08</ele>
        <time>2015-09-11T05:50:14Z</time>
      </trkpt>
      <trkpt lat="42.28277" lon="8.89243">
        <ele>1330.6</ele>
        <time>2015-09-11T05:50:27Z</time>
      </trkpt>
      <trkpt lat="42.28267" lon="8.89228">
        <ele>1331.08</ele>
        <time>2015-09-11T05:50:40Z</time>
      </trkpt>
      <trkpt lat="42.28257" lon="8.89217">
        <ele>1331.08</ele>
        <time>2015-09-11T05:50:48Z</time>
      </trkpt>
      <trkpt lat="42.28249" lon="8.89198">
        <ele>1331.08</ele>
        <time>2015-09-11T05:50:57Z</time>
      </trkpt>
      <trkpt lat="42.28246" lon="8.89192">
        <ele>1331.08</ele>
        <time>2015-09-11T05:51:06Z</time>
      </trkpt>
      <trkpt lat="42.2824" lon="8.892">
        <ele>1330.6</ele>
        <time>2015-09-11T05:51:14Z</time>
      </trkpt>
      <trkpt lat="42.28236" lon="8.89201">
        <ele>1330.6</ele>
        <time>2015-09-11T05:51:19Z</time>
      </trkpt>
      <trkpt lat="42.28231" lon="8.89206">
        <ele>1330.6</ele>
        <time>2015-09-11T05:51:24Z</time>
      </trkpt>
      <trkpt lat="42.28214" lon="8.89213">
        <ele>1330.6</ele>
        <time>2015-09-11T05:51:37Z</time>
      </trkpt>
      <trkpt lat="42.28205" lon="8.89218">
        <ele>1331.08</ele>
        <time>2015-09-11T05:51:45Z</time>
      </trkpt>
      <trkpt lat="42.28189" lon="8.89209">
        <ele>1331.08</ele>
        <time>2015-09-11T05:51:57Z</time>
      </trkpt>
      <trkpt lat="42.28182" lon="8.89201">
        <ele>1330.6</ele>
        <time>2015-09-11T05:52:06Z</time>
      </trkpt>
      <trkpt lat="42.28171" lon="8.89177">
        <ele>1330.12</ele>
        <time>2015-09-11T05:52:17Z</time>
      </trkpt>
      <trkpt lat="42.2817" lon="8.89176">
        <ele>1330.12</ele>
        <time>2015-09-11T05:52:18Z</time>
      </trkpt>
      <trkpt lat="42.28168" lon="8.89172">
        <ele>1330.12</ele>
        <time>2015-09-11T05:52:21Z</time>
      </trkpt>
      <trkpt lat="42.28166" lon="8.89168">
        <ele>1329.64</ele>
        <time>2015-09-11T05:52:23Z</time>
      </trkpt>
      <trkpt lat="42.28154" lon="8.89143">
        <ele>1330.12</ele>
        <time>2015-09-11T05:52:37Z</time>
      </trkpt>
      <trkpt lat="42.28152" lon="8.89124">
        <ele>1330.12</ele>
        <time>2015-09-11T05:52:50Z</time>
      </trkpt>
      <trkpt lat="42.28154" lon="8.89111">
        <ele>1330.6</ele>
        <time>2015-09-11T05:52:58Z</time>
      </trkpt>
      <trkpt lat="42.28153" lon="8.89108">
        <ele>1330.6</ele>
        <time>2015-09-11T05:53:00Z</time>
      </trkpt>
      <trkpt lat="42.28148" lon="8.89104">
        <ele>1330.6</ele>
        <time>2015-09-11T05:53:03Z</time>
      </trkpt>
      <trkpt lat="42.28143" lon="8.89101">
        <ele>1330.6</ele>
        <time>2015-09-11T05:53:06Z</time>
      </trkpt>
      <trkpt lat="42.28141" lon="8.891">
        <ele>1331.08</ele>
        <time>2015-09-11T05:53:09Z</time>
      </trkpt>
      <trkpt lat="42.28139" lon="8.89099">
        <ele>1330.6</ele>
        <time>2015-09-11T05:53:11Z</time>
      </trkpt>
      <trkpt lat="42.28128" lon="8.89092">
        <ele>1331.08</ele>
        <time>2015-09-11T05:53:21Z</time>
      </trkpt>
      <trkpt lat="42.28127" lon="8.89092">
        <ele>1331.08</ele>
        <time>2015-09-11T05:53:22Z</time>
      </trkpt>
      <trkpt lat="42.28119" lon="8.89093">
        <ele>1331.08</ele>
        <time>2015-09-11T05:53:29Z</time>
      </trkpt>
      <trkpt lat="42.28114" lon="8.89093">
        <ele>1331.08</ele>
        <time>2015-09-11T05:53:34Z</time>
      </trkpt>
      <trkpt lat="42.28106" lon="8.89092">
        <ele>1330.6</ele>
        <time>2015-09-11T05:53:42Z</time>
      </trkpt>
      <trkpt lat="42.28098" lon="8.89086">
        <ele>1331.08</ele>
        <time>2015-09-11T05:53:49Z</time>
      </trkpt>
      <trkpt lat="42.28078" lon="8.89084">
        <ele>1331.08</ele>
        <time>2015-09-11T05:54:03Z</time>
      </trkpt>
      <trkpt lat="42.28073" lon="8.89084">
        <ele>1331.08</ele>
        <time>2015-09-11T05:54:07Z</time>
      </trkpt>
      <trkpt lat="42.28064" lon="8.89076">
        <ele>1331.08</ele>
        <time>2015-09-11T05:54:15Z</time>
      </trkpt>
      <trkpt lat="42.28055" lon="8.89068">
        <ele>1331.56</ele>
        <time>2015-09-11T05:54:22Z</time>
      </trkpt>
      <trkpt lat="42.28042" lon="8.89057">
        <ele>1332.52</ele>
        <time>2015-09-11T05:54:34Z</time>
      </trkpt>
      <trkpt lat="42.28039" lon="8.89054">
        <ele>1332.52</ele>
        <time>2015-09-11T05:54:37Z</time>
      </trkpt>
      <trkpt lat="42.28035" lon="8.8905">
        <ele>1333.01</ele>
        <time>2015-09-11T05:54:41Z</time>
      </trkpt>
      <trkpt lat="42.28021" lon="8.89043">
        <ele>1333.01</ele>
        <time>2015-09-11T05:54:53Z</time>
      </trkpt>
      <trkpt lat="42.28021" lon="8.89042">
        <ele>1333.01</ele>
        <time>2015-09-11T05:54:54Z</time>
      </trkpt>
      <trkpt lat="42.28013" lon="8.89036">
        <ele>1333.01</ele>
        <time>2015-09-11T05:55:02Z</time>
      </trkpt>
      <trkpt lat="42.28007" lon="8.89026">
        <ele>1333.01</ele>
        <time>2015-09-11T05:55:09Z</time>
      </trkpt>
      <trkpt lat="42.27999" lon="8.89022">
        <ele>1332.52</ele>
        <time>2015-09-11T05:55:17Z</time>
      </trkpt>
      <trkpt lat="42.27982" lon="8.89008">
        <ele>1333.01</ele>
        <time>2015-09-11T05:55:31Z</time>
      </trkpt>
      <trkpt lat="42.2798" lon="8.89006">
        <ele>1333.49</ele>
        <time>2015-09-11T05:55:35Z</time>
      </trkpt>
      <trkpt lat="42.27966" lon="8.88982">
        <ele>1333.97</ele>
        <time>2015-09-11T05:55:49Z</time>
      </trkpt>
      <trkpt lat="42.27962" lon="8.88962">
        <ele>1334.45</ele>
        <time>2015-09-11T05:56:04Z</time>
      </trkpt>
      <trkpt lat="42.27958" lon="8.88958">
        <ele>1334.45</ele>
        <time>2015-09-11T05:56:07Z</time>
      </trkpt>
      <trkpt lat="42.27954" lon="8.88957">
        <ele>1334.93</ele>
        <time>2015-09-11T05:56:12Z</time>
      </trkpt>
      <trkpt lat="42.27949" lon="8.88955">
        <ele>1334.93</ele>
        <time>2015-09-11T05:56:16Z</time>
      </trkpt>
      <trkpt lat="42.27944" lon="8.88945">
        <ele>1334.93</ele>
        <time>2015-09-11T05:56:25Z</time>
      </trkpt>
      <trkpt lat="42.2794" lon="8.8894">
        <ele>1334.93</ele>
        <time>2015-09-11T05:56:29Z</time>
      </trkpt>
      <trkpt lat="42.27925" lon="8.88927">
        <ele>1334.93</ele>
        <time>2015-09-11T05:56:41Z</time>
      </trkpt>
      <trkpt lat="42.27924" lon="8.88928">
        <ele>1335.41</ele>
        <time>2015-09-11T05:56:42Z</time>
      </trkpt>
      <trkpt lat="42.27921" lon="8.8893">
        <ele>1334.93</ele>
        <time>2015-09-11T05:56:48Z</time>
      </trkpt>
      <trkpt lat="42.27917" lon="8.88931">
        <ele>1334.93</ele>
        <time>2015-09-11T05:56:50Z</time>
      </trkpt>
      <trkpt lat="42.27915" lon="8.88929">
        <ele>1334.93</ele>
        <time>2015-09-11T05:56:52Z</time>
      </trkpt>
      <trkpt lat="42.27912" lon="8.88924">
        <ele>1334.93</ele>
        <time>2015-09-11T05:56:57Z</time>
      </trkpt>
      <trkpt lat="42.27908" lon="8.88926">
        <ele>1334.93</ele>
        <time>2015-09-11T05:56:59Z</time>
      </trkpt>
      <trkpt lat="42.27902" lon="8.88934">
        <ele>1334.93</ele>
        <time>2015-09-11T05:57:05Z</time>
      </trkpt>
      <trkpt lat="42.27902" lon="8.88935">
        <ele>1334.93</ele>
        <time>2015-09-11T05:57:06Z</time>
      </trkpt>
      <trkpt lat="42.27899" lon="8.88938">
        <ele>1334.45</ele>
        <time>2015-09-11T05:57:09Z</time>
      </trkpt>
      <trkpt lat="42.27891" lon="8.88943">
        <ele>1334.45</ele>
        <time>2015-09-11T05:57:16Z</time>
      </trkpt>
      <trkpt lat="42.27884" lon="8.88942">
        <ele>1334.45</ele>
        <time>2015-09-11T05:57:22Z</time>
      </trkpt>
      <trkpt lat="42.27866" lon="8.88952">
        <ele>1334.93</ele>
        <time>2015-09-11T05:57:35Z</time>
      </trkpt>
      <trkpt lat="42.27862" lon="8.88958">
        <ele>1335.41</ele>
        <time>2015-09-11T05:57:40Z</time>
      </trkpt>
      <trkpt lat="42.27857" lon="8.88958">
        <ele>1335.41</ele>
        <time>2015-09-11T05:57:44Z</time>
      </trkpt>
      <trkpt lat="42.27851" lon="8.88961">
        <ele>1335.41</ele>
        <time>2015-09-11T05:57:48Z</time>
      </trkpt>
      <trkpt lat="42.27842" lon="8.88955">
        <ele>1335.41</ele>
        <time>2015-09-11T05:57:55Z</time>
      </trkpt>
      <trkpt lat="42.2783" lon="8.88951">
        <ele>1335.41</ele>
        <time>2015-09-11T05:58:03Z</time>
      </trkpt>
      <trkpt lat="42.27825" lon="8.88967">
        <ele>1334.93</ele>
        <time>2015-09-11T05:58:15Z</time>
      </trkpt>
      <trkpt lat="42.27821" lon="8.88972">
        <ele>1334.93</ele>
        <time>2015-09-11T05:58:20Z</time>
      </trkpt>
      <trkpt lat="42.27814" lon="8.88975">
        <ele>1335.41</ele>
        <time>2015-09-11T05:58:26Z</time>
      </trkpt>
      <trkpt lat="42.2781" lon="8.88975">
        <ele>1335.41</ele>
        <time>2015-09-11T05:58:29Z</time>
      </trkpt>
      <trkpt lat="42.27796" lon="8.8897">
        <ele>1335.41</ele>
        <time>2015-09-11T05:58:39Z</time>
      </trkpt>
      <trkpt lat="42.27792" lon="8.88969">
        <ele>1335.41</ele>
        <time>2015-09-11T05:58:42Z</time>
      </trkpt>
      <trkpt lat="42.2778" lon="8.88966">
        <ele>1335.41</ele>
        <time>2015-09-11T05:58:54Z</time>
      </trkpt>
      <trkpt lat="42.27766" lon="8.88979">
        <ele>1334.93</ele>
        <time>2015-09-11T05:59:06Z</time>
      </trkpt>
      <trkpt lat="42.27762" lon="8.88986">
        <ele>1335.41</ele>
        <time>2015-09-11T05:59:12Z</time>
      </trkpt>
      <trkpt lat="42.27762" lon="8.88988">
        <ele>1335.41</ele>
        <time>2015-09-11T05:59:13Z</time>
      </trkpt>
      <trkpt lat="42.2776" lon="8.89003">
        <ele>1334.93</ele>
        <time>2015-09-11T05:59:23Z</time>
      </trkpt>
      <trkpt lat="42.27756" lon="8.89016">
        <ele>1334.93</ele>
        <time>2015-09-11T05:59:35Z</time>
      </trkpt>
      <trkpt lat="42.27752" lon="8.89021">
        <ele>1334.93</ele>
        <time>2015-09-11T05:59:37Z</time>
      </trkpt>
      <trkpt lat="42.27739" lon="8.89035">
        <ele>1335.41</ele>
        <time>2015-09-11T05:59:49Z</time>
      </trkpt>
      <trkpt lat="42.27731" lon="8.89038">
        <ele>1335.41</ele>
        <time>2015-09-11T05:59:54Z</time>
      </trkpt>
      <trkpt lat="42.27717" lon="8.89041">
        <ele>1335.89</ele>
        <time>2015-09-11T06:00:04Z</time>
      </trkpt>
      <trkpt lat="42.27704" lon="8.89048">
        <ele>1334.93</ele>
        <time>2015-09-11T06:00:15Z</time>
      </trkpt>
      <trkpt lat="42.27693" lon="8.89041">
        <ele>1334.93</ele>
        <time>2015-09-11T06:00:23Z</time>
      </trkpt>
      <trkpt lat="42.27687" lon="8.89039">
        <ele>1334.93</ele>
        <time>2015-09-11T06:00:27Z</time>
      </trkpt>
      <trkpt lat="42.27679" lon="8.89036">
        <ele>1334.93</ele>
        <time>2015-09-11T06:00:33Z</time>
      </trkpt>
      <trkpt lat="42.27672" lon="8.89036">
        <ele>1334.45</ele>
        <time>2015-09-11T06:00:38Z</time>
      </trkpt>
      <trkpt lat="42.27659" lon="8.89039">
        <ele>1334.45</ele>
        <time>2015-09-11T06:00:49Z</time>
      </trkpt>
      <trkpt lat="42.27656" lon="8.89042">
        <ele>1333.97</ele>
        <time>2015-09-11T06:00:52Z</time>
      </trkpt>
      <trkpt lat="42.27653" lon="8.89044">
        <ele>1334.45</ele>
        <time>2015-09-11T06:00:54Z</time>
      </trkpt>
      <trkpt lat="42.2765" lon="8.89044">
        <ele>1334.45</ele>
        <time>2015-09-11T06:00:57Z</time>
      </trkpt>
      <trkpt lat="42.27643" lon="8.89044">
        <ele>1333.97</ele>
        <time>2015-09-11T06:01:02Z</time>
      </trkpt>
      <trkpt lat="42.27638" lon="8.89041">
        <ele>1334.45</ele>
        <time>2015-09-11T06:01:06Z</time>
      </trkpt>
      <trkpt lat="42.27633" lon="8.89038">
        <ele>1334.45</ele>
        <time>2015-09-11T06:01:11Z</time>
      </trkpt>
      <trkpt lat="42.27623" lon="8.89031">
        <ele>1334.93</ele>
        <time>2015-09-11T06:01:21Z</time>
      </trkpt>
      <trkpt lat="42.2762" lon="8.89035">
        <ele>1334.93</ele>
        <time>2015-09-11T06:01:23Z</time>
      </trkpt>
      <trkpt lat="42.27613" lon="8.89038">
        <ele>1335.89</ele>
        <time>2015-09-11T06:01:30Z</time>
      </trkpt>
      <trkpt lat="42.27607" lon="8.89043">
        <ele>1336.37</ele>
        <time>2015-09-11T06:01:37Z</time>
      </trkpt>
      <trkpt lat="42.27601" lon="8.89055">
        <ele>1335.41</ele>
        <time>2015-09-11T06:01:46Z</time>
      </trkpt>
      <trkpt lat="42.27597" lon="8.89061">
        <ele>1334.93</ele>
        <time>2015-09-11T06:01:51Z</time>
      </trkpt>
      <trkpt lat="42.27588" lon="8.89077">
        <ele>1335.41</ele>
        <time>2015-09-11T06:02:03Z</time>
      </trkpt>
      <trkpt lat="42.27581" lon="8.8908">
        <ele>1335.89</ele>
        <time>2015-09-11T06:02:08Z</time>
      </trkpt>
      <trkpt lat="42.27577" lon="8.8908">
        <ele>1335.89</ele>
        <time>2015-09-11T06:02:11Z</time>
      </trkpt>
      <trkpt lat="42.27567" lon="8.89077">
        <ele>1335.89</ele>
        <time>2015-09-11T06:02:20Z</time>
      </trkpt>
      <trkpt lat="42.27564" lon="8.89078">
        <ele>1335.89</ele>
        <time>2015-09-11T06:02:22Z</time>
      </trkpt>
      <trkpt lat="42.27555" lon="8.89081">
        <ele>1336.37</ele>
        <time>2015-09-11T06:02:29Z</time>
      </trkpt>
      <trkpt lat="42.27548" lon="8.89085">
        <ele>1336.37</ele>
        <time>2015-09-11T06:02:35Z</time>
      </trkpt>
      <trkpt lat="42.27541" lon="8.8909">
        <ele>1336.85</ele>
        <time>2015-09-11T06:02:41Z</time>
      </trkpt>
      <trkpt lat="42.27535" lon="8.89094">
        <ele>1336.37</ele>
        <time>2015-09-11T06:02:47Z</time>
      </trkpt>
      <trkpt lat="42.27534" lon="8.891">
        <ele>1336.37</ele>
        <time>2015-09-11T06:02:51Z</time>
      </trkpt>
      <trkpt lat="42.27533" lon="8.89109">
        <ele>1336.37</ele>
        <time>2015-09-11T06:02:57Z</time>
      </trkpt>
      <trkpt lat="42.2753" lon="8.89119">
        <ele>1336.37</ele>
        <time>2015-09-11T06:03:04Z</time>
      </trkpt>
      <trkpt lat="42.27531" lon="8.89131">
        <ele>1337.81</ele>
        <time>2015-09-11T06:03:13Z</time>
      </trkpt>
      <trkpt lat="42.27532" lon="8.89145">
        <ele>1337.33</ele>
        <time>2015-09-11T06:03:23Z</time>
      </trkpt>
      <trkpt lat="42.27532" lon="8.89147">
        <ele>1337.33</ele>
        <time>2015-09-11T06:03:24Z</time>
      </trkpt>
      <trkpt lat="42.2753" lon="8.89151">
        <ele>1337.33</ele>
        <time>2015-09-11T06:03:27Z</time>
      </trkpt>
      <trkpt lat="42.2753" lon="8.89155">
        <ele>1337.33</ele>
        <time>2015-09-11T06:03:29Z</time>
      </trkpt>
      <trkpt lat="42.27529" lon="8.89158">
        <ele>1337.81</ele>
        <time>2015-09-11T06:03:31Z</time>
      </trkpt>
      <trkpt lat="42.27527" lon="8.89175">
        <ele>1337.81</ele>
        <time>2015-09-11T06:03:42Z</time>
      </trkpt>
      <trkpt lat="42.27527" lon="8.89193">
        <ele>1338.77</ele>
        <time>2015-09-11T06:03:52Z</time>
      </trkpt>
      <trkpt lat="42.27529" lon="8.89201">
        <ele>1338.29</ele>
        <time>2015-09-11T06:03:57Z</time>
      </trkpt>
      <trkpt lat="42.27532" lon="8.89226">
        <ele>1338.77</ele>
        <time>2015-09-11T06:04:12Z</time>
      </trkpt>
      <trkpt lat="42.27531" lon="8.89238">
        <ele>1338.77</ele>
        <time>2015-09-11T06:04:22Z</time>
      </trkpt>
      <trkpt lat="42.27533" lon="8.89246">
        <ele>1339.25</ele>
        <time>2015-09-11T06:04:26Z</time>
      </trkpt>
      <trkpt lat="42.27533" lon="8.89257">
        <ele>1339.73</ele>
        <time>2015-09-11T06:04:31Z</time>
      </trkpt>
      <trkpt lat="42.27532" lon="8.89272">
        <ele>1339.73</ele>
        <time>2015-09-11T06:04:41Z</time>
      </trkpt>
      <trkpt lat="42.2753" lon="8.8929">
        <ele>1339.73</ele>
        <time>2015-09-11T06:04:50Z</time>
      </trkpt>
      <trkpt lat="42.27529" lon="8.893">
        <ele>1339.73</ele>
        <time>2015-09-11T06:04:56Z</time>
      </trkpt>
      <trkpt lat="42.27527" lon="8.89304">
        <ele>1339.25</ele>
        <time>2015-09-11T06:04:58Z</time>
      </trkpt>
      <trkpt lat="42.27522" lon="8.89312">
        <ele>1339.73</ele>
        <time>2015-09-11T06:05:04Z</time>
      </trkpt>
      <trkpt lat="42.27506" lon="8.89326">
        <ele>1339.25</ele>
        <time>2015-09-11T06:05:17Z</time>
      </trkpt>
      <trkpt lat="42.27503" lon="8.89329">
        <ele>1339.25</ele>
        <time>2015-09-11T06:05:21Z</time>
      </trkpt>
      <trkpt lat="42.27498" lon="8.89333">
        <ele>1339.25</ele>
        <time>2015-09-11T06:05:25Z</time>
      </trkpt>
      <trkpt lat="42.27481" lon="8.89346">
        <ele>1339.25</ele>
        <time>2015-09-11T06:05:38Z</time>
      </trkpt>
      <trkpt lat="42.27476" lon="8.89349">
        <ele>1339.25</ele>
        <time>2015-09-11T06:05:41Z</time>
      </trkpt>
      <trkpt lat="42.27467" lon="8.89351">
        <ele>1339.25</ele>
        <time>2015-09-11T06:05:47Z</time>
      </trkpt>
      <trkpt lat="42.27464" lon="8.89351">
        <ele>1339.73</ele>
        <time>2015-09-11T06:05:49Z</time>
      </trkpt>
      <trkpt lat="42.27454" lon="8.89359">
        <ele>1339.73</ele>
        <time>2015-09-11T06:05:58Z</time>
      </trkpt>
      <trkpt lat="42.27439" lon="8.89355">
        <ele>1340.22</ele>
        <time>2015-09-11T06:06:09Z</time>
      </trkpt>
      <trkpt lat="42.27429" lon="8.8935">
        <ele>1340.22</ele>
        <time>2015-09-11T06:06:19Z</time>
      </trkpt>
      <trkpt lat="42.27426" lon="8.8935">
        <ele>1340.22</ele>
        <time>2015-09-11T06:06:21Z</time>
      </trkpt>
      <trkpt lat="42.27423" lon="8.89353">
        <ele>1340.7</ele>
        <time>2015-09-11T06:06:23Z</time>
      </trkpt>
      <trkpt lat="42.27415" lon="8.89359">
        <ele>1340.7</ele>
        <time>2015-09-11T06:06:30Z</time>
      </trkpt>
      <trkpt lat="42.27413" lon="8.89361">
        <ele>1340.7</ele>
        <time>2015-09-11T06:06:32Z</time>
      </trkpt>
      <trkpt lat="42.2741" lon="8.89362">
        <ele>1340.22</ele>
        <time>2015-09-11T06:06:34Z</time>
      </trkpt>
      <trkpt lat="42.27408" lon="8.89361">
        <ele>1340.22</ele>
        <time>2015-09-11T06:06:36Z</time>
      </trkpt>
      <trkpt lat="42.27405" lon="8.8936">
        <ele>1340.22</ele>
        <time>2015-09-11T06:06:38Z</time>
      </trkpt>
      <trkpt lat="42.27397" lon="8.89371">
        <ele>1340.22</ele>
        <time>2015-09-11T06:06:46Z</time>
      </trkpt>
      <trkpt lat="42.27392" lon="8.89379">
        <ele>1340.22</ele>
        <time>2015-09-11T06:06:51Z</time>
      </trkpt>
      <trkpt lat="42.27385" lon="8.89384">
        <ele>1340.22</ele>
        <time>2015-09-11T06:06:56Z</time>
      </trkpt>
      <trkpt lat="42.27382" lon="8.89384">
        <ele>1340.22</ele>
        <time>2015-09-11T06:06:58Z</time>
      </trkpt>
      <trkpt lat="42.27378" lon="8.89384">
        <ele>1340.22</ele>
        <time>2015-09-11T06:07:01Z</time>
      </trkpt>
      <trkpt lat="42.2737" lon="8.89387">
        <ele>1340.22</ele>
        <time>2015-09-11T06:07:06Z</time>
      </trkpt>
      <trkpt lat="42.27365" lon="8.89386">
        <ele>1340.22</ele>
        <time>2015-09-11T06:07:10Z</time>
      </trkpt>
      <trkpt lat="42.27362" lon="8.89386">
        <ele>1340.22</ele>
        <time>2015-09-11T06:07:13Z</time>
      </trkpt>
      <trkpt lat="42.27359" lon="8.89386">
        <ele>1339.73</ele>
        <time>2015-09-11T06:07:15Z</time>
      </trkpt>
      <trkpt lat="42.27342" lon="8.8939">
        <ele>1340.22</ele>
        <time>2015-09-11T06:07:28Z</time>
      </trkpt>
      <trkpt lat="42.27339" lon="8.89392">
        <ele>1340.22</ele>
        <time>2015-09-11T06:07:31Z</time>
      </trkpt>
      <trkpt lat="42.27336" lon="8.89392">
        <ele>1340.7</ele>
        <time>2015-09-11T06:07:34Z</time>
      </trkpt>
      <trkpt lat="42.27323" lon="8.89409">
        <ele>1340.22</ele>
        <time>2015-09-11T06:07:47Z</time>
      </trkpt>
      <trkpt lat="42.2732" lon="8.89415">
        <ele>1339.73</ele>
        <time>2015-09-11T06:07:51Z</time>
      </trkpt>
      <trkpt lat="42.27304" lon="8.89432">
        <ele>1340.22</ele>
        <time>2015-09-11T06:08:07Z</time>
      </trkpt>
      <trkpt lat="42.27303" lon="8.89434">
        <ele>1340.22</ele>
        <time>2015-09-11T06:08:08Z</time>
      </trkpt>
      <trkpt lat="42.27291" lon="8.89431">
        <ele>1340.22</ele>
        <time>2015-09-11T06:08:16Z</time>
      </trkpt>
      <trkpt lat="42.27289" lon="8.8943">
        <ele>1340.22</ele>
        <time>2015-09-11T06:08:19Z</time>
      </trkpt>
      <trkpt lat="42.27284" lon="8.89427">
        <ele>1340.7</ele>
        <time>2015-09-11T06:08:24Z</time>
      </trkpt>
      <trkpt lat="42.27281" lon="8.89428">
        <ele>1341.18</ele>
        <time>2015-09-11T06:08:27Z</time>
      </trkpt>
      <trkpt lat="42.27279" lon="8.89428">
        <ele>1340.7</ele>
        <time>2015-09-11T06:08:28Z</time>
      </trkpt>
      <trkpt lat="42.27271" lon="8.89429">
        <ele>1341.18</ele>
        <time>2015-09-11T06:08:34Z</time>
      </trkpt>
      <trkpt lat="42.27266" lon="8.89429">
        <ele>1341.18</ele>
        <time>2015-09-11T06:08:39Z</time>
      </trkpt>
      <trkpt lat="42.27261" lon="8.89431">
        <ele>1341.66</ele>
        <time>2015-09-11T06:08:44Z</time>
      </trkpt>
      <trkpt lat="42.27259" lon="8.89434">
        <ele>1341.66</ele>
        <time>2015-09-11T06:08:46Z</time>
      </trkpt>
      <trkpt lat="42.27256" lon="8.89449">
        <ele>1341.66</ele>
        <time>2015-09-11T06:08:57Z</time>
      </trkpt>
      <trkpt lat="42.27254" lon="8.89457">
        <ele>1341.18</ele>
        <time>2015-09-11T06:09:02Z</time>
      </trkpt>
      <trkpt lat="42.27252" lon="8.89462">
        <ele>1341.66</ele>
        <time>2015-09-11T06:09:05Z</time>
      </trkpt>
      <trkpt lat="42.2724" lon="8.89465">
        <ele>1341.66</ele>
        <time>2015-09-11T06:09:15Z</time>
      </trkpt>
      <trkpt lat="42.2723" lon="8.89467">
        <ele>1340.7</ele>
        <time>2015-09-11T06:09:25Z</time>
      </trkpt>
      <trkpt lat="42.27226" lon="8.89465">
        <ele>1340.7</ele>
        <time>2015-09-11T06:09:29Z</time>
      </trkpt>
      <trkpt lat="42.27215" lon="8.8946">
        <ele>1340.7</ele>
        <time>2015-09-11T06:09:37Z</time>
      </trkpt>
      <trkpt lat="42.27207" lon="8.89455">
        <ele>1340.7</ele>
        <time>2015-09-11T06:09:43Z</time>
      </trkpt>
      <trkpt lat="42.27197" lon="8.8945">
        <ele>1340.22</ele>
        <time>2015-09-11T06:09:49Z</time>
      </trkpt>
      <trkpt lat="42.27193" lon="8.89443">
        <ele>1340.7</ele>
        <time>2015-09-11T06:09:55Z</time>
      </trkpt>
      <trkpt lat="42.27186" lon="8.89438">
        <ele>1340.22</ele>
        <time>2015-09-11T06:10:02Z</time>
      </trkpt>
      <trkpt lat="42.27181" lon="8.89421">
        <ele>1340.22</ele>
        <time>2015-09-11T06:10:12Z</time>
      </trkpt>
      <trkpt lat="42.27173" lon="8.89412">
        <ele>1340.22</ele>
        <time>2015-09-11T06:10:20Z</time>
      </trkpt>
      <trkpt lat="42.2717" lon="8.89403">
        <ele>1340.22</ele>
        <time>2015-09-11T06:10:26Z</time>
      </trkpt>
      <trkpt lat="42.27166" lon="8.89396">
        <ele>1340.22</ele>
        <time>2015-09-11T06:10:31Z</time>
      </trkpt>
      <trkpt lat="42.27164" lon="8.89391">
        <ele>1340.22</ele>
        <time>2015-09-11T06:10:34Z</time>
      </trkpt>
      <trkpt lat="42.27154" lon="8.89373">
        <ele>1340.7</ele>
        <time>2015-09-11T06:10:47Z</time>
      </trkpt>
      <trkpt lat="42.27145" lon="8.8936">
        <ele>1340.7</ele>
        <time>2015-09-11T06:10:58Z</time>
      </trkpt>
      <trkpt lat="42.27135" lon="8.8934">
        <ele>1341.18</ele>
        <time>2015-09-11T06:11:11Z</time>
      </trkpt>
      <trkpt lat="42.27128" lon="8.89323">
        <ele>1341.18</ele>
        <time>2015-09-11T06:11:24Z</time>
      </trkpt>
      <trkpt lat="42.27127" lon="8.89315">
        <ele>1340.7</ele>
        <time>2015-09-11T06:11:28Z</time>
      </trkpt>
      <trkpt lat="42.27121" lon="8.8931">
        <ele>1340.22</ele>
        <time>2015-09-11T06:11:34Z</time>
      </trkpt>
      <trkpt lat="42.27117" lon="8.89303">
        <ele>1339.73</ele>
        <time>2015-09-11T06:11:37Z</time>
      </trkpt>
      <trkpt lat="42.27116" lon="8.89295">
        <ele>1340.22</ele>
        <time>2015-09-11T06:11:41Z</time>
      </trkpt>
      <trkpt lat="42.27112" lon="8.89283">
        <ele>1340.22</ele>
        <time>2015-09-11T06:11:49Z</time>
      </trkpt>
      <trkpt lat="42.27108" lon="8.89273">
        <ele>1340.22</ele>
        <time>2015-09-11T06:11:55Z</time>
      </trkpt>
      <trkpt lat="42.27108" lon="8.8926">
        <ele>1340.22</ele>
        <time>2015-09-11T06:12:01Z</time>
      </trkpt>
      <trkpt lat="42.27101" lon="8.8924">
        <ele>1339.73</ele>
        <time>2015-09-11T06:12:13Z</time>
      </trkpt>
      <trkpt lat="42.27101" lon="8.89238">
        <ele>1339.25</ele>
        <time>2015-09-11T06:12:14Z</time>
      </trkpt>
      <trkpt lat="42.27099" lon="8.8923">
        <ele>1339.73</ele>
        <time>2015-09-11T06:12:19Z</time>
      </trkpt>
      <trkpt lat="42.27095" lon="8.89223">
        <ele>1340.22</ele>
        <time>2015-09-11T06:12:24Z</time>
      </trkpt>
      <trkpt lat="42.27095" lon="8.89219">
        <ele>1340.22</ele>
        <time>2015-09-11T06:12:27Z</time>
      </trkpt>
      <trkpt lat="42.27091" lon="8.8921">
        <ele>1339.73</ele>
        <time>2015-09-11T06:12:34Z</time>
      </trkpt>
      <trkpt lat="42.27086" lon="8.89196">
        <ele>1340.7</ele>
        <time>2015-09-11T06:12:45Z</time>
      </trkpt>
      <trkpt lat="42.27083" lon="8.89189">
        <ele>1340.7</ele>
        <time>2015-09-11T06:12:50Z</time>
      </trkpt>
      <trkpt lat="42.27077" lon="8.89177">
        <ele>1341.18</ele>
        <time>2015-09-11T06:12:58Z</time>
      </trkpt>
      <trkpt lat="42.27076" lon="8.89168">
        <ele>1341.66</ele>
        <time>2015-09-11T06:13:04Z</time>
      </trkpt>
      <trkpt lat="42.27063" lon="8.89144">
        <ele>1342.14</ele>
        <time>2015-09-11T06:13:18Z</time>
      </trkpt>
      <trkpt lat="42.27062" lon="8.89137">
        <ele>1342.62</ele>
        <time>2015-09-11T06:13:21Z</time>
      </trkpt>
      <trkpt lat="42.27057" lon="8.89115">
        <ele>1342.62</ele>
        <time>2015-09-11T06:13:34Z</time>
      </trkpt>
      <trkpt lat="42.27059" lon="8.89102">
        <ele>1343.58</ele>
        <time>2015-09-11T06:13:44Z</time>
      </trkpt>
      <trkpt lat="42.27058" lon="8.89091">
        <ele>1344.06</ele>
        <time>2015-09-11T06:13:54Z</time>
      </trkpt>
      <trkpt lat="42.27058" lon="8.89087">
        <ele>1344.06</ele>
        <time>2015-09-11T06:13:57Z</time>
      </trkpt>
      <trkpt lat="42.27057" lon="8.89084">
        <ele>1343.58</ele>
        <time>2015-09-11T06:14:00Z</time>
      </trkpt>
      <trkpt lat="42.27056" lon="8.89078">
        <ele>1343.58</ele>
        <time>2015-09-11T06:14:05Z</time>
      </trkpt>
      <trkpt lat="42.2705" lon="8.8908">
        <ele>1344.06</ele>
        <time>2015-09-11T06:14:17Z</time>
      </trkpt>
      <trkpt lat="42.27047" lon="8.89081">
        <ele>1345.02</ele>
        <time>2015-09-11T06:14:22Z</time>
      </trkpt>
      <trkpt lat="42.27045" lon="8.89083">
        <ele>1345.5</ele>
        <time>2015-09-11T06:14:24Z</time>
      </trkpt>
      <trkpt lat="42.27039" lon="8.89088">
        <ele>1345.98</ele>
        <time>2015-09-11T06:14:30Z</time>
      </trkpt>
      <trkpt lat="42.2703" lon="8.89088">
        <ele>1345.98</ele>
        <time>2015-09-11T06:14:37Z</time>
      </trkpt>
      <trkpt lat="42.27025" lon="8.89093">
        <ele>1346.46</ele>
        <time>2015-09-11T06:14:45Z</time>
      </trkpt>
      <trkpt lat="42.27017" lon="8.89096">
        <ele>1345.98</ele>
        <time>2015-09-11T06:14:51Z</time>
      </trkpt>
      <trkpt lat="42.27014" lon="8.89096">
        <ele>1345.98</ele>
        <time>2015-09-11T06:14:53Z</time>
      </trkpt>
      <trkpt lat="42.27004" lon="8.89112">
        <ele>1346.46</ele>
        <time>2015-09-11T06:15:05Z</time>
      </trkpt>
      <trkpt lat="42.26995" lon="8.89112">
        <ele>1346.94</ele>
        <time>2015-09-11T06:15:12Z</time>
      </trkpt>
      <trkpt lat="42.26987" lon="8.89118">
        <ele>1347.43</ele>
        <time>2015-09-11T06:15:20Z</time>
      </trkpt>
      <trkpt lat="42.26983" lon="8.89133">
        <ele>1347.91</ele>
        <time>2015-09-11T06:15:30Z</time>
      </trkpt>
      <trkpt lat="42.26978" lon="8.89147">
        <ele>1348.87</ele>
        <time>2015-09-11T06:15:42Z</time>
      </trkpt>
      <trkpt lat="42.26973" lon="8.89155">
        <ele>1348.87</ele>
        <time>2015-09-11T06:15:49Z</time>
      </trkpt>
      <trkpt lat="42.26968" lon="8.8916">
        <ele>1349.35</ele>
        <time>2015-09-11T06:15:54Z</time>
      </trkpt>
      <trkpt lat="42.26966" lon="8.89163">
        <ele>1349.35</ele>
        <time>2015-09-11T06:15:56Z</time>
      </trkpt>
      <trkpt lat="42.26952" lon="8.89171">
        <ele>1349.83</ele>
        <time>2015-09-11T06:16:09Z</time>
      </trkpt>
      <trkpt lat="42.26949" lon="8.89174">
        <ele>1350.31</ele>
        <time>2015-09-11T06:16:12Z</time>
      </trkpt>
      <trkpt lat="42.26942" lon="8.89184">
        <ele>1350.31</ele>
        <time>2015-09-11T06:16:25Z</time>
      </trkpt>
      <trkpt lat="42.26945" lon="8.89192">
        <ele>1350.31</ele>
        <time>2015-09-11T06:16:33Z</time>
      </trkpt>
      <trkpt lat="42.26942" lon="8.89201">
        <ele>1350.31</ele>
        <time>2015-09-11T06:16:43Z</time>
      </trkpt>
      <trkpt lat="42.26939" lon="8.89207">
        <ele>1350.79</ele>
        <time>2015-09-11T06:16:55Z</time>
      </trkpt>
      <trkpt lat="42.2694" lon="8.89219">
        <ele>1351.27</ele>
        <time>2015-09-11T06:17:04Z</time>
      </trkpt>
      <trkpt lat="42.26936" lon="8.89244">
        <ele>1352.23</ele>
        <time>2015-09-11T06:17:19Z</time>
      </trkpt>
      <trkpt lat="42.2693" lon="8.89258">
        <ele>1352.71</ele>
        <time>2015-09-11T06:17:30Z</time>
      </trkpt>
      <trkpt lat="42.26924" lon="8.89281">
        <ele>1353.19</ele>
        <time>2015-09-11T06:17:41Z</time>
      </trkpt>
      <trkpt lat="42.26922" lon="8.89287">
        <ele>1353.19</ele>
        <time>2015-09-11T06:17:45Z</time>
      </trkpt>
      <trkpt lat="42.26918" lon="8.89295">
        <ele>1353.19</ele>
        <time>2015-09-11T06:17:50Z</time>
      </trkpt>
      <trkpt lat="42.26916" lon="8.8931">
        <ele>1353.19</ele>
        <time>2015-09-11T06:17:59Z</time>
      </trkpt>
      <trkpt lat="42.26914" lon="8.89314">
        <ele>1353.67</ele>
        <time>2015-09-11T06:18:01Z</time>
      </trkpt>
      <trkpt lat="42.26909" lon="8.89323">
        <ele>1353.67</ele>
        <time>2015-09-11T06:18:07Z</time>
      </trkpt>
      <trkpt lat="42.26908" lon="8.89326">
        <ele>1353.67</ele>
        <time>2015-09-11T06:18:09Z</time>
      </trkpt>
      <trkpt lat="42.26903" lon="8.89329">
        <ele>1354.15</ele>
        <time>2015-09-11T06:18:13Z</time>
      </trkpt>
      <trkpt lat="42.26898" lon="8.89333">
        <ele>1354.63</ele>
        <time>2015-09-11T06:18:18Z</time>
      </trkpt>
      <trkpt lat="42.26895" lon="8.89338">
        <ele>1354.63</ele>
        <time>2015-09-11T06:18:22Z</time>
      </trkpt>
      <trkpt lat="42.26891" lon="8.89347">
        <ele>1355.12</ele>
        <time>2015-09-11T06:18:29Z</time>
      </trkpt>
      <trkpt lat="42.26887" lon="8.89352">
        <ele>1355.12</ele>
        <time>2015-09-11T06:18:33Z</time>
      </trkpt>
      <trkpt lat="42.26883" lon="8.8936">
        <ele>1355.12</ele>
        <time>2015-09-11T06:18:39Z</time>
      </trkpt>
      <trkpt lat="42.26872" lon="8.89367">
        <ele>1355.12</ele>
        <time>2015-09-11T06:18:47Z</time>
      </trkpt>
      <trkpt lat="42.26862" lon="8.89367">
        <ele>1355.12</ele>
        <time>2015-09-11T06:18:54Z</time>
      </trkpt>
      <trkpt lat="42.2686" lon="8.89364">
        <ele>1355.12</ele>
        <time>2015-09-11T06:18:57Z</time>
      </trkpt>
      <trkpt lat="42.26848" lon="8.89363">
        <ele>1356.08</ele>
        <time>2015-09-11T06:19:09Z</time>
      </trkpt>
      <trkpt lat="42.2684" lon="8.89362">
        <ele>1357.04</ele>
        <time>2015-09-11T06:19:15Z</time>
      </trkpt>
      <trkpt lat="42.26826" lon="8.8936">
        <ele>1356.56</ele>
        <time>2015-09-11T06:19:26Z</time>
      </trkpt>
      <trkpt lat="42.26807" lon="8.89351">
        <ele>1356.56</ele>
        <time>2015-09-11T06:19:39Z</time>
      </trkpt>
      <trkpt lat="42.268" lon="8.89348">
        <ele>1356.56</ele>
        <time>2015-09-11T06:19:45Z</time>
      </trkpt>
      <trkpt lat="42.26796" lon="8.89347">
        <ele>1356.08</ele>
        <time>2015-09-11T06:19:48Z</time>
      </trkpt>
      <trkpt lat="42.2679" lon="8.89342">
        <ele>1356.56</ele>
        <time>2015-09-11T06:19:53Z</time>
      </trkpt>
      <trkpt lat="42.26773" lon="8.89343">
        <ele>1356.08</ele>
        <time>2015-09-11T06:20:06Z</time>
      </trkpt>
      <trkpt lat="42.26767" lon="8.89338">
        <ele>1356.08</ele>
        <time>2015-09-11T06:20:10Z</time>
      </trkpt>
      <trkpt lat="42.26762" lon="8.89331">
        <ele>1356.08</ele>
        <time>2015-09-11T06:20:16Z</time>
      </trkpt>
      <trkpt lat="42.26758" lon="8.89328">
        <ele>1356.08</ele>
        <time>2015-09-11T06:20:20Z</time>
      </trkpt>
      <trkpt lat="42.26754" lon="8.89325">
        <ele>1356.08</ele>
        <time>2015-09-11T06:20:24Z</time>
      </trkpt>
      <trkpt lat="42.26749" lon="8.89318">
        <ele>1356.56</ele>
        <time>2015-09-11T06:20:31Z</time>
      </trkpt>
      <trkpt lat="42.26747" lon="8.89316">
        <ele>1356.56</ele>
        <time>2015-09-11T06:20:35Z</time>
      </trkpt>
      <trkpt lat="42.26743" lon="8.89317">
        <ele>1356.56</ele>
        <time>2015-09-11T06:20:40Z</time>
      </trkpt>
      <trkpt lat="42.26734" lon="8.89331">
        <ele>1355.6</ele>
        <time>2015-09-11T06:20:55Z</time>
      </trkpt>
      <trkpt lat="42.26732" lon="8.89337">
        <ele>1356.08</ele>
        <time>2015-09-11T06:21:02Z</time>
      </trkpt>
      <trkpt lat="42.26729" lon="8.89344">
        <ele>1356.56</ele>
        <time>2015-09-11T06:21:08Z</time>
      </trkpt>
      <trkpt lat="42.26722" lon="8.89363">
        <ele>1357.04</ele>
        <time>2015-09-11T06:21:22Z</time>
      </trkpt>
      <trkpt lat="42.2671" lon="8.89381">
        <ele>1357.52</ele>
        <time>2015-09-11T06:21:35Z</time>
      </trkpt>
      <trkpt lat="42.26709" lon="8.89381">
        <ele>1357.52</ele>
        <time>2015-09-11T06:21:36Z</time>
      </trkpt>
      <trkpt lat="42.26704" lon="8.8938">
        <ele>1357.52</ele>
        <time>2015-09-11T06:21:40Z</time>
      </trkpt>
      <trkpt lat="42.26694" lon="8.89373">
        <ele>1358</ele>
        <time>2015-09-11T06:21:49Z</time>
      </trkpt>
      <trkpt lat="42.2669" lon="8.89372">
        <ele>1358</ele>
        <time>2015-09-11T06:21:52Z</time>
      </trkpt>
      <trkpt lat="42.26689" lon="8.89371">
        <ele>1358</ele>
        <time>2015-09-11T06:21:53Z</time>
      </trkpt>
      <trkpt lat="42.26682" lon="8.89365">
        <ele>1358.48</ele>
        <time>2015-09-11T06:22:00Z</time>
      </trkpt>
      <trkpt lat="42.26675" lon="8.8936">
        <ele>1358</ele>
        <time>2015-09-11T06:22:05Z</time>
      </trkpt>
      <trkpt lat="42.26674" lon="8.89359">
        <ele>1358</ele>
        <time>2015-09-11T06:22:06Z</time>
      </trkpt>
      <trkpt lat="42.26664" lon="8.89352">
        <ele>1359.44</ele>
        <time>2015-09-11T06:22:17Z</time>
      </trkpt>
      <trkpt lat="42.26663" lon="8.89351">
        <ele>1359.44</ele>
        <time>2015-09-11T06:22:19Z</time>
      </trkpt>
      <trkpt lat="42.26657" lon="8.8935">
        <ele>1359.44</ele>
        <time>2015-09-11T06:22:25Z</time>
      </trkpt>
      <trkpt lat="42.26655" lon="8.89351">
        <ele>1359.44</ele>
        <time>2015-09-11T06:22:27Z</time>
      </trkpt>
      <trkpt lat="42.26652" lon="8.89359">
        <ele>1359.44</ele>
        <time>2015-09-11T06:22:32Z</time>
      </trkpt>
      <trkpt lat="42.26647" lon="8.89362">
        <ele>1359.44</ele>
        <time>2015-09-11T06:22:37Z</time>
      </trkpt>
      <trkpt lat="42.26645" lon="8.89363">
        <ele>1359.44</ele>
        <time>2015-09-11T06:22:40Z</time>
      </trkpt>
      <trkpt lat="42.26635" lon="8.89371">
        <ele>1359.92</ele>
        <time>2015-09-11T06:22:51Z</time>
      </trkpt>
      <trkpt lat="42.26633" lon="8.89377">
        <ele>1359.44</ele>
        <time>2015-09-11T06:22:54Z</time>
      </trkpt>
      <trkpt lat="42.26627" lon="8.89383">
        <ele>1359.92</ele>
        <time>2015-09-11T06:22:59Z</time>
      </trkpt>
      <trkpt lat="42.26619" lon="8.89391">
        <ele>1359.44</ele>
        <time>2015-09-11T06:23:07Z</time>
      </trkpt>
      <trkpt lat="42.26606" lon="8.89388">
        <ele>1359.44</ele>
        <time>2015-09-11T06:23:16Z</time>
      </trkpt>
      <trkpt lat="42.266" lon="8.8939">
        <ele>1359.44</ele>
        <time>2015-09-11T06:23:20Z</time>
      </trkpt>
      <trkpt lat="42.26597" lon="8.89387">
        <ele>1359.44</ele>
        <time>2015-09-11T06:23:23Z</time>
      </trkpt>
      <trkpt lat="42.26592" lon="8.89384">
        <ele>1359.44</ele>
        <time>2015-09-11T06:23:28Z</time>
      </trkpt>
      <trkpt lat="42.26578" lon="8.89374">
        <ele>1360.4</ele>
        <time>2015-09-11T06:23:41Z</time>
      </trkpt>
      <trkpt lat="42.26566" lon="8.89372">
        <ele>1360.4</ele>
        <time>2015-09-11T06:23:52Z</time>
      </trkpt>
      <trkpt lat="42.26563" lon="8.89376">
        <ele>1360.88</ele>
        <time>2015-09-11T06:23:56Z</time>
      </trkpt>
      <trkpt lat="42.26553" lon="8.8938">
        <ele>1360.88</ele>
        <time>2015-09-11T06:24:03Z</time>
      </trkpt>
      <trkpt lat="42.2655" lon="8.89381">
        <ele>1361.36</ele>
        <time>2015-09-11T06:24:06Z</time>
      </trkpt>
      <trkpt lat="42.26546" lon="8.89384">
        <ele>1360.88</ele>
        <time>2015-09-11T06:24:11Z</time>
      </trkpt>
      <trkpt lat="42.26543" lon="8.89383">
        <ele>1360.88</ele>
        <time>2015-09-11T06:24:13Z</time>
      </trkpt>
      <trkpt lat="42.26541" lon="8.89381">
        <ele>1361.36</ele>
        <time>2015-09-11T06:24:16Z</time>
      </trkpt>
      <trkpt lat="42.26538" lon="8.89381">
        <ele>1361.36</ele>
        <time>2015-09-11T06:24:18Z</time>
      </trkpt>
      <trkpt lat="42.26533" lon="8.89383">
        <ele>1361.84</ele>
        <time>2015-09-11T06:24:22Z</time>
      </trkpt>
      <trkpt lat="42.26518" lon="8.89383">
        <ele>1361.84</ele>
        <time>2015-09-11T06:24:32Z</time>
      </trkpt>
      <trkpt lat="42.26514" lon="8.89383">
        <ele>1362.33</ele>
        <time>2015-09-11T06:24:35Z</time>
      </trkpt>
      <trkpt lat="42.26512" lon="8.89385">
        <ele>1362.33</ele>
        <time>2015-09-11T06:24:37Z</time>
      </trkpt>
      <trkpt lat="42.2651" lon="8.89385">
        <ele>1362.33</ele>
        <time>2015-09-11T06:24:39Z</time>
      </trkpt>
      <trkpt lat="42.26506" lon="8.8939">
        <ele>1362.33</ele>
        <time>2015-09-11T06:24:44Z</time>
      </trkpt>
      <trkpt lat="42.26506" lon="8.89393">
        <ele>1362.81</ele>
        <time>2015-09-11T06:24:46Z</time>
      </trkpt>
      <trkpt lat="42.26505" lon="8.89397">
        <ele>1362.33</ele>
        <time>2015-09-11T06:24:50Z</time>
      </trkpt>
      <trkpt lat="42.26506" lon="8.894">
        <ele>1362.33</ele>
        <time>2015-09-11T06:24:53Z</time>
      </trkpt>
      <trkpt lat="42.26506" lon="8.89406">
        <ele>1362.33</ele>
        <time>2015-09-11T06:24:57Z</time>
      </trkpt>
      <trkpt lat="42.26509" lon="8.89413">
        <ele>1361.84</ele>
        <time>2015-09-11T06:25:02Z</time>
      </trkpt>
      <trkpt lat="42.26508" lon="8.89418">
        <ele>1361.84</ele>
        <time>2015-09-11T06:25:06Z</time>
      </trkpt>
      <trkpt lat="42.26508" lon="8.89422">
        <ele>1361.84</ele>
        <time>2015-09-11T06:25:09Z</time>
      </trkpt>
      <trkpt lat="42.26508" lon="8.89431">
        <ele>1361.84</ele>
        <time>2015-09-11T06:25:15Z</time>
      </trkpt>
      <trkpt lat="42.26508" lon="8.89437">
        <ele>1361.36</ele>
        <time>2015-09-11T06:25:19Z</time>
      </trkpt>
      <trkpt lat="42.26513" lon="8.89445">
        <ele>1361.36</ele>
        <time>2015-09-11T06:25:24Z</time>
      </trkpt>
      <trkpt lat="42.26515" lon="8.89447">
        <ele>1361.84</ele>
        <time>2015-09-11T06:25:26Z</time>
      </trkpt>
      <trkpt lat="42.26516" lon="8.8945">
        <ele>1361.84</ele>
        <time>2015-09-11T06:25:28Z</time>
      </trkpt>
      <trkpt lat="42.26519" lon="8.89467">
        <ele>1361.36</ele>
        <time>2015-09-11T06:25:38Z</time>
      </trkpt>
      <trkpt lat="42.2652" lon="8.89472">
        <ele>1361.36</ele>
        <time>2015-09-11T06:25:42Z</time>
      </trkpt>
      <trkpt lat="42.26519" lon="8.89476">
        <ele>1361.36</ele>
        <time>2015-09-11T06:25:44Z</time>
      </trkpt>
      <trkpt lat="42.26519" lon="8.89485">
        <ele>1361.36</ele>
        <time>2015-09-11T06:25:49Z</time>
      </trkpt>
      <trkpt lat="42.26522" lon="8.89497">
        <ele>1361.84</ele>
        <time>2015-09-11T06:25:56Z</time>
      </trkpt>
      <trkpt lat="42.26523" lon="8.89507">
        <ele>1361.36</ele>
        <time>2015-09-11T06:26:02Z</time>
      </trkpt>
      <trkpt lat="42.26525" lon="8.89516">
        <ele>1361.36</ele>
        <time>2015-09-11T06:26:07Z</time>
      </trkpt>
      <trkpt lat="42.26525" lon="8.89528">
        <ele>1361.84</ele>
        <time>2015-09-11T06:26:14Z</time>
      </trkpt>
      <trkpt lat="42.26522" lon="8.89548">
        <ele>1361.84</ele>
        <time>2015-09-11T06:26:25Z</time>
      </trkpt>
      <trkpt lat="42.26522" lon="8.89558">
        <ele>1361.84</ele>
        <time>2015-09-11T06:26:30Z</time>
      </trkpt>
      <trkpt lat="42.26521" lon="8.89576">
        <ele>1362.33</ele>
        <time>2015-09-11T06:26:44Z</time>
      </trkpt>
      <trkpt lat="42.2652" lon="8.89579">
        <ele>1362.81</ele>
        <time>2015-09-11T06:26:58Z</time>
      </trkpt>
      <trkpt lat="42.2652" lon="8.89579">
        <ele>1362.81</ele>
        <time>2015-09-11T06:27:21Z</time>
      </trkpt>
      <trkpt lat="42.26519" lon="8.89579">
        <ele>1362.33</ele>
        <time>2015-09-11T06:27:39Z</time>
      </trkpt>
      <trkpt lat="42.26518" lon="8.89577">
        <ele>1362.33</ele>
        <time>2015-09-11T06:27:55Z</time>
      </trkpt>
      <trkpt lat="42.26517" lon="8.89576">
        <ele>1361.84</ele>
        <time>2015-09-11T06:28:19Z</time>
      </trkpt>
      <trkpt lat="42.26517" lon="8.89576">
        <ele>1361.84</ele>
        <time>2015-09-11T06:28:53Z</time>
      </trkpt>
      <trkpt lat="42.26517" lon="8.89576">
        <ele>1361.36</ele>
        <time>2015-09-11T06:29:13Z</time>
      </trkpt>
      <trkpt lat="42.26517" lon="8.89576">
        <ele>1362.33</ele>
        <time>2015-09-11T06:29:25Z</time>
      </trkpt>
      <trkpt lat="42.26516" lon="8.89577">
        <ele>1362.81</ele>
        <time>2015-09-11T06:29:39Z</time>
      </trkpt>
      <trkpt lat="42.26516" lon="8.89577">
        <ele>1362.33</ele>
        <time>2015-09-11T06:30:03Z</time>
      </trkpt>
      <trkpt lat="42.26514" lon="8.8958">
        <ele>1362.81</ele>
        <time>2015-09-11T06:30:18Z</time>
      </trkpt>
      <trkpt lat="42.26514" lon="8.89581">
        <ele>1363.29</ele>
        <time>2015-09-11T06:30:19Z</time>
      </trkpt>
      <trkpt lat="42.26507" lon="8.89584">
        <ele>1365.21</ele>
        <time>2015-09-11T06:30:30Z</time>
      </trkpt>
      <trkpt lat="42.26506" lon="8.89579">
        <ele>1366.65</ele>
        <time>2015-09-11T06:30:42Z</time>
      </trkpt>
      <trkpt lat="42.26504" lon="8.89572">
        <ele>1367.13</ele>
        <time>2015-09-11T06:31:00Z</time>
      </trkpt>
      <trkpt lat="42.26501" lon="8.89571">
        <ele>1369.05</ele>
        <time>2015-09-11T06:31:11Z</time>
      </trkpt>
      <trkpt lat="42.26496" lon="8.89572">
        <ele>1370.5</ele>
        <time>2015-09-11T06:31:23Z</time>
      </trkpt>
      <trkpt lat="42.26497" lon="8.89563">
        <ele>1371.94</ele>
        <time>2015-09-11T06:31:31Z</time>
      </trkpt>
      <trkpt lat="42.26496" lon="8.89559">
        <ele>1371.94</ele>
        <time>2015-09-11T06:31:34Z</time>
      </trkpt>
      <trkpt lat="42.26494" lon="8.89547">
        <ele>1373.86</ele>
        <time>2015-09-11T06:31:47Z</time>
      </trkpt>
      <trkpt lat="42.26492" lon="8.89549">
        <ele>1374.82</ele>
        <time>2015-09-11T06:31:54Z</time>
      </trkpt>
      <trkpt lat="42.26491" lon="8.89552">
        <ele>1375.3</ele>
        <time>2015-09-11T06:31:57Z</time>
      </trkpt>
      <trkpt lat="42.2649" lon="8.89554">
        <ele>1375.78</ele>
        <time>2015-09-11T06:32:00Z</time>
      </trkpt>
      <trkpt lat="42.26485" lon="8.89552">
        <ele>1377.23</ele>
        <time>2015-09-11T06:32:10Z</time>
      </trkpt>
      <trkpt lat="42.26485" lon="8.89545">
        <ele>1378.19</ele>
        <time>2015-09-11T06:32:15Z</time>
      </trkpt>
      <trkpt lat="42.26484" lon="8.8953">
        <ele>1379.15</ele>
        <time>2015-09-11T06:32:26Z</time>
      </trkpt>
      <trkpt lat="42.26481" lon="8.89522">
        <ele>1380.59</ele>
        <time>2015-09-11T06:32:35Z</time>
      </trkpt>
      <trkpt lat="42.26474" lon="8.89513">
        <ele>1382.99</ele>
        <time>2015-09-11T06:32:48Z</time>
      </trkpt>
      <trkpt lat="42.26468" lon="8.89496">
        <ele>1384.92</ele>
        <time>2015-09-11T06:33:01Z</time>
      </trkpt>
      <trkpt lat="42.2646" lon="8.89487">
        <ele>1386.84</ele>
        <time>2015-09-11T06:33:14Z</time>
      </trkpt>
      <trkpt lat="42.26454" lon="8.8947">
        <ele>1387.8</ele>
        <time>2015-09-11T06:33:28Z</time>
      </trkpt>
      <trkpt lat="42.26449" lon="8.89457">
        <ele>1389.24</ele>
        <time>2015-09-11T06:33:39Z</time>
      </trkpt>
      <trkpt lat="42.26448" lon="8.89452">
        <ele>1389.72</ele>
        <time>2015-09-11T06:33:42Z</time>
      </trkpt>
      <trkpt lat="42.26446" lon="8.89447">
        <ele>1390.2</ele>
        <time>2015-09-11T06:33:45Z</time>
      </trkpt>
      <trkpt lat="42.26447" lon="8.89429">
        <ele>1391.65</ele>
        <time>2015-09-11T06:33:58Z</time>
      </trkpt>
      <trkpt lat="42.26447" lon="8.89424">
        <ele>1392.13</ele>
        <time>2015-09-11T06:34:03Z</time>
      </trkpt>
      <trkpt lat="42.2644" lon="8.8941">
        <ele>1394.05</ele>
        <time>2015-09-11T06:34:18Z</time>
      </trkpt>
      <trkpt lat="42.26434" lon="8.89393">
        <ele>1395.49</ele>
        <time>2015-09-11T06:34:32Z</time>
      </trkpt>
      <trkpt lat="42.26426" lon="8.89379">
        <ele>1397.41</ele>
        <time>2015-09-11T06:34:45Z</time>
      </trkpt>
      <trkpt lat="42.26424" lon="8.89359">
        <ele>1399.34</ele>
        <time>2015-09-11T06:34:58Z</time>
      </trkpt>
      <trkpt lat="42.26425" lon="8.89358">
        <ele>1399.34</ele>
        <time>2015-09-11T06:34:59Z</time>
      </trkpt>
      <trkpt lat="42.26423" lon="8.89344">
        <ele>1400.78</ele>
        <time>2015-09-11T06:35:12Z</time>
      </trkpt>
      <trkpt lat="42.26422" lon="8.89341">
        <ele>1402.7</ele>
        <time>2015-09-11T06:35:17Z</time>
      </trkpt>
      <trkpt lat="42.26421" lon="8.89328">
        <ele>1403.18</ele>
        <time>2015-09-11T06:35:28Z</time>
      </trkpt>
      <trkpt lat="42.26417" lon="8.89317">
        <ele>1405.58</ele>
        <time>2015-09-11T06:35:41Z</time>
      </trkpt>
      <trkpt lat="42.26417" lon="8.89304">
        <ele>1407.51</ele>
        <time>2015-09-11T06:35:53Z</time>
      </trkpt>
      <trkpt lat="42.26424" lon="8.89291">
        <ele>1408.95</ele>
        <time>2015-09-11T06:36:05Z</time>
      </trkpt>
      <trkpt lat="42.26432" lon="8.89285">
        <ele>1409.91</ele>
        <time>2015-09-11T06:36:12Z</time>
      </trkpt>
      <trkpt lat="42.26438" lon="8.89285">
        <ele>1409.91</ele>
        <time>2015-09-11T06:36:16Z</time>
      </trkpt>
      <trkpt lat="42.26446" lon="8.89282">
        <ele>1410.87</ele>
        <time>2015-09-11T06:36:26Z</time>
      </trkpt>
      <trkpt lat="42.26463" lon="8.89281">
        <ele>1410.87</ele>
        <time>2015-09-11T06:36:39Z</time>
      </trkpt>
      <trkpt lat="42.2647" lon="8.89273">
        <ele>1412.79</ele>
        <time>2015-09-11T06:36:52Z</time>
      </trkpt>
      <trkpt lat="42.26471" lon="8.8927">
        <ele>1413.76</ele>
        <time>2015-09-11T06:36:56Z</time>
      </trkpt>
      <trkpt lat="42.26476" lon="8.89265">
        <ele>1416.16</ele>
        <time>2015-09-11T06:37:07Z</time>
      </trkpt>
      <trkpt lat="42.26479" lon="8.89258">
        <ele>1417.12</ele>
        <time>2015-09-11T06:37:14Z</time>
      </trkpt>
      <trkpt lat="42.26477" lon="8.8926">
        <ele>1417.6</ele>
        <time>2015-09-11T06:37:19Z</time>
      </trkpt>
      <trkpt lat="42.26472" lon="8.89262">
        <ele>1419.04</ele>
        <time>2015-09-11T06:37:27Z</time>
      </trkpt>
      <trkpt lat="42.2647" lon="8.89263">
        <ele>1419.04</ele>
        <time>2015-09-11T06:37:29Z</time>
      </trkpt>
      <trkpt lat="42.26458" lon="8.89264">
        <ele>1420.97</ele>
        <time>2015-09-11T06:37:43Z</time>
      </trkpt>
      <trkpt lat="42.26446" lon="8.89262">
        <ele>1422.89</ele>
        <time>2015-09-11T06:37:57Z</time>
      </trkpt>
      <trkpt lat="42.26438" lon="8.89258">
        <ele>1423.85</ele>
        <time>2015-09-11T06:38:07Z</time>
      </trkpt>
      <trkpt lat="42.2643" lon="8.89254">
        <ele>1425.77</ele>
        <time>2015-09-11T06:38:17Z</time>
      </trkpt>
      <trkpt lat="42.26425" lon="8.89254">
        <ele>1426.25</ele>
        <time>2015-09-11T06:38:21Z</time>
      </trkpt>
      <trkpt lat="42.2642" lon="8.89254">
        <ele>1426.73</ele>
        <time>2015-09-11T06:38:27Z</time>
      </trkpt>
      <trkpt lat="42.26417" lon="8.89254">
        <ele>1427.21</ele>
        <time>2015-09-11T06:38:30Z</time>
      </trkpt>
      <trkpt lat="42.26411" lon="8.89253">
        <ele>1428.18</ele>
        <time>2015-09-11T06:38:36Z</time>
      </trkpt>
      <trkpt lat="42.26401" lon="8.89253">
        <ele>1430.1</ele>
        <time>2015-09-11T06:38:48Z</time>
      </trkpt>
      <trkpt lat="42.26398" lon="8.89253">
        <ele>1430.58</ele>
        <time>2015-09-11T06:38:51Z</time>
      </trkpt>
      <trkpt lat="42.26395" lon="8.89256">
        <ele>1431.06</ele>
        <time>2015-09-11T06:38:55Z</time>
      </trkpt>
      <trkpt lat="42.26386" lon="8.89265">
        <ele>1432.02</ele>
        <time>2015-09-11T06:39:06Z</time>
      </trkpt>
      <trkpt lat="42.2638" lon="8.89273">
        <ele>1433.46</ele>
        <time>2015-09-11T06:39:16Z</time>
      </trkpt>
      <trkpt lat="42.26378" lon="8.89279">
        <ele>1433.94</ele>
        <time>2015-09-11T06:39:21Z</time>
      </trkpt>
      <trkpt lat="42.26376" lon="8.89286">
        <ele>1433.94</ele>
        <time>2015-09-11T06:39:26Z</time>
      </trkpt>
      <trkpt lat="42.26372" lon="8.89293">
        <ele>1435.39</ele>
        <time>2015-09-11T06:39:34Z</time>
      </trkpt>
      <trkpt lat="42.26366" lon="8.89301">
        <ele>1437.79</ele>
        <time>2015-09-11T06:39:46Z</time>
      </trkpt>
      <trkpt lat="42.26363" lon="8.89317">
        <ele>1439.71</ele>
        <time>2015-09-11T06:40:00Z</time>
      </trkpt>
      <trkpt lat="42.26361" lon="8.89321">
        <ele>1440.19</ele>
        <time>2015-09-11T06:40:04Z</time>
      </trkpt>
      <trkpt lat="42.26357" lon="8.89332">
        <ele>1441.15</ele>
        <time>2015-09-11T06:40:13Z</time>
      </trkpt>
      <trkpt lat="42.26355" lon="8.89336">
        <ele>1441.63</ele>
        <time>2015-09-11T06:40:17Z</time>
      </trkpt>
      <trkpt lat="42.26354" lon="8.89341">
        <ele>1442.6</ele>
        <time>2015-09-11T06:40:21Z</time>
      </trkpt>
      <trkpt lat="42.26354" lon="8.89344">
        <ele>1442.6</ele>
        <time>2015-09-11T06:40:23Z</time>
      </trkpt>
      <trkpt lat="42.26348" lon="8.89353">
        <ele>1444.52</ele>
        <time>2015-09-11T06:40:35Z</time>
      </trkpt>
      <trkpt lat="42.26345" lon="8.89347">
        <ele>1445.48</ele>
        <time>2015-09-11T06:40:40Z</time>
      </trkpt>
      <trkpt lat="42.26342" lon="8.89335">
        <ele>1446.92</ele>
        <time>2015-09-11T06:40:50Z</time>
      </trkpt>
      <trkpt lat="42.26341" lon="8.89329">
        <ele>1447.4</ele>
        <time>2015-09-11T06:40:54Z</time>
      </trkpt>
      <trkpt lat="42.26339" lon="8.89325">
        <ele>1447.88</ele>
        <time>2015-09-11T06:40:58Z</time>
      </trkpt>
      <trkpt lat="42.26336" lon="8.89313">
        <ele>1448.84</ele>
        <time>2015-09-11T06:41:07Z</time>
      </trkpt>
      <trkpt lat="42.26332" lon="8.89307">
        <ele>1450.29</ele>
        <time>2015-09-11T06:41:14Z</time>
      </trkpt>
      <trkpt lat="42.26329" lon="8.89296">
        <ele>1451.73</ele>
        <time>2015-09-11T06:41:26Z</time>
      </trkpt>
      <trkpt lat="42.26328" lon="8.89298">
        <ele>1451.73</ele>
        <time>2015-09-11T06:41:41Z</time>
      </trkpt>
      <trkpt lat="42.26327" lon="8.89301">
        <ele>1451.73</ele>
        <time>2015-09-11T06:41:43Z</time>
      </trkpt>
      <trkpt lat="42.26322" lon="8.89307">
        <ele>1452.21</ele>
        <time>2015-09-11T06:41:55Z</time>
      </trkpt>
      <trkpt lat="42.26321" lon="8.8931">
        <ele>1452.21</ele>
        <time>2015-09-11T06:42:01Z</time>
      </trkpt>
      <trkpt lat="42.26321" lon="8.89316">
        <ele>1453.17</ele>
        <time>2015-09-11T06:42:05Z</time>
      </trkpt>
      <trkpt lat="42.26319" lon="8.89335">
        <ele>1455.09</ele>
        <time>2015-09-11T06:42:19Z</time>
      </trkpt>
      <trkpt lat="42.26309" lon="8.89331">
        <ele>1457.02</ele>
        <time>2015-09-11T06:42:31Z</time>
      </trkpt>
      <trkpt lat="42.26307" lon="8.8933">
        <ele>1457.02</ele>
        <time>2015-09-11T06:42:33Z</time>
      </trkpt>
      <trkpt lat="42.26304" lon="8.89334">
        <ele>1458.46</ele>
        <time>2015-09-11T06:42:39Z</time>
      </trkpt>
      <trkpt lat="42.26304" lon="8.89347">
        <ele>1460.38</ele>
        <time>2015-09-11T06:42:52Z</time>
      </trkpt>
      <trkpt lat="42.26302" lon="8.89349">
        <ele>1460.86</ele>
        <time>2015-09-11T06:42:54Z</time>
      </trkpt>
      <trkpt lat="42.26299" lon="8.89356">
        <ele>1462.78</ele>
        <time>2015-09-11T06:43:04Z</time>
      </trkpt>
      <trkpt lat="42.26296" lon="8.89357">
        <ele>1463.74</ele>
        <time>2015-09-11T06:43:07Z</time>
      </trkpt>
      <trkpt lat="42.26294" lon="8.89354">
        <ele>1463.74</ele>
        <time>2015-09-11T06:43:10Z</time>
      </trkpt>
      <trkpt lat="42.26281" lon="8.89352">
        <ele>1465.19</ele>
        <time>2015-09-11T06:43:24Z</time>
      </trkpt>
      <trkpt lat="42.26279" lon="8.89354">
        <ele>1465.67</ele>
        <time>2015-09-11T06:43:27Z</time>
      </trkpt>
      <trkpt lat="42.26285" lon="8.89363">
        <ele>1467.11</ele>
        <time>2015-09-11T06:43:38Z</time>
      </trkpt>
      <trkpt lat="42.26285" lon="8.89365">
        <ele>1467.11</ele>
        <time>2015-09-11T06:43:39Z</time>
      </trkpt>
      <trkpt lat="42.26285" lon="8.89367">
        <ele>1467.59</ele>
        <time>2015-09-11T06:43:41Z</time>
      </trkpt>
      <trkpt lat="42.26286" lon="8.8937">
        <ele>1468.07</ele>
        <time>2015-09-11T06:43:43Z</time>
      </trkpt>
      <trkpt lat="42.26289" lon="8.89377">
        <ele>1469.03</ele>
        <time>2015-09-11T06:43:51Z</time>
      </trkpt>
      <trkpt lat="42.26289" lon="8.89389">
        <ele>1469.99</ele>
        <time>2015-09-11T06:44:02Z</time>
      </trkpt>
      <trkpt lat="42.2629" lon="8.89392">
        <ele>1470.47</ele>
        <time>2015-09-11T06:44:05Z</time>
      </trkpt>
      <trkpt lat="42.26288" lon="8.89403">
        <ele>1471.92</ele>
        <time>2015-09-11T06:44:15Z</time>
      </trkpt>
      <trkpt lat="42.26285" lon="8.89397">
        <ele>1472.88</ele>
        <time>2015-09-11T06:44:20Z</time>
      </trkpt>
      <trkpt lat="42.26277" lon="8.8939">
        <ele>1473.84</ele>
        <time>2015-09-11T06:44:30Z</time>
      </trkpt>
      <trkpt lat="42.26274" lon="8.89392">
        <ele>1474.32</ele>
        <time>2015-09-11T06:44:34Z</time>
      </trkpt>
      <trkpt lat="42.26274" lon="8.89403">
        <ele>1475.76</ele>
        <time>2015-09-11T06:44:44Z</time>
      </trkpt>
      <trkpt lat="42.26274" lon="8.89412">
        <ele>1476.24</ele>
        <time>2015-09-11T06:44:51Z</time>
      </trkpt>
      <trkpt lat="42.26277" lon="8.89421">
        <ele>1477.2</ele>
        <time>2015-09-11T06:45:00Z</time>
      </trkpt>
      <trkpt lat="42.26275" lon="8.89431">
        <ele>1478.16</ele>
        <time>2015-09-11T06:45:08Z</time>
      </trkpt>
      <trkpt lat="42.2627" lon="8.8944">
        <ele>1479.13</ele>
        <time>2015-09-11T06:45:17Z</time>
      </trkpt>
      <trkpt lat="42.26264" lon="8.89446">
        <ele>1480.57</ele>
        <time>2015-09-11T06:45:25Z</time>
      </trkpt>
      <trkpt lat="42.26256" lon="8.89451">
        <ele>1481.05</ele>
        <time>2015-09-11T06:45:32Z</time>
      </trkpt>
      <trkpt lat="42.26251" lon="8.8945">
        <ele>1481.53</ele>
        <time>2015-09-11T06:45:37Z</time>
      </trkpt>
      <trkpt lat="42.26243" lon="8.89441">
        <ele>1482.97</ele>
        <time>2015-09-11T06:45:51Z</time>
      </trkpt>
      <trkpt lat="42.26241" lon="8.89437">
        <ele>1482.97</ele>
        <time>2015-09-11T06:46:06Z</time>
      </trkpt>
      <trkpt lat="42.26242" lon="8.89437">
        <ele>1482.97</ele>
        <time>2015-09-11T06:46:24Z</time>
      </trkpt>
      <trkpt lat="42.26243" lon="8.89435">
        <ele>1482.97</ele>
        <time>2015-09-11T06:46:39Z</time>
      </trkpt>
      <trkpt lat="42.26243" lon="8.89439">
        <ele>1482.97</ele>
        <time>2015-09-11T06:46:56Z</time>
      </trkpt>
      <trkpt lat="42.26243" lon="8.8944">
        <ele>1483.45</ele>
        <time>2015-09-11T06:47:11Z</time>
      </trkpt>
      <trkpt lat="42.26243" lon="8.8944">
        <ele>1483.45</ele>
        <time>2015-09-11T06:47:28Z</time>
      </trkpt>
      <trkpt lat="42.26243" lon="8.8944">
        <ele>1483.45</ele>
        <time>2015-09-11T06:47:51Z</time>
      </trkpt>
      <trkpt lat="42.26242" lon="8.89442">
        <ele>1483.93</ele>
        <time>2015-09-11T06:48:09Z</time>
      </trkpt>
      <trkpt lat="42.26244" lon="8.89453">
        <ele>1483.93</ele>
        <time>2015-09-11T06:48:18Z</time>
      </trkpt>
      <trkpt lat="42.26241" lon="8.89454">
        <ele>1484.41</ele>
        <time>2015-09-11T06:48:22Z</time>
      </trkpt>
      <trkpt lat="42.26236" lon="8.89456">
        <ele>1485.37</ele>
        <time>2015-09-11T06:48:27Z</time>
      </trkpt>
      <trkpt lat="42.26233" lon="8.89456">
        <ele>1486.34</ele>
        <time>2015-09-11T06:48:31Z</time>
      </trkpt>
      <trkpt lat="42.2623" lon="8.89459">
        <ele>1487.3</ele>
        <time>2015-09-11T06:48:35Z</time>
      </trkpt>
      <trkpt lat="42.26227" lon="8.89472">
        <ele>1489.22</ele>
        <time>2015-09-11T06:48:44Z</time>
      </trkpt>
      <trkpt lat="42.26228" lon="8.89484">
        <ele>1489.7</ele>
        <time>2015-09-11T06:48:51Z</time>
      </trkpt>
      <trkpt lat="42.26228" lon="8.89489">
        <ele>1490.66</ele>
        <time>2015-09-11T06:48:55Z</time>
      </trkpt>
      <trkpt lat="42.26229" lon="8.89491">
        <ele>1490.66</ele>
        <time>2015-09-11T06:48:57Z</time>
      </trkpt>
      <trkpt lat="42.26226" lon="8.89499">
        <ele>1491.62</ele>
        <time>2015-09-11T06:49:03Z</time>
      </trkpt>
      <trkpt lat="42.26222" lon="8.89502">
        <ele>1493.06</ele>
        <time>2015-09-11T06:49:09Z</time>
      </trkpt>
      <trkpt lat="42.26211" lon="8.89491">
        <ele>1494.51</ele>
        <time>2015-09-11T06:49:22Z</time>
      </trkpt>
      <trkpt lat="42.26202" lon="8.89485">
        <ele>1496.43</ele>
        <time>2015-09-11T06:49:35Z</time>
      </trkpt>
      <trkpt lat="42.26202" lon="8.89485">
        <ele>1496.43</ele>
        <time>2015-09-11T06:49:36Z</time>
      </trkpt>
      <trkpt lat="42.262" lon="8.89492">
        <ele>1497.39</ele>
        <time>2015-09-11T06:49:41Z</time>
      </trkpt>
      <trkpt lat="42.262" lon="8.89495">
        <ele>1497.87</ele>
        <time>2015-09-11T06:49:43Z</time>
      </trkpt>
      <trkpt lat="42.262" lon="8.89496">
        <ele>1497.87</ele>
        <time>2015-09-11T06:49:45Z</time>
      </trkpt>
      <trkpt lat="42.26199" lon="8.89499">
        <ele>1498.35</ele>
        <time>2015-09-11T06:49:47Z</time>
      </trkpt>
      <trkpt lat="42.262" lon="8.89505">
        <ele>1498.83</ele>
        <time>2015-09-11T06:49:51Z</time>
      </trkpt>
      <trkpt lat="42.26199" lon="8.89511">
        <ele>1499.31</ele>
        <time>2015-09-11T06:49:56Z</time>
      </trkpt>
      <trkpt lat="42.26196" lon="8.89511">
        <ele>1500.27</ele>
        <time>2015-09-11T06:50:01Z</time>
      </trkpt>
      <trkpt lat="42.26188" lon="8.89503">
        <ele>1501.72</ele>
        <time>2015-09-11T06:50:12Z</time>
      </trkpt>
      <trkpt lat="42.26186" lon="8.89501">
        <ele>1502.2</ele>
        <time>2015-09-11T06:50:15Z</time>
      </trkpt>
      <trkpt lat="42.26178" lon="8.895">
        <ele>1504.12</ele>
        <time>2015-09-11T06:50:26Z</time>
      </trkpt>
      <trkpt lat="42.26174" lon="8.89504">
        <ele>1505.56</ele>
        <time>2015-09-11T06:50:33Z</time>
      </trkpt>
      <trkpt lat="42.26168" lon="8.8951">
        <ele>1507.48</ele>
        <time>2015-09-11T06:50:43Z</time>
      </trkpt>
      <trkpt lat="42.26167" lon="8.8951">
        <ele>1507.97</ele>
        <time>2015-09-11T06:50:46Z</time>
      </trkpt>
      <trkpt lat="42.26165" lon="8.89509">
        <ele>1508.45</ele>
        <time>2015-09-11T06:50:49Z</time>
      </trkpt>
      <trkpt lat="42.26159" lon="8.8952">
        <ele>1509.89</ele>
        <time>2015-09-11T06:50:58Z</time>
      </trkpt>
      <trkpt lat="42.26156" lon="8.89521">
        <ele>1510.37</ele>
        <time>2015-09-11T06:51:02Z</time>
      </trkpt>
      <trkpt lat="42.26154" lon="8.89522">
        <ele>1510.85</ele>
        <time>2015-09-11T06:51:04Z</time>
      </trkpt>
      <trkpt lat="42.26151" lon="8.89521">
        <ele>1511.33</ele>
        <time>2015-09-11T06:51:07Z</time>
      </trkpt>
      <trkpt lat="42.26149" lon="8.8952">
        <ele>1511.33</ele>
        <time>2015-09-11T06:51:10Z</time>
      </trkpt>
      <trkpt lat="42.26143" lon="8.89518">
        <ele>1512.29</ele>
        <time>2015-09-11T06:51:15Z</time>
      </trkpt>
      <trkpt lat="42.26135" lon="8.89518">
        <ele>1513.25</ele>
        <time>2015-09-11T06:51:23Z</time>
      </trkpt>
      <trkpt lat="42.26131" lon="8.8952">
        <ele>1513.73</ele>
        <time>2015-09-11T06:51:27Z</time>
      </trkpt>
      <trkpt lat="42.26127" lon="8.89519">
        <ele>1514.21</ele>
        <time>2015-09-11T06:51:31Z</time>
      </trkpt>
      <trkpt lat="42.26115" lon="8.8952">
        <ele>1516.62</ele>
        <time>2015-09-11T06:51:43Z</time>
      </trkpt>
      <trkpt lat="42.2611" lon="8.89519">
        <ele>1517.1</ele>
        <time>2015-09-11T06:51:48Z</time>
      </trkpt>
      <trkpt lat="42.26104" lon="8.89516">
        <ele>1518.06</ele>
        <time>2015-09-11T06:51:54Z</time>
      </trkpt>
      <trkpt lat="42.26101" lon="8.89518">
        <ele>1519.02</ele>
        <time>2015-09-11T06:51:59Z</time>
      </trkpt>
      <trkpt lat="42.26097" lon="8.89523">
        <ele>1521.9</ele>
        <time>2015-09-11T06:52:11Z</time>
      </trkpt>
      <trkpt lat="42.26099" lon="8.89532">
        <ele>1523.83</ele>
        <time>2015-09-11T06:52:21Z</time>
      </trkpt>
      <trkpt lat="42.26104" lon="8.8954">
        <ele>1524.79</ele>
        <time>2015-09-11T06:52:30Z</time>
      </trkpt>
      <trkpt lat="42.2611" lon="8.89556">
        <ele>1526.71</ele>
        <time>2015-09-11T06:52:44Z</time>
      </trkpt>
      <trkpt lat="42.2611" lon="8.89561">
        <ele>1527.67</ele>
        <time>2015-09-11T06:52:49Z</time>
      </trkpt>
      <trkpt lat="42.261" lon="8.89556">
        <ele>1529.59</ele>
        <time>2015-09-11T06:53:01Z</time>
      </trkpt>
      <trkpt lat="42.26097" lon="8.89553">
        <ele>1530.08</ele>
        <time>2015-09-11T06:53:05Z</time>
      </trkpt>
      <trkpt lat="42.26086" lon="8.89549">
        <ele>1531.52</ele>
        <time>2015-09-11T06:53:18Z</time>
      </trkpt>
      <trkpt lat="42.26085" lon="8.89548">
        <ele>1532.48</ele>
        <time>2015-09-11T06:53:19Z</time>
      </trkpt>
      <trkpt lat="42.26083" lon="8.89547">
        <ele>1532</ele>
        <time>2015-09-11T06:53:22Z</time>
      </trkpt>
      <trkpt lat="42.2608" lon="8.89546">
        <ele>1532.48</ele>
        <time>2015-09-11T06:53:25Z</time>
      </trkpt>
      <trkpt lat="42.26068" lon="8.89543">
        <ele>1533.92</ele>
        <time>2015-09-11T06:53:40Z</time>
      </trkpt>
      <trkpt lat="42.26069" lon="8.89546">
        <ele>1534.4</ele>
        <time>2015-09-11T06:53:43Z</time>
      </trkpt>
      <trkpt lat="42.26071" lon="8.89549">
        <ele>1534.88</ele>
        <time>2015-09-11T06:53:46Z</time>
      </trkpt>
      <trkpt lat="42.26073" lon="8.8955">
        <ele>1534.88</ele>
        <time>2015-09-11T06:53:48Z</time>
      </trkpt>
      <trkpt lat="42.26082" lon="8.89563">
        <ele>1536.32</ele>
        <time>2015-09-11T06:54:01Z</time>
      </trkpt>
      <trkpt lat="42.26084" lon="8.89565">
        <ele>1536.32</ele>
        <time>2015-09-11T06:54:03Z</time>
      </trkpt>
      <trkpt lat="42.2609" lon="8.89577">
        <ele>1537.77</ele>
        <time>2015-09-11T06:54:13Z</time>
      </trkpt>
      <trkpt lat="42.26079" lon="8.89572">
        <ele>1539.21</ele>
        <time>2015-09-11T06:54:25Z</time>
      </trkpt>
      <trkpt lat="42.26067" lon="8.89564">
        <ele>1540.65</ele>
        <time>2015-09-11T06:54:39Z</time>
      </trkpt>
      <trkpt lat="42.26066" lon="8.89564">
        <ele>1541.13</ele>
        <time>2015-09-11T06:54:40Z</time>
      </trkpt>
      <trkpt lat="42.26063" lon="8.89564">
        <ele>1541.61</ele>
        <time>2015-09-11T06:54:44Z</time>
      </trkpt>
      <trkpt lat="42.26065" lon="8.89566">
        <ele>1542.09</ele>
        <time>2015-09-11T06:54:46Z</time>
      </trkpt>
      <trkpt lat="42.26067" lon="8.89569">
        <ele>1542.09</ele>
        <time>2015-09-11T06:54:49Z</time>
      </trkpt>
      <trkpt lat="42.26067" lon="8.89574">
        <ele>1543.05</ele>
        <time>2015-09-11T06:54:53Z</time>
      </trkpt>
      <trkpt lat="42.26069" lon="8.89579">
        <ele>1544.01</ele>
        <time>2015-09-11T06:54:58Z</time>
      </trkpt>
      <trkpt lat="42.26068" lon="8.89584">
        <ele>1544.5</ele>
        <time>2015-09-11T06:55:01Z</time>
      </trkpt>
      <trkpt lat="42.26068" lon="8.89587">
        <ele>1544.98</ele>
        <time>2015-09-11T06:55:04Z</time>
      </trkpt>
      <trkpt lat="42.26064" lon="8.8959">
        <ele>1545.94</ele>
        <time>2015-09-11T06:55:10Z</time>
      </trkpt>
      <trkpt lat="42.26058" lon="8.89591">
        <ele>1546.9</ele>
        <time>2015-09-11T06:55:16Z</time>
      </trkpt>
      <trkpt lat="42.26054" lon="8.89592">
        <ele>1547.38</ele>
        <time>2015-09-11T06:55:20Z</time>
      </trkpt>
      <trkpt lat="42.26049" lon="8.89593">
        <ele>1548.34</ele>
        <time>2015-09-11T06:55:25Z</time>
      </trkpt>
      <trkpt lat="42.26045" lon="8.89592">
        <ele>1548.82</ele>
        <time>2015-09-11T06:55:29Z</time>
      </trkpt>
      <trkpt lat="42.2604" lon="8.89592">
        <ele>1549.3</ele>
        <time>2015-09-11T06:55:33Z</time>
      </trkpt>
      <trkpt lat="42.26036" lon="8.89593">
        <ele>1549.78</ele>
        <time>2015-09-11T06:55:37Z</time>
      </trkpt>
      <trkpt lat="42.2603" lon="8.89593">
        <ele>1550.26</ele>
        <time>2015-09-11T06:55:43Z</time>
      </trkpt>
      <trkpt lat="42.2603" lon="8.89595">
        <ele>1550.74</ele>
        <time>2015-09-11T06:55:45Z</time>
      </trkpt>
      <trkpt lat="42.26031" lon="8.89599">
        <ele>1551.22</ele>
        <time>2015-09-11T06:55:49Z</time>
      </trkpt>
      <trkpt lat="42.26032" lon="8.89604">
        <ele>1551.71</ele>
        <time>2015-09-11T06:55:53Z</time>
      </trkpt>
      <trkpt lat="42.26036" lon="8.89622">
        <ele>1553.63</ele>
        <time>2015-09-11T06:56:07Z</time>
      </trkpt>
      <trkpt lat="42.26038" lon="8.89637">
        <ele>1556.03</ele>
        <time>2015-09-11T06:56:19Z</time>
      </trkpt>
      <trkpt lat="42.26036" lon="8.89643">
        <ele>1556.99</ele>
        <time>2015-09-11T06:56:25Z</time>
      </trkpt>
      <trkpt lat="42.26033" lon="8.89644">
        <ele>1557.47</ele>
        <time>2015-09-11T06:56:29Z</time>
      </trkpt>
      <trkpt lat="42.26031" lon="8.89646">
        <ele>1557.95</ele>
        <time>2015-09-11T06:56:31Z</time>
      </trkpt>
      <trkpt lat="42.26028" lon="8.8965">
        <ele>1558.43</ele>
        <time>2015-09-11T06:56:35Z</time>
      </trkpt>
      <trkpt lat="42.2602" lon="8.89658">
        <ele>1559.4</ele>
        <time>2015-09-11T06:56:45Z</time>
      </trkpt>
      <trkpt lat="42.26018" lon="8.8966">
        <ele>1559.88</ele>
        <time>2015-09-11T06:56:47Z</time>
      </trkpt>
      <trkpt lat="42.26017" lon="8.8966">
        <ele>1559.88</ele>
        <time>2015-09-11T06:56:49Z</time>
      </trkpt>
      <trkpt lat="42.26015" lon="8.89663">
        <ele>1559.88</ele>
        <time>2015-09-11T06:56:51Z</time>
      </trkpt>
      <trkpt lat="42.26008" lon="8.89667">
        <ele>1561.32</ele>
        <time>2015-09-11T06:56:59Z</time>
      </trkpt>
      <trkpt lat="42.26005" lon="8.8967">
        <ele>1561.8</ele>
        <time>2015-09-11T06:57:03Z</time>
      </trkpt>
      <trkpt lat="42.25998" lon="8.89676">
        <ele>1562.28</ele>
        <time>2015-09-11T06:57:10Z</time>
      </trkpt>
      <trkpt lat="42.25995" lon="8.89678">
        <ele>1562.76</ele>
        <time>2015-09-11T06:57:14Z</time>
      </trkpt>
      <trkpt lat="42.25995" lon="8.89685">
        <ele>1564.2</ele>
        <time>2015-09-11T06:57:26Z</time>
      </trkpt>
      <trkpt lat="42.25995" lon="8.89686">
        <ele>1564.68</ele>
        <time>2015-09-11T06:57:27Z</time>
      </trkpt>
      <trkpt lat="42.26" lon="8.89687">
        <ele>1565.16</ele>
        <time>2015-09-11T06:57:32Z</time>
      </trkpt>
      <trkpt lat="42.26008" lon="8.89693">
        <ele>1566.61</ele>
        <time>2015-09-11T06:57:41Z</time>
      </trkpt>
      <trkpt lat="42.26009" lon="8.89698">
        <ele>1567.09</ele>
        <time>2015-09-11T06:57:45Z</time>
      </trkpt>
      <trkpt lat="42.2601" lon="8.89708">
        <ele>1569.49</ele>
        <time>2015-09-11T06:57:55Z</time>
      </trkpt>
      <trkpt lat="42.26007" lon="8.8972">
        <ele>1570.93</ele>
        <time>2015-09-11T06:58:07Z</time>
      </trkpt>
      <trkpt lat="42.25999" lon="8.89722">
        <ele>1573.33</ele>
        <time>2015-09-11T06:58:19Z</time>
      </trkpt>
      <trkpt lat="42.25999" lon="8.89724">
        <ele>1573.33</ele>
        <time>2015-09-11T06:58:21Z</time>
      </trkpt>
      <trkpt lat="42.25997" lon="8.89731">
        <ele>1574.3</ele>
        <time>2015-09-11T06:58:26Z</time>
      </trkpt>
      <trkpt lat="42.25996" lon="8.89734">
        <ele>1574.3</ele>
        <time>2015-09-11T06:58:28Z</time>
      </trkpt>
      <trkpt lat="42.2599" lon="8.89735">
        <ele>1575.26</ele>
        <time>2015-09-11T06:58:35Z</time>
      </trkpt>
      <trkpt lat="42.25986" lon="8.89734">
        <ele>1575.74</ele>
        <time>2015-09-11T06:58:39Z</time>
      </trkpt>
      <trkpt lat="42.25984" lon="8.89734">
        <ele>1576.22</ele>
        <time>2015-09-11T06:58:42Z</time>
      </trkpt>
      <trkpt lat="42.25981" lon="8.89736">
        <ele>1576.7</ele>
        <time>2015-09-11T06:58:46Z</time>
      </trkpt>
      <trkpt lat="42.25974" lon="8.89745">
        <ele>1578.14</ele>
        <time>2015-09-11T06:58:53Z</time>
      </trkpt>
      <trkpt lat="42.25968" lon="8.89754">
        <ele>1578.62</ele>
        <time>2015-09-11T06:59:03Z</time>
      </trkpt>
      <trkpt lat="42.25966" lon="8.89757">
        <ele>1579.1</ele>
        <time>2015-09-11T06:59:06Z</time>
      </trkpt>
      <trkpt lat="42.25963" lon="8.89761">
        <ele>1579.58</ele>
        <time>2015-09-11T06:59:10Z</time>
      </trkpt>
      <trkpt lat="42.25962" lon="8.89765">
        <ele>1580.54</ele>
        <time>2015-09-11T06:59:15Z</time>
      </trkpt>
      <trkpt lat="42.25968" lon="8.89771">
        <ele>1581.51</ele>
        <time>2015-09-11T06:59:24Z</time>
      </trkpt>
      <trkpt lat="42.25967" lon="8.89779">
        <ele>1581.99</ele>
        <time>2015-09-11T06:59:30Z</time>
      </trkpt>
      <trkpt lat="42.25965" lon="8.89789">
        <ele>1583.43</ele>
        <time>2015-09-11T06:59:40Z</time>
      </trkpt>
      <trkpt lat="42.25964" lon="8.89792">
        <ele>1583.91</ele>
        <time>2015-09-11T06:59:42Z</time>
      </trkpt>
      <trkpt lat="42.25957" lon="8.89801">
        <ele>1584.87</ele>
        <time>2015-09-11T06:59:52Z</time>
      </trkpt>
      <trkpt lat="42.2595" lon="8.8981">
        <ele>1586.31</ele>
        <time>2015-09-11T07:00:02Z</time>
      </trkpt>
      <trkpt lat="42.25949" lon="8.89812">
        <ele>1586.79</ele>
        <time>2015-09-11T07:00:05Z</time>
      </trkpt>
      <trkpt lat="42.25945" lon="8.89812">
        <ele>1586.79</ele>
        <time>2015-09-11T07:00:09Z</time>
      </trkpt>
      <trkpt lat="42.25938" lon="8.89817">
        <ele>1587.75</ele>
        <time>2015-09-11T07:00:18Z</time>
      </trkpt>
      <trkpt lat="42.25929" lon="8.89823">
        <ele>1589.2</ele>
        <time>2015-09-11T07:00:29Z</time>
      </trkpt>
      <trkpt lat="42.25928" lon="8.89823">
        <ele>1589.2</ele>
        <time>2015-09-11T07:00:39Z</time>
      </trkpt>
      <trkpt lat="42.2593" lon="8.89825">
        <ele>1589.68</ele>
        <time>2015-09-11T07:00:53Z</time>
      </trkpt>
      <trkpt lat="42.25932" lon="8.89837">
        <ele>1591.12</ele>
        <time>2015-09-11T07:01:06Z</time>
      </trkpt>
      <trkpt lat="42.25935" lon="8.89844">
        <ele>1592.08</ele>
        <time>2015-09-11T07:01:14Z</time>
      </trkpt>
      <trkpt lat="42.25934" lon="8.89848">
        <ele>1593.04</ele>
        <time>2015-09-11T07:01:27Z</time>
      </trkpt>
      <trkpt lat="42.25934" lon="8.89853">
        <ele>1593.04</ele>
        <time>2015-09-11T07:01:39Z</time>
      </trkpt>
      <trkpt lat="42.25934" lon="8.89855">
        <ele>1593.04</ele>
        <time>2015-09-11T07:01:41Z</time>
      </trkpt>
      <trkpt lat="42.2593" lon="8.89866">
        <ele>1594.48</ele>
        <time>2015-09-11T07:01:52Z</time>
      </trkpt>
      <trkpt lat="42.25927" lon="8.89871">
        <ele>1594.96</ele>
        <time>2015-09-11T07:01:58Z</time>
      </trkpt>
      <trkpt lat="42.25924" lon="8.89874">
        <ele>1595.45</ele>
        <time>2015-09-11T07:02:02Z</time>
      </trkpt>
      <trkpt lat="42.2592" lon="8.89893">
        <ele>1596.41</ele>
        <time>2015-09-11T07:02:15Z</time>
      </trkpt>
      <trkpt lat="42.25917" lon="8.899">
        <ele>1596.89</ele>
        <time>2015-09-11T07:02:21Z</time>
      </trkpt>
      <trkpt lat="42.25915" lon="8.89907">
        <ele>1597.85</ele>
        <time>2015-09-11T07:02:27Z</time>
      </trkpt>
      <trkpt lat="42.2591" lon="8.89918">
        <ele>1598.81</ele>
        <time>2015-09-11T07:02:36Z</time>
      </trkpt>
      <trkpt lat="42.25907" lon="8.89924">
        <ele>1599.29</ele>
        <time>2015-09-11T07:02:42Z</time>
      </trkpt>
      <trkpt lat="42.25904" lon="8.89926">
        <ele>1599.77</ele>
        <time>2015-09-11T07:02:46Z</time>
      </trkpt>
      <trkpt lat="42.25903" lon="8.89926">
        <ele>1599.77</ele>
        <time>2015-09-11T07:02:48Z</time>
      </trkpt>
      <trkpt lat="42.25897" lon="8.89927">
        <ele>1601.21</ele>
        <time>2015-09-11T07:02:56Z</time>
      </trkpt>
      <trkpt lat="42.25889" lon="8.8994">
        <ele>1602.66</ele>
        <time>2015-09-11T07:03:06Z</time>
      </trkpt>
      <trkpt lat="42.25886" lon="8.89949">
        <ele>1604.1</ele>
        <time>2015-09-11T07:03:14Z</time>
      </trkpt>
      <trkpt lat="42.25884" lon="8.89957">
        <ele>1605.06</ele>
        <time>2015-09-11T07:03:21Z</time>
      </trkpt>
      <trkpt lat="42.25884" lon="8.89964">
        <ele>1606.02</ele>
        <time>2015-09-11T07:03:27Z</time>
      </trkpt>
      <trkpt lat="42.25882" lon="8.89974">
        <ele>1606.98</ele>
        <time>2015-09-11T07:03:35Z</time>
      </trkpt>
      <trkpt lat="42.25876" lon="8.89991">
        <ele>1608.9</ele>
        <time>2015-09-11T07:03:48Z</time>
      </trkpt>
      <trkpt lat="42.25874" lon="8.89996">
        <ele>1609.86</ele>
        <time>2015-09-11T07:03:52Z</time>
      </trkpt>
      <trkpt lat="42.25873" lon="8.89998">
        <ele>1610.35</ele>
        <time>2015-09-11T07:03:55Z</time>
      </trkpt>
      <trkpt lat="42.25869" lon="8.90009">
        <ele>1611.79</ele>
        <time>2015-09-11T07:04:04Z</time>
      </trkpt>
      <trkpt lat="42.25867" lon="8.90011">
        <ele>1612.27</ele>
        <time>2015-09-11T07:04:06Z</time>
      </trkpt>
      <trkpt lat="42.25865" lon="8.90015">
        <ele>1612.75</ele>
        <time>2015-09-11T07:04:09Z</time>
      </trkpt>
      <trkpt lat="42.25864" lon="8.90019">
        <ele>1613.71</ele>
        <time>2015-09-11T07:04:12Z</time>
      </trkpt>
      <trkpt lat="42.25864" lon="8.90022">
        <ele>1614.19</ele>
        <time>2015-09-11T07:04:16Z</time>
      </trkpt>
      <trkpt lat="42.25858" lon="8.90037">
        <ele>1616.11</ele>
        <time>2015-09-11T07:04:30Z</time>
      </trkpt>
      <trkpt lat="42.25855" lon="8.90045">
        <ele>1616.59</ele>
        <time>2015-09-11T07:04:34Z</time>
      </trkpt>
      <trkpt lat="42.25851" lon="8.90055">
        <ele>1618.04</ele>
        <time>2015-09-11T07:04:46Z</time>
      </trkpt>
      <trkpt lat="42.25849" lon="8.9006">
        <ele>1619</ele>
        <time>2015-09-11T07:04:50Z</time>
      </trkpt>
      <trkpt lat="42.25847" lon="8.90064">
        <ele>1619.48</ele>
        <time>2015-09-11T07:04:53Z</time>
      </trkpt>
      <trkpt lat="42.25847" lon="8.90075">
        <ele>1620.44</ele>
        <time>2015-09-11T07:05:01Z</time>
      </trkpt>
      <trkpt lat="42.25841" lon="8.9009">
        <ele>1621.88</ele>
        <time>2015-09-11T07:05:14Z</time>
      </trkpt>
      <trkpt lat="42.25838" lon="8.9009">
        <ele>1621.88</ele>
        <time>2015-09-11T07:05:17Z</time>
      </trkpt>
      <trkpt lat="42.25837" lon="8.90091">
        <ele>1622.36</ele>
        <time>2015-09-11T07:05:18Z</time>
      </trkpt>
      <trkpt lat="42.25835" lon="8.90091">
        <ele>1622.36</ele>
        <time>2015-09-11T07:05:20Z</time>
      </trkpt>
      <trkpt lat="42.25833" lon="8.90091">
        <ele>1622.84</ele>
        <time>2015-09-11T07:05:23Z</time>
      </trkpt>
      <trkpt lat="42.25833" lon="8.90093">
        <ele>1623.32</ele>
        <time>2015-09-11T07:05:24Z</time>
      </trkpt>
      <trkpt lat="42.25829" lon="8.9011">
        <ele>1624.28</ele>
        <time>2015-09-11T07:05:33Z</time>
      </trkpt>
      <trkpt lat="42.25826" lon="8.90123">
        <ele>1626.21</ele>
        <time>2015-09-11T07:05:45Z</time>
      </trkpt>
      <trkpt lat="42.25827" lon="8.90125">
        <ele>1626.21</ele>
        <time>2015-09-11T07:06:01Z</time>
      </trkpt>
      <trkpt lat="42.25825" lon="8.90128">
        <ele>1627.17</ele>
        <time>2015-09-11T07:06:06Z</time>
      </trkpt>
      <trkpt lat="42.25822" lon="8.90133">
        <ele>1627.65</ele>
        <time>2015-09-11T07:06:11Z</time>
      </trkpt>
      <trkpt lat="42.25817" lon="8.90142">
        <ele>1629.09</ele>
        <time>2015-09-11T07:06:21Z</time>
      </trkpt>
      <trkpt lat="42.25817" lon="8.90149">
        <ele>1629.57</ele>
        <time>2015-09-11T07:06:26Z</time>
      </trkpt>
      <trkpt lat="42.25814" lon="8.90161">
        <ele>1630.05</ele>
        <time>2015-09-11T07:06:34Z</time>
      </trkpt>
      <trkpt lat="42.25813" lon="8.90171">
        <ele>1631.01</ele>
        <time>2015-09-11T07:06:41Z</time>
      </trkpt>
      <trkpt lat="42.25813" lon="8.90179">
        <ele>1631.49</ele>
        <time>2015-09-11T07:06:46Z</time>
      </trkpt>
      <trkpt lat="42.25811" lon="8.90191">
        <ele>1632.94</ele>
        <time>2015-09-11T07:06:57Z</time>
      </trkpt>
      <trkpt lat="42.25811" lon="8.90195">
        <ele>1633.42</ele>
        <time>2015-09-11T07:07:00Z</time>
      </trkpt>
      <trkpt lat="42.25808" lon="8.90205">
        <ele>1634.38</ele>
        <time>2015-09-11T07:07:09Z</time>
      </trkpt>
      <trkpt lat="42.25807" lon="8.90214">
        <ele>1634.86</ele>
        <time>2015-09-11T07:07:16Z</time>
      </trkpt>
      <trkpt lat="42.25803" lon="8.90223">
        <ele>1635.82</ele>
        <time>2015-09-11T07:07:22Z</time>
      </trkpt>
      <trkpt lat="42.25796" lon="8.90233">
        <ele>1636.78</ele>
        <time>2015-09-11T07:07:33Z</time>
      </trkpt>
      <trkpt lat="42.25795" lon="8.90234">
        <ele>1636.78</ele>
        <time>2015-09-11T07:07:35Z</time>
      </trkpt>
      <trkpt lat="42.25789" lon="8.90226">
        <ele>1637.26</ele>
        <time>2015-09-11T07:07:40Z</time>
      </trkpt>
      <trkpt lat="42.25786" lon="8.9023">
        <ele>1637.26</ele>
        <time>2015-09-11T07:07:43Z</time>
      </trkpt>
      <trkpt lat="42.25782" lon="8.90239">
        <ele>1638.22</ele>
        <time>2015-09-11T07:07:51Z</time>
      </trkpt>
      <trkpt lat="42.25774" lon="8.90245">
        <ele>1639.19</ele>
        <time>2015-09-11T07:07:59Z</time>
      </trkpt>
      <trkpt lat="42.25767" lon="8.90255">
        <ele>1640.15</ele>
        <time>2015-09-11T07:08:07Z</time>
      </trkpt>
      <trkpt lat="42.25763" lon="8.90255">
        <ele>1640.15</ele>
        <time>2015-09-11T07:08:11Z</time>
      </trkpt>
      <trkpt lat="42.25755" lon="8.90259">
        <ele>1640.63</ele>
        <time>2015-09-11T07:08:19Z</time>
      </trkpt>
      <trkpt lat="42.25753" lon="8.90261">
        <ele>1640.63</ele>
        <time>2015-09-11T07:08:21Z</time>
      </trkpt>
      <trkpt lat="42.2575" lon="8.90263">
        <ele>1641.11</ele>
        <time>2015-09-11T07:08:24Z</time>
      </trkpt>
      <trkpt lat="42.25747" lon="8.90265">
        <ele>1641.59</ele>
        <time>2015-09-11T07:08:28Z</time>
      </trkpt>
      <trkpt lat="42.25746" lon="8.90264">
        <ele>1641.59</ele>
        <time>2015-09-11T07:08:29Z</time>
      </trkpt>
      <trkpt lat="42.25743" lon="8.90269">
        <ele>1641.59</ele>
        <time>2015-09-11T07:08:33Z</time>
      </trkpt>
      <trkpt lat="42.2574" lon="8.90273">
        <ele>1641.59</ele>
        <time>2015-09-11T07:08:38Z</time>
      </trkpt>
      <trkpt lat="42.25738" lon="8.90276">
        <ele>1642.07</ele>
        <time>2015-09-11T07:08:41Z</time>
      </trkpt>
      <trkpt lat="42.25736" lon="8.90275">
        <ele>1642.55</ele>
        <time>2015-09-11T07:08:43Z</time>
      </trkpt>
      <trkpt lat="42.25734" lon="8.9028">
        <ele>1642.55</ele>
        <time>2015-09-11T07:08:46Z</time>
      </trkpt>
      <trkpt lat="42.25728" lon="8.90286">
        <ele>1643.03</ele>
        <time>2015-09-11T07:08:54Z</time>
      </trkpt>
      <trkpt lat="42.25721" lon="8.90289">
        <ele>1644.47</ele>
        <time>2015-09-11T07:09:03Z</time>
      </trkpt>
      <trkpt lat="42.25718" lon="8.9029">
        <ele>1644.95</ele>
        <time>2015-09-11T07:09:07Z</time>
      </trkpt>
      <trkpt lat="42.25717" lon="8.90293">
        <ele>1645.43</ele>
        <time>2015-09-11T07:09:10Z</time>
      </trkpt>
      <trkpt lat="42.25714" lon="8.90299">
        <ele>1645.43</ele>
        <time>2015-09-11T07:09:15Z</time>
      </trkpt>
      <trkpt lat="42.25711" lon="8.90306">
        <ele>1645.91</ele>
        <time>2015-09-11T07:09:20Z</time>
      </trkpt>
      <trkpt lat="42.2571" lon="8.9031">
        <ele>1644.95</ele>
        <time>2015-09-11T07:09:23Z</time>
      </trkpt>
      <trkpt lat="42.25705" lon="8.90317">
        <ele>1645.43</ele>
        <time>2015-09-11T07:09:31Z</time>
      </trkpt>
      <trkpt lat="42.25693" lon="8.90318">
        <ele>1645.43</ele>
        <time>2015-09-11T07:09:42Z</time>
      </trkpt>
      <trkpt lat="42.25688" lon="8.90322">
        <ele>1645.91</ele>
        <time>2015-09-11T07:09:47Z</time>
      </trkpt>
      <trkpt lat="42.25685" lon="8.90322">
        <ele>1645.91</ele>
        <time>2015-09-11T07:09:49Z</time>
      </trkpt>
      <trkpt lat="42.25682" lon="8.90325">
        <ele>1645.91</ele>
        <time>2015-09-11T07:09:52Z</time>
      </trkpt>
      <trkpt lat="42.25681" lon="8.90324">
        <ele>1645.91</ele>
        <time>2015-09-11T07:09:53Z</time>
      </trkpt>
      <trkpt lat="42.25675" lon="8.90327">
        <ele>1646.4</ele>
        <time>2015-09-11T07:10:00Z</time>
      </trkpt>
      <trkpt lat="42.25672" lon="8.90329">
        <ele>1646.88</ele>
        <time>2015-09-11T07:10:03Z</time>
      </trkpt>
      <trkpt lat="42.25669" lon="8.90338">
        <ele>1647.36</ele>
        <time>2015-09-11T07:10:08Z</time>
      </trkpt>
      <trkpt lat="42.25667" lon="8.90341">
        <ele>1647.84</ele>
        <time>2015-09-11T07:10:11Z</time>
      </trkpt>
      <trkpt lat="42.25664" lon="8.90345">
        <ele>1648.32</ele>
        <time>2015-09-11T07:10:14Z</time>
      </trkpt>
      <trkpt lat="42.25659" lon="8.90355">
        <ele>1649.28</ele>
        <time>2015-09-11T07:10:24Z</time>
      </trkpt>
      <trkpt lat="42.25653" lon="8.90361">
        <ele>1650.24</ele>
        <time>2015-09-11T07:10:33Z</time>
      </trkpt>
      <trkpt lat="42.25652" lon="8.90362">
        <ele>1650.24</ele>
        <time>2015-09-11T07:10:34Z</time>
      </trkpt>
      <trkpt lat="42.25649" lon="8.90367">
        <ele>1650.72</ele>
        <time>2015-09-11T07:10:38Z</time>
      </trkpt>
      <trkpt lat="42.25648" lon="8.90369">
        <ele>1651.2</ele>
        <time>2015-09-11T07:10:41Z</time>
      </trkpt>
      <trkpt lat="42.25643" lon="8.90373">
        <ele>1652.16</ele>
        <time>2015-09-11T07:10:50Z</time>
      </trkpt>
      <trkpt lat="42.25641" lon="8.90374">
        <ele>1652.64</ele>
        <time>2015-09-11T07:10:53Z</time>
      </trkpt>
      <trkpt lat="42.25638" lon="8.90376">
        <ele>1653.12</ele>
        <time>2015-09-11T07:10:56Z</time>
      </trkpt>
      <trkpt lat="42.25636" lon="8.90381">
        <ele>1653.6</ele>
        <time>2015-09-11T07:11:01Z</time>
      </trkpt>
      <trkpt lat="42.25633" lon="8.90384">
        <ele>1654.57</ele>
        <time>2015-09-11T07:11:07Z</time>
      </trkpt>
      <trkpt lat="42.2563" lon="8.90387">
        <ele>1655.05</ele>
        <time>2015-09-11T07:11:10Z</time>
      </trkpt>
      <trkpt lat="42.25624" lon="8.90396">
        <ele>1656.49</ele>
        <time>2015-09-11T07:11:21Z</time>
      </trkpt>
      <trkpt lat="42.25623" lon="8.90396">
        <ele>1656.49</ele>
        <time>2015-09-11T07:11:22Z</time>
      </trkpt>
      <trkpt lat="42.2562" lon="8.90401">
        <ele>1657.45</ele>
        <time>2015-09-11T07:11:27Z</time>
      </trkpt>
      <trkpt lat="42.25619" lon="8.90402">
        <ele>1657.45</ele>
        <time>2015-09-11T07:11:28Z</time>
      </trkpt>
      <trkpt lat="42.25615" lon="8.90405">
        <ele>1657.93</ele>
        <time>2015-09-11T07:11:34Z</time>
      </trkpt>
      <trkpt lat="42.2561" lon="8.90409">
        <ele>1658.89</ele>
        <time>2015-09-11T07:11:41Z</time>
      </trkpt>
      <trkpt lat="42.25609" lon="8.90417">
        <ele>1658.89</ele>
        <time>2015-09-11T07:11:47Z</time>
      </trkpt>
      <trkpt lat="42.25608" lon="8.9042">
        <ele>1658.89</ele>
        <time>2015-09-11T07:11:49Z</time>
      </trkpt>
      <trkpt lat="42.25606" lon="8.90428">
        <ele>1659.37</ele>
        <time>2015-09-11T07:11:56Z</time>
      </trkpt>
      <trkpt lat="42.25608" lon="8.90439">
        <ele>1660.33</ele>
        <time>2015-09-11T07:12:08Z</time>
      </trkpt>
      <trkpt lat="42.2561" lon="8.90444">
        <ele>1659.85</ele>
        <time>2015-09-11T07:12:16Z</time>
      </trkpt>
      <trkpt lat="42.25611" lon="8.90449">
        <ele>1659.37</ele>
        <time>2015-09-11T07:12:20Z</time>
      </trkpt>
      <trkpt lat="42.25611" lon="8.90453">
        <ele>1659.37</ele>
        <time>2015-09-11T07:12:23Z</time>
      </trkpt>
      <trkpt lat="42.2561" lon="8.90458">
        <ele>1659.37</ele>
        <time>2015-09-11T07:12:26Z</time>
      </trkpt>
      <trkpt lat="42.25609" lon="8.9046">
        <ele>1659.37</ele>
        <time>2015-09-11T07:12:28Z</time>
      </trkpt>
      <trkpt lat="42.2561" lon="8.90464">
        <ele>1659.37</ele>
        <time>2015-09-11T07:12:31Z</time>
      </trkpt>
      <trkpt lat="42.25612" lon="8.90469">
        <ele>1659.37</ele>
        <time>2015-09-11T07:12:34Z</time>
      </trkpt>
      <trkpt lat="42.25612" lon="8.90478">
        <ele>1659.85</ele>
        <time>2015-09-11T07:12:41Z</time>
      </trkpt>
      <trkpt lat="42.25607" lon="8.90482">
        <ele>1660.33</ele>
        <time>2015-09-11T07:12:45Z</time>
      </trkpt>
      <trkpt lat="42.25602" lon="8.90491">
        <ele>1661.3</ele>
        <time>2015-09-11T07:12:52Z</time>
      </trkpt>
      <trkpt lat="42.25599" lon="8.90496">
        <ele>1661.78</ele>
        <time>2015-09-11T07:12:58Z</time>
      </trkpt>
      <trkpt lat="42.25597" lon="8.90499">
        <ele>1662.26</ele>
        <time>2015-09-11T07:13:01Z</time>
      </trkpt>
      <trkpt lat="42.25596" lon="8.90511">
        <ele>1663.22</ele>
        <time>2015-09-11T07:13:11Z</time>
      </trkpt>
      <trkpt lat="42.25596" lon="8.90514">
        <ele>1663.7</ele>
        <time>2015-09-11T07:13:14Z</time>
      </trkpt>
      <trkpt lat="42.25599" lon="8.90525">
        <ele>1664.66</ele>
        <time>2015-09-11T07:13:22Z</time>
      </trkpt>
      <trkpt lat="42.256" lon="8.90529">
        <ele>1664.66</ele>
        <time>2015-09-11T07:13:26Z</time>
      </trkpt>
      <trkpt lat="42.25599" lon="8.90532">
        <ele>1665.14</ele>
        <time>2015-09-11T07:13:29Z</time>
      </trkpt>
      <trkpt lat="42.25601" lon="8.90546">
        <ele>1666.58</ele>
        <time>2015-09-11T07:13:42Z</time>
      </trkpt>
      <trkpt lat="42.25601" lon="8.90557">
        <ele>1667.54</ele>
        <time>2015-09-11T07:13:51Z</time>
      </trkpt>
      <trkpt lat="42.25601" lon="8.90569">
        <ele>1668.51</ele>
        <time>2015-09-11T07:14:01Z</time>
      </trkpt>
      <trkpt lat="42.25602" lon="8.90575">
        <ele>1669.47</ele>
        <time>2015-09-11T07:14:06Z</time>
      </trkpt>
      <trkpt lat="42.25599" lon="8.9059">
        <ele>1671.39</ele>
        <time>2015-09-11T07:14:21Z</time>
      </trkpt>
      <trkpt lat="42.25598" lon="8.90591">
        <ele>1671.87</ele>
        <time>2015-09-11T07:14:24Z</time>
      </trkpt>
      <trkpt lat="42.25598" lon="8.90595">
        <ele>1672.35</ele>
        <time>2015-09-11T07:14:27Z</time>
      </trkpt>
      <trkpt lat="42.25599" lon="8.90608">
        <ele>1672.83</ele>
        <time>2015-09-11T07:14:35Z</time>
      </trkpt>
      <trkpt lat="42.25598" lon="8.90615">
        <ele>1672.83</ele>
        <time>2015-09-11T07:14:40Z</time>
      </trkpt>
      <trkpt lat="42.25599" lon="8.90618">
        <ele>1673.31</ele>
        <time>2015-09-11T07:14:43Z</time>
      </trkpt>
      <trkpt lat="42.25599" lon="8.90624">
        <ele>1673.31</ele>
        <time>2015-09-11T07:14:47Z</time>
      </trkpt>
      <trkpt lat="42.25597" lon="8.90633">
        <ele>1674.27</ele>
        <time>2015-09-11T07:14:54Z</time>
      </trkpt>
      <trkpt lat="42.25594" lon="8.90645">
        <ele>1675.72</ele>
        <time>2015-09-11T07:15:05Z</time>
      </trkpt>
      <trkpt lat="42.25598" lon="8.90652">
        <ele>1676.68</ele>
        <time>2015-09-11T07:15:11Z</time>
      </trkpt>
      <trkpt lat="42.25596" lon="8.90653">
        <ele>1678.6</ele>
        <time>2015-09-11T07:15:21Z</time>
      </trkpt>
      <trkpt lat="42.25591" lon="8.90646">
        <ele>1678.6</ele>
        <time>2015-09-11T07:15:29Z</time>
      </trkpt>
      <trkpt lat="42.25589" lon="8.90643">
        <ele>1679.08</ele>
        <time>2015-09-11T07:15:32Z</time>
      </trkpt>
      <trkpt lat="42.25586" lon="8.90634">
        <ele>1680.04</ele>
        <time>2015-09-11T07:15:39Z</time>
      </trkpt>
      <trkpt lat="42.25579" lon="8.90621">
        <ele>1681</ele>
        <time>2015-09-11T07:15:49Z</time>
      </trkpt>
      <trkpt lat="42.25573" lon="8.90602">
        <ele>1681.96</ele>
        <time>2015-09-11T07:16:04Z</time>
      </trkpt>
      <trkpt lat="42.25571" lon="8.90597">
        <ele>1682.93</ele>
        <time>2015-09-11T07:16:10Z</time>
      </trkpt>
      <trkpt lat="42.25567" lon="8.90592">
        <ele>1684.37</ele>
        <time>2015-09-11T07:16:20Z</time>
      </trkpt>
      <trkpt lat="42.25564" lon="8.90598">
        <ele>1686.77</ele>
        <time>2015-09-11T07:16:32Z</time>
      </trkpt>
      <trkpt lat="42.25562" lon="8.90606">
        <ele>1687.73</ele>
        <time>2015-09-11T07:16:40Z</time>
      </trkpt>
      <trkpt lat="42.25562" lon="8.90614">
        <ele>1688.69</ele>
        <time>2015-09-11T07:16:47Z</time>
      </trkpt>
      <trkpt lat="42.25564" lon="8.90616">
        <ele>1689.17</ele>
        <time>2015-09-11T07:16:49Z</time>
      </trkpt>
      <trkpt lat="42.25563" lon="8.9062">
        <ele>1689.65</ele>
        <time>2015-09-11T07:16:53Z</time>
      </trkpt>
      <trkpt lat="42.2556" lon="8.90632">
        <ele>1690.62</ele>
        <time>2015-09-11T07:17:04Z</time>
      </trkpt>
      <trkpt lat="42.25561" lon="8.90634">
        <ele>1691.1</ele>
        <time>2015-09-11T07:17:06Z</time>
      </trkpt>
      <trkpt lat="42.25559" lon="8.90639">
        <ele>1692.06</ele>
        <time>2015-09-11T07:17:12Z</time>
      </trkpt>
      <trkpt lat="42.2556" lon="8.90642">
        <ele>1693.02</ele>
        <time>2015-09-11T07:17:14Z</time>
      </trkpt>
      <trkpt lat="42.25559" lon="8.90645">
        <ele>1692.54</ele>
        <time>2015-09-11T07:17:17Z</time>
      </trkpt>
      <trkpt lat="42.25564" lon="8.90658">
        <ele>1693.5</ele>
        <time>2015-09-11T07:17:28Z</time>
      </trkpt>
      <trkpt lat="42.25568" lon="8.90666">
        <ele>1693.98</ele>
        <time>2015-09-11T07:17:35Z</time>
      </trkpt>
      <trkpt lat="42.25568" lon="8.90669">
        <ele>1694.46</ele>
        <time>2015-09-11T07:17:38Z</time>
      </trkpt>
      <trkpt lat="42.25577" lon="8.90683">
        <ele>1695.9</ele>
        <time>2015-09-11T07:17:52Z</time>
      </trkpt>
      <trkpt lat="42.25584" lon="8.90694">
        <ele>1696.86</ele>
        <time>2015-09-11T07:18:04Z</time>
      </trkpt>
      <trkpt lat="42.25585" lon="8.90696">
        <ele>1697.34</ele>
        <time>2015-09-11T07:18:06Z</time>
      </trkpt>
      <trkpt lat="42.25588" lon="8.90703">
        <ele>1698.31</ele>
        <time>2015-09-11T07:18:14Z</time>
      </trkpt>
      <trkpt lat="42.25593" lon="8.90715">
        <ele>1700.23</ele>
        <time>2015-09-11T07:18:26Z</time>
      </trkpt>
      <trkpt lat="42.25594" lon="8.90718">
        <ele>1700.71</ele>
        <time>2015-09-11T07:18:29Z</time>
      </trkpt>
      <trkpt lat="42.25592" lon="8.90727">
        <ele>1702.15</ele>
        <time>2015-09-11T07:18:40Z</time>
      </trkpt>
      <trkpt lat="42.2559" lon="8.90737">
        <ele>1703.59</ele>
        <time>2015-09-11T07:18:50Z</time>
      </trkpt>
      <trkpt lat="42.25586" lon="8.90735">
        <ele>1705.04</ele>
        <time>2015-09-11T07:18:58Z</time>
      </trkpt>
      <trkpt lat="42.25583" lon="8.90728">
        <ele>1706</ele>
        <time>2015-09-11T07:19:07Z</time>
      </trkpt>
      <trkpt lat="42.2558" lon="8.90725">
        <ele>1706</ele>
        <time>2015-09-11T07:19:11Z</time>
      </trkpt>
      <trkpt lat="42.25575" lon="8.90721">
        <ele>1706.96</ele>
        <time>2015-09-11T07:19:17Z</time>
      </trkpt>
      <trkpt lat="42.25571" lon="8.90718">
        <ele>1706.96</ele>
        <time>2015-09-11T07:19:21Z</time>
      </trkpt>
      <trkpt lat="42.25565" lon="8.90715">
        <ele>1707.92</ele>
        <time>2015-09-11T07:19:28Z</time>
      </trkpt>
      <trkpt lat="42.25557" lon="8.90709">
        <ele>1709.36</ele>
        <time>2015-09-11T07:19:40Z</time>
      </trkpt>
      <trkpt lat="42.25555" lon="8.90707">
        <ele>1709.84</ele>
        <time>2015-09-11T07:19:43Z</time>
      </trkpt>
      <trkpt lat="42.25542" lon="8.90699">
        <ele>1710.8</ele>
        <time>2015-09-11T07:19:57Z</time>
      </trkpt>
      <trkpt lat="42.25538" lon="8.90694">
        <ele>1711.76</ele>
        <time>2015-09-11T07:20:05Z</time>
      </trkpt>
      <trkpt lat="42.25535" lon="8.90687">
        <ele>1711.28</ele>
        <time>2015-09-11T07:20:12Z</time>
      </trkpt>
      <trkpt lat="42.25526" lon="8.90678">
        <ele>1712.25</ele>
        <time>2015-09-11T07:20:24Z</time>
      </trkpt>
      <trkpt lat="42.25518" lon="8.90675">
        <ele>1713.69</ele>
        <time>2015-09-11T07:20:34Z</time>
      </trkpt>
      <trkpt lat="42.25516" lon="8.90673">
        <ele>1714.17</ele>
        <time>2015-09-11T07:20:37Z</time>
      </trkpt>
      <trkpt lat="42.25508" lon="8.90667">
        <ele>1716.09</ele>
        <time>2015-09-11T07:20:50Z</time>
      </trkpt>
      <trkpt lat="42.25506" lon="8.90668">
        <ele>1718.49</ele>
        <time>2015-09-11T07:21:03Z</time>
      </trkpt>
      <trkpt lat="42.25507" lon="8.90669">
        <ele>1718.49</ele>
        <time>2015-09-11T07:21:04Z</time>
      </trkpt>
      <trkpt lat="42.25513" lon="8.9068">
        <ele>1720.42</ele>
        <time>2015-09-11T07:21:16Z</time>
      </trkpt>
      <trkpt lat="42.25513" lon="8.90681">
        <ele>1720.42</ele>
        <time>2015-09-11T07:21:17Z</time>
      </trkpt>
      <trkpt lat="42.25516" lon="8.90684">
        <ele>1720.9</ele>
        <time>2015-09-11T07:21:20Z</time>
      </trkpt>
      <trkpt lat="42.25525" lon="8.90698">
        <ele>1721.86</ele>
        <time>2015-09-11T07:21:32Z</time>
      </trkpt>
      <trkpt lat="42.25528" lon="8.90701">
        <ele>1722.34</ele>
        <time>2015-09-11T07:21:35Z</time>
      </trkpt>
      <trkpt lat="42.25528" lon="8.90704">
        <ele>1722.34</ele>
        <time>2015-09-11T07:21:38Z</time>
      </trkpt>
      <trkpt lat="42.25532" lon="8.9071">
        <ele>1722.82</ele>
        <time>2015-09-11T07:21:43Z</time>
      </trkpt>
      <trkpt lat="42.25534" lon="8.90722">
        <ele>1724.26</ele>
        <time>2015-09-11T07:21:54Z</time>
      </trkpt>
      <trkpt lat="42.25535" lon="8.90724">
        <ele>1724.74</ele>
        <time>2015-09-11T07:21:56Z</time>
      </trkpt>
      <trkpt lat="42.25536" lon="8.90726">
        <ele>1724.26</ele>
        <time>2015-09-11T07:21:58Z</time>
      </trkpt>
      <trkpt lat="42.2554" lon="8.90731">
        <ele>1724.74</ele>
        <time>2015-09-11T07:22:03Z</time>
      </trkpt>
      <trkpt lat="42.25545" lon="8.90737">
        <ele>1724.74</ele>
        <time>2015-09-11T07:22:15Z</time>
      </trkpt>
      <trkpt lat="42.25546" lon="8.9074">
        <ele>1725.22</ele>
        <time>2015-09-11T07:22:18Z</time>
      </trkpt>
      <trkpt lat="42.25548" lon="8.90751">
        <ele>1726.18</ele>
        <time>2015-09-11T07:22:26Z</time>
      </trkpt>
      <trkpt lat="42.25551" lon="8.90767">
        <ele>1728.11</ele>
        <time>2015-09-11T07:22:40Z</time>
      </trkpt>
      <trkpt lat="42.25549" lon="8.90771">
        <ele>1728.59</ele>
        <time>2015-09-11T07:22:44Z</time>
      </trkpt>
      <trkpt lat="42.2555" lon="8.90775">
        <ele>1729.07</ele>
        <time>2015-09-11T07:22:47Z</time>
      </trkpt>
      <trkpt lat="42.25547" lon="8.90779">
        <ele>1729.55</ele>
        <time>2015-09-11T07:22:57Z</time>
      </trkpt>
      <trkpt lat="42.2554" lon="8.90773">
        <ele>1731.47</ele>
        <time>2015-09-11T07:23:08Z</time>
      </trkpt>
      <trkpt lat="42.25539" lon="8.90779">
        <ele>1733.39</ele>
        <time>2015-09-11T07:23:18Z</time>
      </trkpt>
      <trkpt lat="42.2554" lon="8.90789">
        <ele>1734.84</ele>
        <time>2015-09-11T07:23:28Z</time>
      </trkpt>
      <trkpt lat="42.25542" lon="8.90794">
        <ele>1734.84</ele>
        <time>2015-09-11T07:23:32Z</time>
      </trkpt>
      <trkpt lat="42.2554" lon="8.908">
        <ele>1735.8</ele>
        <time>2015-09-11T07:23:38Z</time>
      </trkpt>
      <trkpt lat="42.25537" lon="8.90805">
        <ele>1736.76</ele>
        <time>2015-09-11T07:23:43Z</time>
      </trkpt>
      <trkpt lat="42.25535" lon="8.90804">
        <ele>1737.72</ele>
        <time>2015-09-11T07:23:46Z</time>
      </trkpt>
      <trkpt lat="42.25529" lon="8.9081">
        <ele>1739.16</ele>
        <time>2015-09-11T07:23:58Z</time>
      </trkpt>
      <trkpt lat="42.25527" lon="8.90814">
        <ele>1740.12</ele>
        <time>2015-09-11T07:24:03Z</time>
      </trkpt>
      <trkpt lat="42.25524" lon="8.90823">
        <ele>1741.57</ele>
        <time>2015-09-11T07:24:15Z</time>
      </trkpt>
      <trkpt lat="42.25522" lon="8.90823">
        <ele>1742.05</ele>
        <time>2015-09-11T07:24:18Z</time>
      </trkpt>
      <trkpt lat="42.25519" lon="8.90824">
        <ele>1743.01</ele>
        <time>2015-09-11T07:24:23Z</time>
      </trkpt>
      <trkpt lat="42.25518" lon="8.90828">
        <ele>1743.49</ele>
        <time>2015-09-11T07:24:26Z</time>
      </trkpt>
      <trkpt lat="42.25517" lon="8.90834">
        <ele>1743.49</ele>
        <time>2015-09-11T07:24:30Z</time>
      </trkpt>
      <trkpt lat="42.25513" lon="8.90842">
        <ele>1743.97</ele>
        <time>2015-09-11T07:24:36Z</time>
      </trkpt>
      <trkpt lat="42.25511" lon="8.90855">
        <ele>1743.97</ele>
        <time>2015-09-11T07:24:45Z</time>
      </trkpt>
      <trkpt lat="42.25509" lon="8.90856">
        <ele>1744.45</ele>
        <time>2015-09-11T07:24:47Z</time>
      </trkpt>
      <trkpt lat="42.25508" lon="8.90863">
        <ele>1744.93</ele>
        <time>2015-09-11T07:24:52Z</time>
      </trkpt>
      <trkpt lat="42.25506" lon="8.90865">
        <ele>1745.41</ele>
        <time>2015-09-11T07:24:55Z</time>
      </trkpt>
      <trkpt lat="42.25506" lon="8.90868">
        <ele>1746.37</ele>
        <time>2015-09-11T07:24:58Z</time>
      </trkpt>
      <trkpt lat="42.25505" lon="8.9087">
        <ele>1747.33</ele>
        <time>2015-09-11T07:25:02Z</time>
      </trkpt>
      <trkpt lat="42.25504" lon="8.90876">
        <ele>1747.81</ele>
        <time>2015-09-11T07:25:07Z</time>
      </trkpt>
      <trkpt lat="42.25503" lon="8.90881">
        <ele>1747.81</ele>
        <time>2015-09-11T07:25:11Z</time>
      </trkpt>
      <trkpt lat="42.255" lon="8.90895">
        <ele>1748.78</ele>
        <time>2015-09-11T07:25:22Z</time>
      </trkpt>
      <trkpt lat="42.25498" lon="8.909">
        <ele>1749.26</ele>
        <time>2015-09-11T07:25:26Z</time>
      </trkpt>
      <trkpt lat="42.25495" lon="8.90909">
        <ele>1750.7</ele>
        <time>2015-09-11T07:25:34Z</time>
      </trkpt>
      <trkpt lat="42.25498" lon="8.90922">
        <ele>1750.7</ele>
        <time>2015-09-11T07:25:43Z</time>
      </trkpt>
      <trkpt lat="42.255" lon="8.90936">
        <ele>1751.66</ele>
        <time>2015-09-11T07:25:53Z</time>
      </trkpt>
      <trkpt lat="42.25501" lon="8.90946">
        <ele>1752.14</ele>
        <time>2015-09-11T07:26:01Z</time>
      </trkpt>
      <trkpt lat="42.255" lon="8.90952">
        <ele>1752.62</ele>
        <time>2015-09-11T07:26:06Z</time>
      </trkpt>
      <trkpt lat="42.255" lon="8.90958">
        <ele>1753.1</ele>
        <time>2015-09-11T07:26:10Z</time>
      </trkpt>
      <trkpt lat="42.255" lon="8.90963">
        <ele>1754.06</ele>
        <time>2015-09-11T07:26:14Z</time>
      </trkpt>
      <trkpt lat="42.255" lon="8.90967">
        <ele>1754.54</ele>
        <time>2015-09-11T07:26:17Z</time>
      </trkpt>
      <trkpt lat="42.255" lon="8.90977">
        <ele>1754.54</ele>
        <time>2015-09-11T07:26:25Z</time>
      </trkpt>
      <trkpt lat="42.25499" lon="8.90977">
        <ele>1755.02</ele>
        <time>2015-09-11T07:26:27Z</time>
      </trkpt>
      <trkpt lat="42.25496" lon="8.90978">
        <ele>1756.47</ele>
        <time>2015-09-11T07:26:37Z</time>
      </trkpt>
      <trkpt lat="42.25496" lon="8.9098">
        <ele>1756.47</ele>
        <time>2015-09-11T07:26:50Z</time>
      </trkpt>
      <trkpt lat="42.25496" lon="8.90981">
        <ele>1756.47</ele>
        <time>2015-09-11T07:27:06Z</time>
      </trkpt>
      <trkpt lat="42.25497" lon="8.9098">
        <ele>1756.95</ele>
        <time>2015-09-11T07:27:32Z</time>
      </trkpt>
      <trkpt lat="42.25497" lon="8.90981">
        <ele>1756.95</ele>
        <time>2015-09-11T07:27:52Z</time>
      </trkpt>
      <trkpt lat="42.25499" lon="8.90984">
        <ele>1757.43</ele>
        <time>2015-09-11T07:28:05Z</time>
      </trkpt>
      <trkpt lat="42.255" lon="8.90986">
        <ele>1757.43</ele>
        <time>2015-09-11T07:28:28Z</time>
      </trkpt>
      <trkpt lat="42.25502" lon="8.90986">
        <ele>1757.43</ele>
        <time>2015-09-11T07:28:52Z</time>
      </trkpt>
      <trkpt lat="42.25506" lon="8.9099">
        <ele>1757.91</ele>
        <time>2015-09-11T07:28:58Z</time>
      </trkpt>
      <trkpt lat="42.25512" lon="8.90998">
        <ele>1757.91</ele>
        <time>2015-09-11T07:29:06Z</time>
      </trkpt>
      <trkpt lat="42.2552" lon="8.91011">
        <ele>1757.43</ele>
        <time>2015-09-11T07:29:17Z</time>
      </trkpt>
      <trkpt lat="42.25527" lon="8.91022">
        <ele>1758.87</ele>
        <time>2015-09-11T07:29:28Z</time>
      </trkpt>
      <trkpt lat="42.25532" lon="8.91035">
        <ele>1759.83</ele>
        <time>2015-09-11T07:29:40Z</time>
      </trkpt>
      <trkpt lat="42.25537" lon="8.91048">
        <ele>1760.31</ele>
        <time>2015-09-11T07:29:51Z</time>
      </trkpt>
      <trkpt lat="42.2554" lon="8.91057">
        <ele>1760.79</ele>
        <time>2015-09-11T07:29:58Z</time>
      </trkpt>
      <trkpt lat="42.25541" lon="8.91067">
        <ele>1761.27</ele>
        <time>2015-09-11T07:30:05Z</time>
      </trkpt>
      <trkpt lat="42.25541" lon="8.91069">
        <ele>1761.75</ele>
        <time>2015-09-11T07:30:07Z</time>
      </trkpt>
      <trkpt lat="42.25542" lon="8.91078">
        <ele>1762.23</ele>
        <time>2015-09-11T07:30:14Z</time>
      </trkpt>
      <trkpt lat="42.25543" lon="8.91083">
        <ele>1762.23</ele>
        <time>2015-09-11T07:30:18Z</time>
      </trkpt>
      <trkpt lat="42.25542" lon="8.91086">
        <ele>1762.71</ele>
        <time>2015-09-11T07:30:21Z</time>
      </trkpt>
      <trkpt lat="42.25543" lon="8.911">
        <ele>1764.16</ele>
        <time>2015-09-11T07:30:32Z</time>
      </trkpt>
      <trkpt lat="42.25542" lon="8.91107">
        <ele>1765.12</ele>
        <time>2015-09-11T07:30:46Z</time>
      </trkpt>
      <trkpt lat="42.25541" lon="8.91107">
        <ele>1765.6</ele>
        <time>2015-09-11T07:31:14Z</time>
      </trkpt>
      <trkpt lat="42.25543" lon="8.91109">
        <ele>1765.12</ele>
        <time>2015-09-11T07:31:29Z</time>
      </trkpt>
      <trkpt lat="42.25544" lon="8.91113">
        <ele>1765.12</ele>
        <time>2015-09-11T07:31:43Z</time>
      </trkpt>
      <trkpt lat="42.25545" lon="8.91119">
        <ele>1766.08</ele>
        <time>2015-09-11T07:31:53Z</time>
      </trkpt>
      <trkpt lat="42.25548" lon="8.91119">
        <ele>1766.08</ele>
        <time>2015-09-11T07:32:17Z</time>
      </trkpt>
      <trkpt lat="42.25548" lon="8.9112">
        <ele>1766.08</ele>
        <time>2015-09-11T07:32:34Z</time>
      </trkpt>
      <trkpt lat="42.25547" lon="8.91124">
        <ele>1766.56</ele>
        <time>2015-09-11T07:32:37Z</time>
      </trkpt>
      <trkpt lat="42.25547" lon="8.91128">
        <ele>1766.56</ele>
        <time>2015-09-11T07:32:40Z</time>
      </trkpt>
      <trkpt lat="42.25545" lon="8.91139">
        <ele>1767.04</ele>
        <time>2015-09-11T07:32:49Z</time>
      </trkpt>
      <trkpt lat="42.25542" lon="8.91144">
        <ele>1767.52</ele>
        <time>2015-09-11T07:32:53Z</time>
      </trkpt>
      <trkpt lat="42.2554" lon="8.91156">
        <ele>1768</ele>
        <time>2015-09-11T07:33:02Z</time>
      </trkpt>
      <trkpt lat="42.25539" lon="8.91162">
        <ele>1768.48</ele>
        <time>2015-09-11T07:33:06Z</time>
      </trkpt>
      <trkpt lat="42.25536" lon="8.91167">
        <ele>1768.48</ele>
        <time>2015-09-11T07:33:10Z</time>
      </trkpt>
      <trkpt lat="42.25536" lon="8.9117">
        <ele>1768.96</ele>
        <time>2015-09-11T07:33:12Z</time>
      </trkpt>
      <trkpt lat="42.25536" lon="8.91176">
        <ele>1769.92</ele>
        <time>2015-09-11T07:33:16Z</time>
      </trkpt>
      <trkpt lat="42.25535" lon="8.91187">
        <ele>1769.44</ele>
        <time>2015-09-11T07:33:23Z</time>
      </trkpt>
      <trkpt lat="42.25532" lon="8.91197">
        <ele>1769.92</ele>
        <time>2015-09-11T07:33:30Z</time>
      </trkpt>
      <trkpt lat="42.2553" lon="8.91214">
        <ele>1770.89</ele>
        <time>2015-09-11T07:33:42Z</time>
      </trkpt>
      <trkpt lat="42.25528" lon="8.91224">
        <ele>1771.37</ele>
        <time>2015-09-11T07:33:49Z</time>
      </trkpt>
      <trkpt lat="42.25528" lon="8.91228">
        <ele>1771.37</ele>
        <time>2015-09-11T07:33:52Z</time>
      </trkpt>
      <trkpt lat="42.25524" lon="8.91245">
        <ele>1771.85</ele>
        <time>2015-09-11T07:34:04Z</time>
      </trkpt>
      <trkpt lat="42.25523" lon="8.91258">
        <ele>1772.33</ele>
        <time>2015-09-11T07:34:19Z</time>
      </trkpt>
      <trkpt lat="42.25523" lon="8.91259">
        <ele>1772.33</ele>
        <time>2015-09-11T07:34:22Z</time>
      </trkpt>
      <trkpt lat="42.25522" lon="8.91263">
        <ele>1772.33</ele>
        <time>2015-09-11T07:34:25Z</time>
      </trkpt>
      <trkpt lat="42.25521" lon="8.91271">
        <ele>1772.81</ele>
        <time>2015-09-11T07:34:30Z</time>
      </trkpt>
      <trkpt lat="42.25517" lon="8.9129">
        <ele>1773.29</ele>
        <time>2015-09-11T07:34:43Z</time>
      </trkpt>
      <trkpt lat="42.25516" lon="8.91305">
        <ele>1774.25</ele>
        <time>2015-09-11T07:34:54Z</time>
      </trkpt>
      <trkpt lat="42.25517" lon="8.91325">
        <ele>1774.73</ele>
        <time>2015-09-11T07:35:07Z</time>
      </trkpt>
      <trkpt lat="42.25517" lon="8.91336">
        <ele>1775.21</ele>
        <time>2015-09-11T07:35:14Z</time>
      </trkpt>
      <trkpt lat="42.25514" lon="8.91354">
        <ele>1776.17</ele>
        <time>2015-09-11T07:35:26Z</time>
      </trkpt>
      <trkpt lat="42.25516" lon="8.91372">
        <ele>1777.61</ele>
        <time>2015-09-11T07:35:39Z</time>
      </trkpt>
      <trkpt lat="42.25515" lon="8.91376">
        <ele>1777.61</ele>
        <time>2015-09-11T07:35:42Z</time>
      </trkpt>
      <trkpt lat="42.25515" lon="8.91383">
        <ele>1778.58</ele>
        <time>2015-09-11T07:35:48Z</time>
      </trkpt>
      <trkpt lat="42.25515" lon="8.9139">
        <ele>1779.06</ele>
        <time>2015-09-11T07:35:54Z</time>
      </trkpt>
      <trkpt lat="42.25519" lon="8.91405">
        <ele>1780.98</ele>
        <time>2015-09-11T07:36:07Z</time>
      </trkpt>
      <trkpt lat="42.25519" lon="8.9141">
        <ele>1781.94</ele>
        <time>2015-09-11T07:36:12Z</time>
      </trkpt>
      <trkpt lat="42.25519" lon="8.91412">
        <ele>1782.42</ele>
        <time>2015-09-11T07:36:14Z</time>
      </trkpt>
      <trkpt lat="42.25518" lon="8.91422">
        <ele>1784.34</ele>
        <time>2015-09-11T07:36:25Z</time>
      </trkpt>
      <trkpt lat="42.25523" lon="8.91435">
        <ele>1786.27</ele>
        <time>2015-09-11T07:36:39Z</time>
      </trkpt>
      <trkpt lat="42.25526" lon="8.91446">
        <ele>1787.71</ele>
        <time>2015-09-11T07:36:50Z</time>
      </trkpt>
      <trkpt lat="42.25525" lon="8.9145">
        <ele>1788.19</ele>
        <time>2015-09-11T07:36:54Z</time>
      </trkpt>
      <trkpt lat="42.25524" lon="8.91459">
        <ele>1790.11</ele>
        <time>2015-09-11T07:37:02Z</time>
      </trkpt>
      <trkpt lat="42.25527" lon="8.91471">
        <ele>1792.03</ele>
        <time>2015-09-11T07:37:14Z</time>
      </trkpt>
      <trkpt lat="42.25528" lon="8.91477">
        <ele>1792.52</ele>
        <time>2015-09-11T07:37:19Z</time>
      </trkpt>
      <trkpt lat="42.25528" lon="8.9148">
        <ele>1792.52</ele>
        <time>2015-09-11T07:37:22Z</time>
      </trkpt>
      <trkpt lat="42.25528" lon="8.91485">
        <ele>1793</ele>
        <time>2015-09-11T07:37:26Z</time>
      </trkpt>
      <trkpt lat="42.25528" lon="8.91497">
        <ele>1794.92</ele>
        <time>2015-09-11T07:37:39Z</time>
      </trkpt>
      <trkpt lat="42.25528" lon="8.91501">
        <ele>1795.88</ele>
        <time>2015-09-11T07:37:44Z</time>
      </trkpt>
      <trkpt lat="42.25529" lon="8.91509">
        <ele>1797.8</ele>
        <time>2015-09-11T07:37:55Z</time>
      </trkpt>
      <trkpt lat="42.25532" lon="8.91512">
        <ele>1798.76</ele>
        <time>2015-09-11T07:37:58Z</time>
      </trkpt>
      <trkpt lat="42.25532" lon="8.91519">
        <ele>1799.24</ele>
        <time>2015-09-11T07:38:04Z</time>
      </trkpt>
      <trkpt lat="42.25532" lon="8.91521">
        <ele>1799.73</ele>
        <time>2015-09-11T07:38:06Z</time>
      </trkpt>
      <trkpt lat="42.25533" lon="8.91526">
        <ele>1800.21</ele>
        <time>2015-09-11T07:38:10Z</time>
      </trkpt>
      <trkpt lat="42.25533" lon="8.91529">
        <ele>1800.21</ele>
        <time>2015-09-11T07:38:13Z</time>
      </trkpt>
      <trkpt lat="42.25538" lon="8.91545">
        <ele>1800.69</ele>
        <time>2015-09-11T07:38:26Z</time>
      </trkpt>
      <trkpt lat="42.25542" lon="8.91548">
        <ele>1800.69</ele>
        <time>2015-09-11T07:38:44Z</time>
      </trkpt>
      <trkpt lat="42.25543" lon="8.9155">
        <ele>1800.69</ele>
        <time>2015-09-11T07:38:47Z</time>
      </trkpt>
      <trkpt lat="42.25544" lon="8.91563">
        <ele>1801.65</ele>
        <time>2015-09-11T07:38:58Z</time>
      </trkpt>
      <trkpt lat="42.25544" lon="8.91567">
        <ele>1802.13</ele>
        <time>2015-09-11T07:39:01Z</time>
      </trkpt>
      <trkpt lat="42.25544" lon="8.91571">
        <ele>1802.13</ele>
        <time>2015-09-11T07:39:04Z</time>
      </trkpt>
      <trkpt lat="42.25538" lon="8.91581">
        <ele>1803.09</ele>
        <time>2015-09-11T07:39:18Z</time>
      </trkpt>
      <trkpt lat="42.25536" lon="8.91582">
        <ele>1801.65</ele>
        <time>2015-09-11T07:39:31Z</time>
      </trkpt>
      <trkpt lat="42.25532" lon="8.91586">
        <ele>1799.73</ele>
        <time>2015-09-11T07:39:42Z</time>
      </trkpt>
      <trkpt lat="42.25529" lon="8.91585">
        <ele>1798.76</ele>
        <time>2015-09-11T07:39:49Z</time>
      </trkpt>
      <trkpt lat="42.25526" lon="8.91583">
        <ele>1796.84</ele>
        <time>2015-09-11T07:40:01Z</time>
      </trkpt>
      <trkpt lat="42.25529" lon="8.91586">
        <ele>1796.36</ele>
        <time>2015-09-11T07:40:12Z</time>
      </trkpt>
      <trkpt lat="42.25529" lon="8.9159">
        <ele>1796.36</ele>
        <time>2015-09-11T07:40:35Z</time>
      </trkpt>
      <trkpt lat="42.2553" lon="8.91593">
        <ele>1794.92</ele>
        <time>2015-09-11T07:40:38Z</time>
      </trkpt>
      <trkpt lat="42.25532" lon="8.91607">
        <ele>1793.48</ele>
        <time>2015-09-11T07:40:51Z</time>
      </trkpt>
      <trkpt lat="42.25534" lon="8.91614">
        <ele>1791.55</ele>
        <time>2015-09-11T07:41:02Z</time>
      </trkpt>
      <trkpt lat="42.25534" lon="8.91624">
        <ele>1789.15</ele>
        <time>2015-09-11T07:41:11Z</time>
      </trkpt>
      <trkpt lat="42.25529" lon="8.91625">
        <ele>1787.71</ele>
        <time>2015-09-11T07:41:22Z</time>
      </trkpt>
      <trkpt lat="42.25529" lon="8.91627">
        <ele>1787.23</ele>
        <time>2015-09-11T07:41:25Z</time>
      </trkpt>
      <trkpt lat="42.25531" lon="8.91631">
        <ele>1787.23</ele>
        <time>2015-09-11T07:41:29Z</time>
      </trkpt>
      <trkpt lat="42.25534" lon="8.91643">
        <ele>1786.27</ele>
        <time>2015-09-11T07:41:40Z</time>
      </trkpt>
      <trkpt lat="42.25535" lon="8.91646">
        <ele>1786.27</ele>
        <time>2015-09-11T07:41:42Z</time>
      </trkpt>
      <trkpt lat="42.25535" lon="8.91651">
        <ele>1786.75</ele>
        <time>2015-09-11T07:41:46Z</time>
      </trkpt>
      <trkpt lat="42.25536" lon="8.91667">
        <ele>1786.75</ele>
        <time>2015-09-11T07:41:58Z</time>
      </trkpt>
      <trkpt lat="42.25538" lon="8.91683">
        <ele>1787.71</ele>
        <time>2015-09-11T07:42:11Z</time>
      </trkpt>
      <trkpt lat="42.25538" lon="8.91684">
        <ele>1788.19</ele>
        <time>2015-09-11T07:42:12Z</time>
      </trkpt>
      <trkpt lat="42.25539" lon="8.91687">
        <ele>1788.19</ele>
        <time>2015-09-11T07:42:14Z</time>
      </trkpt>
      <trkpt lat="42.25538" lon="8.917">
        <ele>1788.67</ele>
        <time>2015-09-11T07:42:24Z</time>
      </trkpt>
      <trkpt lat="42.25537" lon="8.91714">
        <ele>1790.59</ele>
        <time>2015-09-11T07:42:37Z</time>
      </trkpt>
      <trkpt lat="42.25537" lon="8.91723">
        <ele>1791.07</ele>
        <time>2015-09-11T07:42:44Z</time>
      </trkpt>
      <trkpt lat="42.25537" lon="8.91735">
        <ele>1792.03</ele>
        <time>2015-09-11T07:42:54Z</time>
      </trkpt>
      <trkpt lat="42.25537" lon="8.91746">
        <ele>1794.44</ele>
        <time>2015-09-11T07:43:08Z</time>
      </trkpt>
      <trkpt lat="42.25541" lon="8.91744">
        <ele>1794.92</ele>
        <time>2015-09-11T07:43:13Z</time>
      </trkpt>
      <trkpt lat="42.25546" lon="8.91737">
        <ele>1796.36</ele>
        <time>2015-09-11T07:43:26Z</time>
      </trkpt>
      <trkpt lat="42.25545" lon="8.91739">
        <ele>1797.8</ele>
        <time>2015-09-11T07:43:30Z</time>
      </trkpt>
      <trkpt lat="42.25545" lon="8.91743">
        <ele>1798.28</ele>
        <time>2015-09-11T07:43:34Z</time>
      </trkpt>
      <trkpt lat="42.25544" lon="8.91756">
        <ele>1800.21</ele>
        <time>2015-09-11T07:43:46Z</time>
      </trkpt>
      <trkpt lat="42.25541" lon="8.91766">
        <ele>1800.69</ele>
        <time>2015-09-11T07:43:55Z</time>
      </trkpt>
      <trkpt lat="42.25539" lon="8.91777">
        <ele>1801.65</ele>
        <time>2015-09-11T07:44:06Z</time>
      </trkpt>
      <trkpt lat="42.25544" lon="8.91775">
        <ele>1803.09</ele>
        <time>2015-09-11T07:44:16Z</time>
      </trkpt>
      <trkpt lat="42.25549" lon="8.91771">
        <ele>1804.05</ele>
        <time>2015-09-11T07:44:23Z</time>
      </trkpt>
      <trkpt lat="42.25553" lon="8.91767">
        <ele>1804.53</ele>
        <time>2015-09-11T07:44:29Z</time>
      </trkpt>
      <trkpt lat="42.25554" lon="8.91764">
        <ele>1804.53</ele>
        <time>2015-09-11T07:44:32Z</time>
      </trkpt>
      <trkpt lat="42.25557" lon="8.9176">
        <ele>1805.01</ele>
        <time>2015-09-11T07:44:37Z</time>
      </trkpt>
      <trkpt lat="42.25561" lon="8.91758">
        <ele>1806.45</ele>
        <time>2015-09-11T07:44:48Z</time>
      </trkpt>
      <trkpt lat="42.2556" lon="8.9176">
        <ele>1806.45</ele>
        <time>2015-09-11T07:45:08Z</time>
      </trkpt>
      <trkpt lat="42.25559" lon="8.91764">
        <ele>1807.42</ele>
        <time>2015-09-11T07:45:14Z</time>
      </trkpt>
      <trkpt lat="42.25556" lon="8.91775">
        <ele>1809.34</ele>
        <time>2015-09-11T07:45:26Z</time>
      </trkpt>
      <trkpt lat="42.25561" lon="8.91775">
        <ele>1810.3</ele>
        <time>2015-09-11T07:45:37Z</time>
      </trkpt>
      <trkpt lat="42.25571" lon="8.91775">
        <ele>1811.74</ele>
        <time>2015-09-11T07:45:47Z</time>
      </trkpt>
      <trkpt lat="42.2557" lon="8.91778">
        <ele>1811.74</ele>
        <time>2015-09-11T07:45:51Z</time>
      </trkpt>
      <trkpt lat="42.25566" lon="8.91783">
        <ele>1813.66</ele>
        <time>2015-09-11T07:45:57Z</time>
      </trkpt>
      <trkpt lat="42.25559" lon="8.91795">
        <ele>1814.63</ele>
        <time>2015-09-11T07:46:09Z</time>
      </trkpt>
      <trkpt lat="42.25555" lon="8.91803">
        <ele>1815.59</ele>
        <time>2015-09-11T07:46:17Z</time>
      </trkpt>
      <trkpt lat="42.25557" lon="8.91806">
        <ele>1816.55</ele>
        <time>2015-09-11T07:46:29Z</time>
      </trkpt>
      <trkpt lat="42.2556" lon="8.91805">
        <ele>1817.03</ele>
        <time>2015-09-11T07:46:32Z</time>
      </trkpt>
      <trkpt lat="42.25562" lon="8.91803">
        <ele>1817.03</ele>
        <time>2015-09-11T07:46:34Z</time>
      </trkpt>
      <trkpt lat="42.25565" lon="8.91803">
        <ele>1817.51</ele>
        <time>2015-09-11T07:46:37Z</time>
      </trkpt>
      <trkpt lat="42.25576" lon="8.91804">
        <ele>1818.95</ele>
        <time>2015-09-11T07:46:50Z</time>
      </trkpt>
      <trkpt lat="42.25577" lon="8.9181">
        <ele>1820.39</ele>
        <time>2015-09-11T07:47:02Z</time>
      </trkpt>
      <trkpt lat="42.25574" lon="8.91811">
        <ele>1820.39</ele>
        <time>2015-09-11T07:47:04Z</time>
      </trkpt>
      <trkpt lat="42.25568" lon="8.91815">
        <ele>1821.84</ele>
        <time>2015-09-11T07:47:12Z</time>
      </trkpt>
      <trkpt lat="42.25566" lon="8.91817">
        <ele>1822.32</ele>
        <time>2015-09-11T07:47:14Z</time>
      </trkpt>
      <trkpt lat="42.25561" lon="8.91831">
        <ele>1822.8</ele>
        <time>2015-09-11T07:47:28Z</time>
      </trkpt>
      <trkpt lat="42.25562" lon="8.91836">
        <ele>1822.8</ele>
        <time>2015-09-11T07:47:33Z</time>
      </trkpt>
      <trkpt lat="42.25564" lon="8.91852">
        <ele>1824.72</ele>
        <time>2015-09-11T07:47:48Z</time>
      </trkpt>
      <trkpt lat="42.25565" lon="8.91868">
        <ele>1825.68</ele>
        <time>2015-09-11T07:48:01Z</time>
      </trkpt>
      <trkpt lat="42.25565" lon="8.91873">
        <ele>1826.16</ele>
        <time>2015-09-11T07:48:05Z</time>
      </trkpt>
      <trkpt lat="42.25563" lon="8.91879">
        <ele>1826.64</ele>
        <time>2015-09-11T07:48:09Z</time>
      </trkpt>
      <trkpt lat="42.25564" lon="8.91896">
        <ele>1827.12</ele>
        <time>2015-09-11T07:48:22Z</time>
      </trkpt>
      <trkpt lat="42.25564" lon="8.91897">
        <ele>1827.12</ele>
        <time>2015-09-11T07:48:23Z</time>
      </trkpt>
      <trkpt lat="42.25563" lon="8.91903">
        <ele>1827.6</ele>
        <time>2015-09-11T07:48:27Z</time>
      </trkpt>
      <trkpt lat="42.25561" lon="8.9191">
        <ele>1827.6</ele>
        <time>2015-09-11T07:48:31Z</time>
      </trkpt>
      <trkpt lat="42.25562" lon="8.91914">
        <ele>1827.12</ele>
        <time>2015-09-11T07:48:39Z</time>
      </trkpt>
      <trkpt lat="42.25563" lon="8.91917">
        <ele>1827.6</ele>
        <time>2015-09-11T07:48:42Z</time>
      </trkpt>
      <trkpt lat="42.25565" lon="8.91929">
        <ele>1828.56</ele>
        <time>2015-09-11T07:48:53Z</time>
      </trkpt>
      <trkpt lat="42.25563" lon="8.91942">
        <ele>1830.01</ele>
        <time>2015-09-11T07:49:04Z</time>
      </trkpt>
      <trkpt lat="42.25562" lon="8.91949">
        <ele>1830.49</ele>
        <time>2015-09-11T07:49:11Z</time>
      </trkpt>
      <trkpt lat="42.25559" lon="8.91966">
        <ele>1830.97</ele>
        <time>2015-09-11T07:49:23Z</time>
      </trkpt>
      <trkpt lat="42.25556" lon="8.91977">
        <ele>1831.93</ele>
        <time>2015-09-11T07:49:33Z</time>
      </trkpt>
      <trkpt lat="42.25557" lon="8.91981">
        <ele>1832.41</ele>
        <time>2015-09-11T07:49:37Z</time>
      </trkpt>
      <trkpt lat="42.25558" lon="8.91991">
        <ele>1832.41</ele>
        <time>2015-09-11T07:49:46Z</time>
      </trkpt>
      <trkpt lat="42.25556" lon="8.91999">
        <ele>1831.45</ele>
        <time>2015-09-11T07:49:56Z</time>
      </trkpt>
      <trkpt lat="42.25555" lon="8.92014">
        <ele>1830.49</ele>
        <time>2015-09-11T07:50:09Z</time>
      </trkpt>
      <trkpt lat="42.25554" lon="8.92016">
        <ele>1830.49</ele>
        <time>2015-09-11T07:50:10Z</time>
      </trkpt>
      <trkpt lat="42.25555" lon="8.92022">
        <ele>1830.01</ele>
        <time>2015-09-11T07:50:14Z</time>
      </trkpt>
      <trkpt lat="42.25552" lon="8.92029">
        <ele>1830.01</ele>
        <time>2015-09-11T07:50:19Z</time>
      </trkpt>
      <trkpt lat="42.2555" lon="8.92035">
        <ele>1830.01</ele>
        <time>2015-09-11T07:50:23Z</time>
      </trkpt>
      <trkpt lat="42.2555" lon="8.92039">
        <ele>1830.49</ele>
        <time>2015-09-11T07:50:26Z</time>
      </trkpt>
      <trkpt lat="42.25548" lon="8.92044">
        <ele>1830.01</ele>
        <time>2015-09-11T07:50:31Z</time>
      </trkpt>
      <trkpt lat="42.25546" lon="8.92061">
        <ele>1829.05</ele>
        <time>2015-09-11T07:50:44Z</time>
      </trkpt>
      <trkpt lat="42.25547" lon="8.9207">
        <ele>1830.01</ele>
        <time>2015-09-11T07:50:51Z</time>
      </trkpt>
      <trkpt lat="42.25545" lon="8.92084">
        <ele>1831.93</ele>
        <time>2015-09-11T07:51:05Z</time>
      </trkpt>
      <trkpt lat="42.25544" lon="8.92087">
        <ele>1832.41</ele>
        <time>2015-09-11T07:51:07Z</time>
      </trkpt>
      <trkpt lat="42.25541" lon="8.921">
        <ele>1833.37</ele>
        <time>2015-09-11T07:51:19Z</time>
      </trkpt>
      <trkpt lat="42.25536" lon="8.92108">
        <ele>1833.37</ele>
        <time>2015-09-11T07:51:36Z</time>
      </trkpt>
      <trkpt lat="42.2553" lon="8.9212">
        <ele>1835.77</ele>
        <time>2015-09-11T07:51:50Z</time>
      </trkpt>
      <trkpt lat="42.25529" lon="8.92121">
        <ele>1836.26</ele>
        <time>2015-09-11T07:51:51Z</time>
      </trkpt>
      <trkpt lat="42.25527" lon="8.92123">
        <ele>1836.26</ele>
        <time>2015-09-11T07:51:53Z</time>
      </trkpt>
      <trkpt lat="42.25521" lon="8.92132">
        <ele>1835.77</ele>
        <time>2015-09-11T07:52:01Z</time>
      </trkpt>
      <trkpt lat="42.25519" lon="8.92135">
        <ele>1835.77</ele>
        <time>2015-09-11T07:52:04Z</time>
      </trkpt>
      <trkpt lat="42.25519" lon="8.9214">
        <ele>1835.77</ele>
        <time>2015-09-11T07:52:18Z</time>
      </trkpt>
      <trkpt lat="42.25513" lon="8.92149">
        <ele>1834.81</ele>
        <time>2015-09-11T07:52:27Z</time>
      </trkpt>
      <trkpt lat="42.25508" lon="8.9216">
        <ele>1836.74</ele>
        <time>2015-09-11T07:52:40Z</time>
      </trkpt>
      <trkpt lat="42.25505" lon="8.92164">
        <ele>1837.22</ele>
        <time>2015-09-11T07:52:44Z</time>
      </trkpt>
      <trkpt lat="42.25503" lon="8.92166">
        <ele>1837.7</ele>
        <time>2015-09-11T07:52:47Z</time>
      </trkpt>
      <trkpt lat="42.25494" lon="8.92182">
        <ele>1838.18</ele>
        <time>2015-09-11T07:53:01Z</time>
      </trkpt>
      <trkpt lat="42.25491" lon="8.92191">
        <ele>1838.66</ele>
        <time>2015-09-11T07:53:08Z</time>
      </trkpt>
      <trkpt lat="42.25488" lon="8.92199">
        <ele>1839.62</ele>
        <time>2015-09-11T07:53:20Z</time>
      </trkpt>
      <trkpt lat="42.25487" lon="8.92198">
        <ele>1839.62</ele>
        <time>2015-09-11T07:53:47Z</time>
      </trkpt>
      <trkpt lat="42.25487" lon="8.92199">
        <ele>1839.62</ele>
        <time>2015-09-11T07:54:08Z</time>
      </trkpt>
      <trkpt lat="42.25488" lon="8.92202">
        <ele>1840.1</ele>
        <time>2015-09-11T07:54:26Z</time>
      </trkpt>
      <trkpt lat="42.25488" lon="8.92203">
        <ele>1840.1</ele>
        <time>2015-09-11T07:54:35Z</time>
      </trkpt>
      <trkpt lat="42.25486" lon="8.9221">
        <ele>1840.1</ele>
        <time>2015-09-11T07:54:39Z</time>
      </trkpt>
      <trkpt lat="42.25486" lon="8.92213">
        <ele>1840.58</ele>
        <time>2015-09-11T07:54:41Z</time>
      </trkpt>
      <trkpt lat="42.25486" lon="8.92218">
        <ele>1841.06</ele>
        <time>2015-09-11T07:54:44Z</time>
      </trkpt>
      <trkpt lat="42.25483" lon="8.92232">
        <ele>1841.06</ele>
        <time>2015-09-11T07:54:54Z</time>
      </trkpt>
      <trkpt lat="42.25478" lon="8.92247">
        <ele>1842.02</ele>
        <time>2015-09-11T07:55:06Z</time>
      </trkpt>
      <trkpt lat="42.25477" lon="8.92248">
        <ele>1842.02</ele>
        <time>2015-09-11T07:55:11Z</time>
      </trkpt>
      <trkpt lat="42.25473" lon="8.92262">
        <ele>1843.47</ele>
        <time>2015-09-11T07:55:23Z</time>
      </trkpt>
      <trkpt lat="42.25469" lon="8.92273">
        <ele>1843.95</ele>
        <time>2015-09-11T07:55:32Z</time>
      </trkpt>
      <trkpt lat="42.25464" lon="8.92287">
        <ele>1844.91</ele>
        <time>2015-09-11T07:55:45Z</time>
      </trkpt>
      <trkpt lat="42.25458" lon="8.92308">
        <ele>1846.35</ele>
        <time>2015-09-11T07:56:03Z</time>
      </trkpt>
      <trkpt lat="42.25456" lon="8.92316">
        <ele>1846.83</ele>
        <time>2015-09-11T07:56:10Z</time>
      </trkpt>
      <trkpt lat="42.25455" lon="8.92321">
        <ele>1847.31</ele>
        <time>2015-09-11T07:56:13Z</time>
      </trkpt>
      <trkpt lat="42.25454" lon="8.92338">
        <ele>1848.27</ele>
        <time>2015-09-11T07:56:27Z</time>
      </trkpt>
      <trkpt lat="42.25451" lon="8.92348">
        <ele>1849.71</ele>
        <time>2015-09-11T07:56:35Z</time>
      </trkpt>
      <trkpt lat="42.25451" lon="8.9235">
        <ele>1849.71</ele>
        <time>2015-09-11T07:56:37Z</time>
      </trkpt>
      <trkpt lat="42.2545" lon="8.92357">
        <ele>1850.19</ele>
        <time>2015-09-11T07:56:42Z</time>
      </trkpt>
      <trkpt lat="42.25449" lon="8.92363">
        <ele>1851.16</ele>
        <time>2015-09-11T07:56:47Z</time>
      </trkpt>
      <trkpt lat="42.25442" lon="8.9238">
        <ele>1851.16</ele>
        <time>2015-09-11T07:57:00Z</time>
      </trkpt>
      <trkpt lat="42.2544" lon="8.9239">
        <ele>1852.12</ele>
        <time>2015-09-11T07:57:08Z</time>
      </trkpt>
      <trkpt lat="42.25438" lon="8.92396">
        <ele>1852.6</ele>
        <time>2015-09-11T07:57:12Z</time>
      </trkpt>
      <trkpt lat="42.25438" lon="8.924">
        <ele>1853.08</ele>
        <time>2015-09-11T07:57:15Z</time>
      </trkpt>
      <trkpt lat="42.25436" lon="8.92416">
        <ele>1855.96</ele>
        <time>2015-09-11T07:57:28Z</time>
      </trkpt>
      <trkpt lat="42.25435" lon="8.92429">
        <ele>1856.44</ele>
        <time>2015-09-11T07:57:37Z</time>
      </trkpt>
      <trkpt lat="42.25431" lon="8.92452">
        <ele>1858.37</ele>
        <time>2015-09-11T07:57:53Z</time>
      </trkpt>
      <trkpt lat="42.25431" lon="8.92453">
        <ele>1858.85</ele>
        <time>2015-09-11T07:57:54Z</time>
      </trkpt>
      <trkpt lat="42.25429" lon="8.92459">
        <ele>1858.85</ele>
        <time>2015-09-11T07:57:58Z</time>
      </trkpt>
      <trkpt lat="42.25429" lon="8.92468">
        <ele>1859.81</ele>
        <time>2015-09-11T07:58:04Z</time>
      </trkpt>
      <trkpt lat="42.25425" lon="8.92488">
        <ele>1861.73</ele>
        <time>2015-09-11T07:58:19Z</time>
      </trkpt>
      <trkpt lat="42.25423" lon="8.92495">
        <ele>1862.21</ele>
        <time>2015-09-11T07:58:25Z</time>
      </trkpt>
      <trkpt lat="42.25423" lon="8.92499">
        <ele>1863.17</ele>
        <time>2015-09-11T07:58:28Z</time>
      </trkpt>
      <trkpt lat="42.25421" lon="8.92509">
        <ele>1864.61</ele>
        <time>2015-09-11T07:58:36Z</time>
      </trkpt>
      <trkpt lat="42.25419" lon="8.92517">
        <ele>1866.06</ele>
        <time>2015-09-11T07:58:44Z</time>
      </trkpt>
      <trkpt lat="42.2542" lon="8.92523">
        <ele>1867.02</ele>
        <time>2015-09-11T07:58:48Z</time>
      </trkpt>
      <trkpt lat="42.25419" lon="8.92527">
        <ele>1867.5</ele>
        <time>2015-09-11T07:58:51Z</time>
      </trkpt>
      <trkpt lat="42.25418" lon="8.92539">
        <ele>1869.42</ele>
        <time>2015-09-11T07:59:01Z</time>
      </trkpt>
      <trkpt lat="42.25419" lon="8.92545">
        <ele>1870.38</ele>
        <time>2015-09-11T07:59:06Z</time>
      </trkpt>
      <trkpt lat="42.2542" lon="8.92548">
        <ele>1870.86</ele>
        <time>2015-09-11T07:59:21Z</time>
      </trkpt>
      <trkpt lat="42.25421" lon="8.92551">
        <ele>1871.34</ele>
        <time>2015-09-11T07:59:35Z</time>
      </trkpt>
      <trkpt lat="42.25424" lon="8.92571">
        <ele>1872.79</ele>
        <time>2015-09-11T07:59:49Z</time>
      </trkpt>
      <trkpt lat="42.25425" lon="8.92586">
        <ele>1874.71</ele>
        <time>2015-09-11T08:00:01Z</time>
      </trkpt>
      <trkpt lat="42.25424" lon="8.92588">
        <ele>1875.19</ele>
        <time>2015-09-11T08:00:18Z</time>
      </trkpt>
      <trkpt lat="42.25424" lon="8.92588">
        <ele>1875.67</ele>
        <time>2015-09-11T08:00:40Z</time>
      </trkpt>
      <trkpt lat="42.25423" lon="8.92588">
        <ele>1875.67</ele>
        <time>2015-09-11T08:01:04Z</time>
      </trkpt>
      <trkpt lat="42.25423" lon="8.92588">
        <ele>1875.19</ele>
        <time>2015-09-11T08:01:29Z</time>
      </trkpt>
      <trkpt lat="42.25423" lon="8.92589">
        <ele>1875.67</ele>
        <time>2015-09-11T08:01:46Z</time>
      </trkpt>
      <trkpt lat="42.25424" lon="8.92587">
        <ele>1874.71</ele>
        <time>2015-09-11T08:01:58Z</time>
      </trkpt>
      <trkpt lat="42.25424" lon="8.92588">
        <ele>1875.19</ele>
        <time>2015-09-11T08:02:25Z</time>
      </trkpt>
      <trkpt lat="42.25424" lon="8.92588">
        <ele>1875.19</ele>
        <time>2015-09-11T08:02:46Z</time>
      </trkpt>
      <trkpt lat="42.25424" lon="8.92589">
        <ele>1875.19</ele>
        <time>2015-09-11T08:03:03Z</time>
      </trkpt>
      <trkpt lat="42.25424" lon="8.92589">
        <ele>1875.19</ele>
        <time>2015-09-11T08:03:23Z</time>
      </trkpt>
      <trkpt lat="42.25425" lon="8.92594">
        <ele>1875.67</ele>
        <time>2015-09-11T08:03:27Z</time>
      </trkpt>
      <trkpt lat="42.25429" lon="8.92616">
        <ele>1877.11</ele>
        <time>2015-09-11T08:03:41Z</time>
      </trkpt>
      <trkpt lat="42.25433" lon="8.92631">
        <ele>1878.07</ele>
        <time>2015-09-11T08:03:52Z</time>
      </trkpt>
      <trkpt lat="42.25433" lon="8.92634">
        <ele>1877.59</ele>
        <time>2015-09-11T08:04:05Z</time>
      </trkpt>
      <trkpt lat="42.25433" lon="8.92637">
        <ele>1878.07</ele>
        <time>2015-09-11T08:04:09Z</time>
      </trkpt>
      <trkpt lat="42.25434" lon="8.92658">
        <ele>1877.59</ele>
        <time>2015-09-11T08:04:24Z</time>
      </trkpt>
      <trkpt lat="42.25433" lon="8.92668">
        <ele>1877.11</ele>
        <time>2015-09-11T08:04:36Z</time>
      </trkpt>
      <trkpt lat="42.25433" lon="8.92669">
        <ele>1877.11</ele>
        <time>2015-09-11T08:04:42Z</time>
      </trkpt>
      <trkpt lat="42.25431" lon="8.92694">
        <ele>1874.71</ele>
        <time>2015-09-11T08:04:57Z</time>
      </trkpt>
      <trkpt lat="42.25432" lon="8.92715">
        <ele>1871.82</ele>
        <time>2015-09-11T08:05:11Z</time>
      </trkpt>
      <trkpt lat="42.25436" lon="8.92737">
        <ele>1869.9</ele>
        <time>2015-09-11T08:05:25Z</time>
      </trkpt>
      <trkpt lat="42.25436" lon="8.9274">
        <ele>1869.42</ele>
        <time>2015-09-11T08:05:27Z</time>
      </trkpt>
      <trkpt lat="42.25438" lon="8.92747">
        <ele>1868.46</ele>
        <time>2015-09-11T08:05:32Z</time>
      </trkpt>
      <trkpt lat="42.25445" lon="8.92765">
        <ele>1865.09</ele>
        <time>2015-09-11T08:05:45Z</time>
      </trkpt>
      <trkpt lat="42.25454" lon="8.92787">
        <ele>1862.21</ele>
        <time>2015-09-11T08:06:00Z</time>
      </trkpt>
      <trkpt lat="42.25456" lon="8.92795">
        <ele>1860.77</ele>
        <time>2015-09-11T08:06:06Z</time>
      </trkpt>
      <trkpt lat="42.25457" lon="8.92798">
        <ele>1859.81</ele>
        <time>2015-09-11T08:06:09Z</time>
      </trkpt>
      <trkpt lat="42.25463" lon="8.92811">
        <ele>1857.89</ele>
        <time>2015-09-11T08:06:19Z</time>
      </trkpt>
      <trkpt lat="42.25463" lon="8.92818">
        <ele>1857.4</ele>
        <time>2015-09-11T08:06:24Z</time>
      </trkpt>
      <trkpt lat="42.25466" lon="8.9283">
        <ele>1855.96</ele>
        <time>2015-09-11T08:06:32Z</time>
      </trkpt>
      <trkpt lat="42.25468" lon="8.92849">
        <ele>1853.56</ele>
        <time>2015-09-11T08:06:45Z</time>
      </trkpt>
      <trkpt lat="42.25469" lon="8.92872">
        <ele>1850.19</ele>
        <time>2015-09-11T08:06:58Z</time>
      </trkpt>
      <trkpt lat="42.25473" lon="8.92894">
        <ele>1849.23</ele>
        <time>2015-09-11T08:07:12Z</time>
      </trkpt>
      <trkpt lat="42.25475" lon="8.9292">
        <ele>1848.27</ele>
        <time>2015-09-11T08:07:28Z</time>
      </trkpt>
      <trkpt lat="42.25479" lon="8.9294">
        <ele>1847.31</ele>
        <time>2015-09-11T08:07:39Z</time>
      </trkpt>
      <trkpt lat="42.2548" lon="8.92964">
        <ele>1846.35</ele>
        <time>2015-09-11T08:07:53Z</time>
      </trkpt>
      <trkpt lat="42.25481" lon="8.92991">
        <ele>1845.39</ele>
        <time>2015-09-11T08:08:09Z</time>
      </trkpt>
      <trkpt lat="42.25484" lon="8.93">
        <ele>1845.39</ele>
        <time>2015-09-11T08:08:15Z</time>
      </trkpt>
      <trkpt lat="42.25485" lon="8.93023">
        <ele>1845.39</ele>
        <time>2015-09-11T08:08:29Z</time>
      </trkpt>
      <trkpt lat="42.25485" lon="8.93025">
        <ele>1845.39</ele>
        <time>2015-09-11T08:08:37Z</time>
      </trkpt>
      <trkpt lat="42.25486" lon="8.93028">
        <ele>1845.39</ele>
        <time>2015-09-11T08:08:39Z</time>
      </trkpt>
      <trkpt lat="42.25485" lon="8.93061">
        <ele>1844.91</ele>
        <time>2015-09-11T08:08:57Z</time>
      </trkpt>
      <trkpt lat="42.25486" lon="8.93083">
        <ele>1844.43</ele>
        <time>2015-09-11T08:09:10Z</time>
      </trkpt>
      <trkpt lat="42.25483" lon="8.93096">
        <ele>1843.95</ele>
        <time>2015-09-11T08:09:17Z</time>
      </trkpt>
      <trkpt lat="42.25482" lon="8.93111">
        <ele>1843.47</ele>
        <time>2015-09-11T08:09:26Z</time>
      </trkpt>
      <trkpt lat="42.25481" lon="8.93122">
        <ele>1843.47</ele>
        <time>2015-09-11T08:09:32Z</time>
      </trkpt>
      <trkpt lat="42.25476" lon="8.93145">
        <ele>1843.47</ele>
        <time>2015-09-11T08:09:46Z</time>
      </trkpt>
      <trkpt lat="42.25478" lon="8.93162">
        <ele>1842.02</ele>
        <time>2015-09-11T08:09:57Z</time>
      </trkpt>
      <trkpt lat="42.25486" lon="8.93183">
        <ele>1842.02</ele>
        <time>2015-09-11T08:10:11Z</time>
      </trkpt>
      <trkpt lat="42.25489" lon="8.93191">
        <ele>1841.54</ele>
        <time>2015-09-11T08:10:16Z</time>
      </trkpt>
      <trkpt lat="42.2549" lon="8.93197">
        <ele>1841.06</ele>
        <time>2015-09-11T08:10:20Z</time>
      </trkpt>
      <trkpt lat="42.25496" lon="8.9322">
        <ele>1841.54</ele>
        <time>2015-09-11T08:10:34Z</time>
      </trkpt>
      <trkpt lat="42.25508" lon="8.9324">
        <ele>1841.06</ele>
        <time>2015-09-11T08:10:50Z</time>
      </trkpt>
      <trkpt lat="42.25513" lon="8.93262">
        <ele>1840.58</ele>
        <time>2015-09-11T08:11:04Z</time>
      </trkpt>
      <trkpt lat="42.25514" lon="8.93264">
        <ele>1840.58</ele>
        <time>2015-09-11T08:11:06Z</time>
      </trkpt>
      <trkpt lat="42.25516" lon="8.93282">
        <ele>1841.06</ele>
        <time>2015-09-11T08:11:20Z</time>
      </trkpt>
      <trkpt lat="42.25519" lon="8.93301">
        <ele>1838.18</ele>
        <time>2015-09-11T08:11:33Z</time>
      </trkpt>
      <trkpt lat="42.2552" lon="8.93305">
        <ele>1837.7</ele>
        <time>2015-09-11T08:11:36Z</time>
      </trkpt>
      <trkpt lat="42.2553" lon="8.93316">
        <ele>1837.7</ele>
        <time>2015-09-11T08:11:50Z</time>
      </trkpt>
      <trkpt lat="42.25529" lon="8.93316">
        <ele>1837.7</ele>
        <time>2015-09-11T08:12:11Z</time>
      </trkpt>
      <trkpt lat="42.2553" lon="8.93316">
        <ele>1838.18</ele>
        <time>2015-09-11T08:12:37Z</time>
      </trkpt>
      <trkpt lat="42.25529" lon="8.93318">
        <ele>1837.7</ele>
        <time>2015-09-11T08:12:45Z</time>
      </trkpt>
      <trkpt lat="42.25527" lon="8.93322">
        <ele>1836.74</ele>
        <time>2015-09-11T08:12:49Z</time>
      </trkpt>
      <trkpt lat="42.25523" lon="8.93328">
        <ele>1837.22</ele>
        <time>2015-09-11T08:12:56Z</time>
      </trkpt>
      <trkpt lat="42.2552" lon="8.93337">
        <ele>1837.22</ele>
        <time>2015-09-11T08:13:02Z</time>
      </trkpt>
      <trkpt lat="42.25517" lon="8.93343">
        <ele>1836.26</ele>
        <time>2015-09-11T08:13:07Z</time>
      </trkpt>
      <trkpt lat="42.25516" lon="8.93345">
        <ele>1836.26</ele>
        <time>2015-09-11T08:13:09Z</time>
      </trkpt>
      <trkpt lat="42.25515" lon="8.93364">
        <ele>1833.85</ele>
        <time>2015-09-11T08:13:23Z</time>
      </trkpt>
      <trkpt lat="42.25512" lon="8.93376">
        <ele>1832.89</ele>
        <time>2015-09-11T08:13:31Z</time>
      </trkpt>
      <trkpt lat="42.25513" lon="8.93381">
        <ele>1832.41</ele>
        <time>2015-09-11T08:13:38Z</time>
      </trkpt>
      <trkpt lat="42.25518" lon="8.93376">
        <ele>1831.45</ele>
        <time>2015-09-11T08:13:44Z</time>
      </trkpt>
      <trkpt lat="42.25523" lon="8.93369">
        <ele>1830.49</ele>
        <time>2015-09-11T08:13:52Z</time>
      </trkpt>
      <trkpt lat="42.25528" lon="8.93372">
        <ele>1829.05</ele>
        <time>2015-09-11T08:14:00Z</time>
      </trkpt>
      <trkpt lat="42.25531" lon="8.93372">
        <ele>1828.56</ele>
        <time>2015-09-11T08:14:03Z</time>
      </trkpt>
      <trkpt lat="42.25536" lon="8.93377">
        <ele>1827.6</ele>
        <time>2015-09-11T08:14:11Z</time>
      </trkpt>
      <trkpt lat="42.25538" lon="8.93384">
        <ele>1826.64</ele>
        <time>2015-09-11T08:14:18Z</time>
      </trkpt>
      <trkpt lat="42.25546" lon="8.93396">
        <ele>1824.24</ele>
        <time>2015-09-11T08:14:33Z</time>
      </trkpt>
      <trkpt lat="42.25553" lon="8.934">
        <ele>1821.84</ele>
        <time>2015-09-11T08:14:46Z</time>
      </trkpt>
      <trkpt lat="42.25555" lon="8.93408">
        <ele>1820.39</ele>
        <time>2015-09-11T08:14:54Z</time>
      </trkpt>
      <trkpt lat="42.25555" lon="8.93413">
        <ele>1818.95</ele>
        <time>2015-09-11T08:15:06Z</time>
      </trkpt>
      <trkpt lat="42.25555" lon="8.93414">
        <ele>1818.95</ele>
        <time>2015-09-11T08:15:28Z</time>
      </trkpt>
      <trkpt lat="42.25555" lon="8.9342">
        <ele>1817.03</ele>
        <time>2015-09-11T08:15:38Z</time>
      </trkpt>
      <trkpt lat="42.25557" lon="8.93428">
        <ele>1814.15</ele>
        <time>2015-09-11T08:15:50Z</time>
      </trkpt>
      <trkpt lat="42.25557" lon="8.93429">
        <ele>1814.15</ele>
        <time>2015-09-11T08:15:51Z</time>
      </trkpt>
      <trkpt lat="42.25559" lon="8.93435">
        <ele>1812.22</ele>
        <time>2015-09-11T08:15:59Z</time>
      </trkpt>
      <trkpt lat="42.25562" lon="8.93437">
        <ele>1811.74</ele>
        <time>2015-09-11T08:16:03Z</time>
      </trkpt>
      <trkpt lat="42.25561" lon="8.93442">
        <ele>1811.26</ele>
        <time>2015-09-11T08:16:06Z</time>
      </trkpt>
      <trkpt lat="42.25558" lon="8.93446">
        <ele>1810.78</ele>
        <time>2015-09-11T08:16:11Z</time>
      </trkpt>
      <trkpt lat="42.25556" lon="8.93447">
        <ele>1809.82</ele>
        <time>2015-09-11T08:16:14Z</time>
      </trkpt>
      <trkpt lat="42.25554" lon="8.93452">
        <ele>1809.82</ele>
        <time>2015-09-11T08:16:18Z</time>
      </trkpt>
      <trkpt lat="42.25548" lon="8.93465">
        <ele>1808.38</ele>
        <time>2015-09-11T08:16:30Z</time>
      </trkpt>
      <trkpt lat="42.25548" lon="8.93467">
        <ele>1807.9</ele>
        <time>2015-09-11T08:16:32Z</time>
      </trkpt>
      <trkpt lat="42.25546" lon="8.93473">
        <ele>1807.42</ele>
        <time>2015-09-11T08:16:37Z</time>
      </trkpt>
      <trkpt lat="42.25543" lon="8.9348">
        <ele>1806.45</ele>
        <time>2015-09-11T08:16:44Z</time>
      </trkpt>
      <trkpt lat="42.25539" lon="8.93492">
        <ele>1804.53</ele>
        <time>2015-09-11T08:16:57Z</time>
      </trkpt>
      <trkpt lat="42.25538" lon="8.93498">
        <ele>1803.57</ele>
        <time>2015-09-11T08:17:04Z</time>
      </trkpt>
      <trkpt lat="42.25541" lon="8.93506">
        <ele>1803.09</ele>
        <time>2015-09-11T08:17:14Z</time>
      </trkpt>
      <trkpt lat="42.25545" lon="8.93514">
        <ele>1800.69</ele>
        <time>2015-09-11T08:17:25Z</time>
      </trkpt>
      <trkpt lat="42.25543" lon="8.93524">
        <ele>1798.76</ele>
        <time>2015-09-11T08:17:35Z</time>
      </trkpt>
      <trkpt lat="42.25539" lon="8.93538">
        <ele>1796.84</ele>
        <time>2015-09-11T08:17:48Z</time>
      </trkpt>
      <trkpt lat="42.25538" lon="8.93539">
        <ele>1796.84</ele>
        <time>2015-09-11T08:17:49Z</time>
      </trkpt>
      <trkpt lat="42.25532" lon="8.93548">
        <ele>1795.88</ele>
        <time>2015-09-11T08:18:02Z</time>
      </trkpt>
      <trkpt lat="42.25533" lon="8.93548">
        <ele>1795.88</ele>
        <time>2015-09-11T08:18:03Z</time>
      </trkpt>
      <trkpt lat="42.25542" lon="8.9355">
        <ele>1794.44</ele>
        <time>2015-09-11T08:18:15Z</time>
      </trkpt>
      <trkpt lat="42.2555" lon="8.93553">
        <ele>1793</ele>
        <time>2015-09-11T08:18:28Z</time>
      </trkpt>
      <trkpt lat="42.25549" lon="8.93555">
        <ele>1792.52</ele>
        <time>2015-09-11T08:18:30Z</time>
      </trkpt>
      <trkpt lat="42.2555" lon="8.93564">
        <ele>1791.07</ele>
        <time>2015-09-11T08:18:39Z</time>
      </trkpt>
      <trkpt lat="42.2555" lon="8.93567">
        <ele>1791.07</ele>
        <time>2015-09-11T08:18:42Z</time>
      </trkpt>
      <trkpt lat="42.2555" lon="8.9357">
        <ele>1790.59</ele>
        <time>2015-09-11T08:18:44Z</time>
      </trkpt>
      <trkpt lat="42.2555" lon="8.93572">
        <ele>1791.07</ele>
        <time>2015-09-11T08:18:47Z</time>
      </trkpt>
      <trkpt lat="42.2555" lon="8.93577">
        <ele>1790.11</ele>
        <time>2015-09-11T08:18:51Z</time>
      </trkpt>
      <trkpt lat="42.25551" lon="8.93583">
        <ele>1789.15</ele>
        <time>2015-09-11T08:18:56Z</time>
      </trkpt>
      <trkpt lat="42.25552" lon="8.93587">
        <ele>1788.67</ele>
        <time>2015-09-11T08:18:59Z</time>
      </trkpt>
      <trkpt lat="42.25552" lon="8.93591">
        <ele>1788.67</ele>
        <time>2015-09-11T08:19:02Z</time>
      </trkpt>
      <trkpt lat="42.25555" lon="8.93597">
        <ele>1787.71</ele>
        <time>2015-09-11T08:19:07Z</time>
      </trkpt>
      <trkpt lat="42.25553" lon="8.93605">
        <ele>1786.75</ele>
        <time>2015-09-11T08:19:13Z</time>
      </trkpt>
      <trkpt lat="42.25558" lon="8.93614">
        <ele>1785.31</ele>
        <time>2015-09-11T08:19:22Z</time>
      </trkpt>
      <trkpt lat="42.25561" lon="8.93619">
        <ele>1783.86</ele>
        <time>2015-09-11T08:19:28Z</time>
      </trkpt>
      <trkpt lat="42.25562" lon="8.93633">
        <ele>1781.46</ele>
        <time>2015-09-11T08:19:43Z</time>
      </trkpt>
      <trkpt lat="42.25565" lon="8.9364">
        <ele>1780.02</ele>
        <time>2015-09-11T08:19:57Z</time>
      </trkpt>
      <trkpt lat="42.25566" lon="8.93646">
        <ele>1779.06</ele>
        <time>2015-09-11T08:20:10Z</time>
      </trkpt>
      <trkpt lat="42.25565" lon="8.93655">
        <ele>1778.58</ele>
        <time>2015-09-11T08:20:17Z</time>
      </trkpt>
      <trkpt lat="42.25564" lon="8.93663">
        <ele>1778.1</ele>
        <time>2015-09-11T08:20:23Z</time>
      </trkpt>
      <trkpt lat="42.25567" lon="8.9368">
        <ele>1775.69</ele>
        <time>2015-09-11T08:20:37Z</time>
      </trkpt>
      <trkpt lat="42.25566" lon="8.93694">
        <ele>1774.73</ele>
        <time>2015-09-11T08:20:49Z</time>
      </trkpt>
      <trkpt lat="42.25568" lon="8.93703">
        <ele>1774.25</ele>
        <time>2015-09-11T08:20:57Z</time>
      </trkpt>
      <trkpt lat="42.25569" lon="8.93705">
        <ele>1773.77</ele>
        <time>2015-09-11T08:20:59Z</time>
      </trkpt>
      <trkpt lat="42.25568" lon="8.93711">
        <ele>1773.29</ele>
        <time>2015-09-11T08:21:05Z</time>
      </trkpt>
      <trkpt lat="42.25574" lon="8.9372">
        <ele>1772.81</ele>
        <time>2015-09-11T08:21:18Z</time>
      </trkpt>
      <trkpt lat="42.25573" lon="8.93723">
        <ele>1772.33</ele>
        <time>2015-09-11T08:21:34Z</time>
      </trkpt>
      <trkpt lat="42.25574" lon="8.93723">
        <ele>1771.37</ele>
        <time>2015-09-11T08:21:44Z</time>
      </trkpt>
      <trkpt lat="42.25576" lon="8.93725">
        <ele>1770.41</ele>
        <time>2015-09-11T08:21:59Z</time>
      </trkpt>
      <trkpt lat="42.25573" lon="8.93732">
        <ele>1769.44</ele>
        <time>2015-09-11T08:22:07Z</time>
      </trkpt>
      <trkpt lat="42.25569" lon="8.93744">
        <ele>1767.52</ele>
        <time>2015-09-11T08:22:20Z</time>
      </trkpt>
      <trkpt lat="42.25568" lon="8.93748">
        <ele>1766.56</ele>
        <time>2015-09-11T08:22:41Z</time>
      </trkpt>
      <trkpt lat="42.25568" lon="8.93757">
        <ele>1763.68</ele>
        <time>2015-09-11T08:22:50Z</time>
      </trkpt>
      <trkpt lat="42.25567" lon="8.93758">
        <ele>1763.2</ele>
        <time>2015-09-11T08:22:51Z</time>
      </trkpt>
      <trkpt lat="42.25566" lon="8.93769">
        <ele>1761.27</ele>
        <time>2015-09-11T08:23:03Z</time>
      </trkpt>
      <trkpt lat="42.25566" lon="8.9377">
        <ele>1761.27</ele>
        <time>2015-09-11T08:23:04Z</time>
      </trkpt>
      <trkpt lat="42.25562" lon="8.93774">
        <ele>1760.79</ele>
        <time>2015-09-11T08:23:09Z</time>
      </trkpt>
      <trkpt lat="42.2556" lon="8.93784">
        <ele>1757.91</ele>
        <time>2015-09-11T08:23:21Z</time>
      </trkpt>
      <trkpt lat="42.25568" lon="8.93788">
        <ele>1755.5</ele>
        <time>2015-09-11T08:23:34Z</time>
      </trkpt>
      <trkpt lat="42.25574" lon="8.9379">
        <ele>1754.06</ele>
        <time>2015-09-11T08:23:41Z</time>
      </trkpt>
      <trkpt lat="42.25575" lon="8.93794">
        <ele>1754.06</ele>
        <time>2015-09-11T08:23:44Z</time>
      </trkpt>
      <trkpt lat="42.25572" lon="8.93798">
        <ele>1753.1</ele>
        <time>2015-09-11T08:23:50Z</time>
      </trkpt>
      <trkpt lat="42.25565" lon="8.93805">
        <ele>1751.66</ele>
        <time>2015-09-11T08:24:02Z</time>
      </trkpt>
      <trkpt lat="42.25556" lon="8.93816">
        <ele>1750.22</ele>
        <time>2015-09-11T08:24:14Z</time>
      </trkpt>
      <trkpt lat="42.25552" lon="8.93821">
        <ele>1748.78</ele>
        <time>2015-09-11T08:24:20Z</time>
      </trkpt>
      <trkpt lat="42.25547" lon="8.93831">
        <ele>1747.33</ele>
        <time>2015-09-11T08:24:30Z</time>
      </trkpt>
      <trkpt lat="42.25545" lon="8.93844">
        <ele>1746.85</ele>
        <time>2015-09-11T08:24:40Z</time>
      </trkpt>
      <trkpt lat="42.25544" lon="8.93858">
        <ele>1745.89</ele>
        <time>2015-09-11T08:24:49Z</time>
      </trkpt>
      <trkpt lat="42.25541" lon="8.93863">
        <ele>1745.41</ele>
        <time>2015-09-11T08:24:53Z</time>
      </trkpt>
      <trkpt lat="42.2554" lon="8.93876">
        <ele>1745.41</ele>
        <time>2015-09-11T08:25:02Z</time>
      </trkpt>
      <trkpt lat="42.25539" lon="8.93879">
        <ele>1745.41</ele>
        <time>2015-09-11T08:25:04Z</time>
      </trkpt>
      <trkpt lat="42.25532" lon="8.93888">
        <ele>1744.93</ele>
        <time>2015-09-11T08:25:14Z</time>
      </trkpt>
      <trkpt lat="42.25531" lon="8.93888">
        <ele>1745.89</ele>
        <time>2015-09-11T08:25:30Z</time>
      </trkpt>
      <trkpt lat="42.25532" lon="8.93888">
        <ele>1745.89</ele>
        <time>2015-09-11T08:25:31Z</time>
      </trkpt>
      <trkpt lat="42.25532" lon="8.93886">
        <ele>1745.41</ele>
        <time>2015-09-11T08:25:55Z</time>
      </trkpt>
      <trkpt lat="42.25531" lon="8.93886">
        <ele>1744.93</ele>
        <time>2015-09-11T08:26:11Z</time>
      </trkpt>
      <trkpt lat="42.25531" lon="8.93886">
        <ele>1744.93</ele>
        <time>2015-09-11T08:26:38Z</time>
      </trkpt>
      <trkpt lat="42.25531" lon="8.93887">
        <ele>1744.45</ele>
        <time>2015-09-11T08:26:54Z</time>
      </trkpt>
      <trkpt lat="42.25532" lon="8.93887">
        <ele>1743.97</ele>
        <time>2015-09-11T08:27:21Z</time>
      </trkpt>
      <trkpt lat="42.25532" lon="8.93887">
        <ele>1743.97</ele>
        <time>2015-09-11T08:27:50Z</time>
      </trkpt>
      <trkpt lat="42.25533" lon="8.93888">
        <ele>1743.97</ele>
        <time>2015-09-11T08:28:19Z</time>
      </trkpt>
      <trkpt lat="42.25533" lon="8.93888">
        <ele>1741.08</ele>
        <time>2015-09-11T08:28:46Z</time>
      </trkpt>
      <trkpt lat="42.25533" lon="8.93888">
        <ele>1743.97</ele>
        <time>2015-09-11T08:28:47Z</time>
      </trkpt>
      <trkpt lat="42.25533" lon="8.93888">
        <ele>1743.97</ele>
        <time>2015-09-11T08:29:11Z</time>
      </trkpt>
      <trkpt lat="42.25533" lon="8.93888">
        <ele>1743.97</ele>
        <time>2015-09-11T08:29:36Z</time>
      </trkpt>
      <trkpt lat="42.25533" lon="8.93888">
        <ele>1743.97</ele>
        <time>2015-09-11T08:30:06Z</time>
      </trkpt>
      <trkpt lat="42.25533" lon="8.93888">
        <ele>1743.97</ele>
        <time>2015-09-11T08:30:42Z</time>
      </trkpt>
      <trkpt lat="42.25533" lon="8.93888">
        <ele>1743.97</ele>
        <time>2015-09-11T08:31:18Z</time>
      </trkpt>
      <trkpt lat="42.25533" lon="8.93888">
        <ele>1743.97</ele>
        <time>2015-09-11T08:31:51Z</time>
      </trkpt>
      <trkpt lat="42.25533" lon="8.93888">
        <ele>1743.97</ele>
        <time>2015-09-11T08:32:24Z</time>
      </trkpt>
      <trkpt lat="42.25533" lon="8.93888">
        <ele>1743.97</ele>
        <time>2015-09-11T08:33:00Z</time>
      </trkpt>
      <trkpt lat="42.25533" lon="8.93888">
        <ele>1743.97</ele>
        <time>2015-09-11T08:33:39Z</time>
      </trkpt>
      <trkpt lat="42.25533" lon="8.93888">
        <ele>1743.97</ele>
        <time>2015-09-11T08:34:15Z</time>
      </trkpt>
      <trkpt lat="42.25533" lon="8.93888">
        <ele>1743.97</ele>
        <time>2015-09-11T08:34:51Z</time>
      </trkpt>
      <trkpt lat="42.25532" lon="8.93888">
        <ele>1743.97</ele>
        <time>2015-09-11T08:35:29Z</time>
      </trkpt>
      <trkpt lat="42.25532" lon="8.93888">
        <ele>1743.97</ele>
        <time>2015-09-11T08:36:04Z</time>
      </trkpt>
      <trkpt lat="42.25532" lon="8.93889">
        <ele>1743.97</ele>
        <time>2015-09-11T08:36:42Z</time>
      </trkpt>
      <trkpt lat="42.25532" lon="8.93888">
        <ele>1743.97</ele>
        <time>2015-09-11T08:37:21Z</time>
      </trkpt>
      <trkpt lat="42.25532" lon="8.93888">
        <ele>1743.49</ele>
        <time>2015-09-11T08:37:56Z</time>
      </trkpt>
      <trkpt lat="42.25532" lon="8.93888">
        <ele>1743.97</ele>
        <time>2015-09-11T08:38:35Z</time>
      </trkpt>
      <trkpt lat="42.25532" lon="8.93888">
        <ele>1743.49</ele>
        <time>2015-09-11T08:39:10Z</time>
      </trkpt>
      <trkpt lat="42.25532" lon="8.93888">
        <ele>1743.49</ele>
        <time>2015-09-11T08:39:40Z</time>
      </trkpt>
      <trkpt lat="42.25532" lon="8.93888">
        <ele>1743.49</ele>
        <time>2015-09-11T08:40:11Z</time>
      </trkpt>
      <trkpt lat="42.25532" lon="8.93888">
        <ele>1743.49</ele>
        <time>2015-09-11T08:40:47Z</time>
      </trkpt>
      <trkpt lat="42.25532" lon="8.93888">
        <ele>1743.97</ele>
        <time>2015-09-11T08:41:24Z</time>
      </trkpt>
      <trkpt lat="42.25532" lon="8.93888">
        <ele>1743.49</ele>
        <time>2015-09-11T08:41:54Z</time>
      </trkpt>
      <trkpt lat="42.25532" lon="8.93888">
        <ele>1743.97</ele>
        <time>2015-09-11T08:42:24Z</time>
      </trkpt>
      <trkpt lat="42.25532" lon="8.93888">
        <ele>1743.97</ele>
        <time>2015-09-11T08:42:55Z</time>
      </trkpt>
      <trkpt lat="42.25532" lon="8.93888">
        <ele>1743.97</ele>
        <time>2015-09-11T08:43:26Z</time>
      </trkpt>
      <trkpt lat="42.25532" lon="8.93888">
        <ele>1743.49</ele>
        <time>2015-09-11T08:43:57Z</time>
      </trkpt>
      <trkpt lat="42.25532" lon="8.93888">
        <ele>1743.97</ele>
        <time>2015-09-11T08:44:27Z</time>
      </trkpt>
      <trkpt lat="42.25532" lon="8.93888">
        <ele>1743.97</ele>
        <time>2015-09-11T08:45:04Z</time>
      </trkpt>
      <trkpt lat="42.25531" lon="8.93888">
        <ele>1743.97</ele>
        <time>2015-09-11T08:45:34Z</time>
      </trkpt>
      <trkpt lat="42.25532" lon="8.93887">
        <ele>1743.97</ele>
        <time>2015-09-11T08:46:01Z</time>
      </trkpt>
      <trkpt lat="42.25532" lon="8.93888">
        <ele>1744.45</ele>
        <time>2015-09-11T08:46:34Z</time>
      </trkpt>
      <trkpt lat="42.25532" lon="8.93888">
        <ele>1743.49</ele>
        <time>2015-09-11T08:47:02Z</time>
      </trkpt>
      <trkpt lat="42.25532" lon="8.93888">
        <ele>1743.49</ele>
        <time>2015-09-11T08:47:30Z</time>
      </trkpt>
      <trkpt lat="42.25532" lon="8.93888">
        <ele>1743.97</ele>
        <time>2015-09-11T08:48:02Z</time>
      </trkpt>
      <trkpt lat="42.25532" lon="8.93888">
        <ele>1743.97</ele>
        <time>2015-09-11T08:48:35Z</time>
      </trkpt>
      <trkpt lat="42.25532" lon="8.93888">
        <ele>1743.97</ele>
        <time>2015-09-11T08:49:10Z</time>
      </trkpt>
      <trkpt lat="42.25532" lon="8.93888">
        <ele>1743.97</ele>
        <time>2015-09-11T08:49:40Z</time>
      </trkpt>
      <trkpt lat="42.25532" lon="8.93888">
        <ele>1743.97</ele>
        <time>2015-09-11T08:50:05Z</time>
      </trkpt>
      <trkpt lat="42.25532" lon="8.93888">
        <ele>1747.81</ele>
        <time>2015-09-11T08:50:16Z</time>
      </trkpt>
      <trkpt lat="42.25532" lon="8.93888">
        <ele>1745.41</ele>
        <time>2015-09-11T08:50:17Z</time>
      </trkpt>
      <trkpt lat="42.25532" lon="8.93886">
        <ele>1744.93</ele>
        <time>2015-09-11T08:50:30Z</time>
      </trkpt>
      <trkpt lat="42.25533" lon="8.93885">
        <ele>1744.45</ele>
        <time>2015-09-11T08:50:50Z</time>
      </trkpt>
      <trkpt lat="42.25533" lon="8.93886">
        <ele>1746.37</ele>
        <time>2015-09-11T08:51:09Z</time>
      </trkpt>
      <trkpt lat="42.25533" lon="8.93886">
        <ele>1747.33</ele>
        <time>2015-09-11T08:51:33Z</time>
      </trkpt>
      <trkpt lat="42.25532" lon="8.93887">
        <ele>1747.33</ele>
        <time>2015-09-11T08:52:03Z</time>
      </trkpt>
      <trkpt lat="42.25535" lon="8.93883">
        <ele>1745.41</ele>
        <time>2015-09-11T08:52:15Z</time>
      </trkpt>
      <trkpt lat="42.25536" lon="8.93883">
        <ele>1745.41</ele>
        <time>2015-09-11T08:52:16Z</time>
      </trkpt>
      <trkpt lat="42.25546" lon="8.93873">
        <ele>1745.41</ele>
        <time>2015-09-11T08:52:29Z</time>
      </trkpt>
      <trkpt lat="42.25546" lon="8.93873">
        <ele>1745.89</ele>
        <time>2015-09-11T08:52:33Z</time>
      </trkpt>
      <trkpt lat="42.25551" lon="8.93869">
        <ele>1745.41</ele>
        <time>2015-09-11T08:52:46Z</time>
      </trkpt>
      <trkpt lat="42.25552" lon="8.93869">
        <ele>1745.41</ele>
        <time>2015-09-11T08:52:56Z</time>
      </trkpt>
      <trkpt lat="42.25554" lon="8.93868">
        <ele>1745.41</ele>
        <time>2015-09-11T08:52:58Z</time>
      </trkpt>
      <trkpt lat="42.25556" lon="8.93868">
        <ele>1745.41</ele>
        <time>2015-09-11T08:53:00Z</time>
      </trkpt>
      <trkpt lat="42.25567" lon="8.9386">
        <ele>1745.89</ele>
        <time>2015-09-11T08:53:14Z</time>
      </trkpt>
      <trkpt lat="42.25568" lon="8.93859">
        <ele>1745.41</ele>
        <time>2015-09-11T08:53:22Z</time>
      </trkpt>
      <trkpt lat="42.25577" lon="8.9385">
        <ele>1744.93</ele>
        <time>2015-09-11T08:53:32Z</time>
      </trkpt>
      <trkpt lat="42.25585" lon="8.93838">
        <ele>1744.93</ele>
        <time>2015-09-11T08:53:42Z</time>
      </trkpt>
      <trkpt lat="42.25589" lon="8.93834">
        <ele>1744.93</ele>
        <time>2015-09-11T08:53:47Z</time>
      </trkpt>
      <trkpt lat="42.25605" lon="8.93832">
        <ele>1744.93</ele>
        <time>2015-09-11T08:54:01Z</time>
      </trkpt>
      <trkpt lat="42.25607" lon="8.93831">
        <ele>1744.93</ele>
        <time>2015-09-11T08:54:03Z</time>
      </trkpt>
      <trkpt lat="42.25614" lon="8.9382">
        <ele>1745.41</ele>
        <time>2015-09-11T08:54:13Z</time>
      </trkpt>
      <trkpt lat="42.25619" lon="8.93816">
        <ele>1746.85</ele>
        <time>2015-09-11T08:54:25Z</time>
      </trkpt>
      <trkpt lat="42.2562" lon="8.93814">
        <ele>1746.37</ele>
        <time>2015-09-11T08:54:38Z</time>
      </trkpt>
      <trkpt lat="42.25619" lon="8.93814">
        <ele>1746.37</ele>
        <time>2015-09-11T08:54:56Z</time>
      </trkpt>
      <trkpt lat="42.2562" lon="8.93814">
        <ele>1746.37</ele>
        <time>2015-09-11T08:55:27Z</time>
      </trkpt>
      <trkpt lat="42.25621" lon="8.93815">
        <ele>1746.85</ele>
        <time>2015-09-11T08:55:28Z</time>
      </trkpt>
      <trkpt lat="42.25621" lon="8.93818">
        <ele>1746.85</ele>
        <time>2015-09-11T08:55:30Z</time>
      </trkpt>
      <trkpt lat="42.25625" lon="8.93826">
        <ele>1746.37</ele>
        <time>2015-09-11T08:55:36Z</time>
      </trkpt>
      <trkpt lat="42.25637" lon="8.93833">
        <ele>1745.41</ele>
        <time>2015-09-11T08:55:50Z</time>
      </trkpt>
      <trkpt lat="42.25641" lon="8.93834">
        <ele>1745.41</ele>
        <time>2015-09-11T08:55:54Z</time>
      </trkpt>
      <trkpt lat="42.25643" lon="8.93835">
        <ele>1745.41</ele>
        <time>2015-09-11T08:55:56Z</time>
      </trkpt>
      <trkpt lat="42.25646" lon="8.93832">
        <ele>1744.93</ele>
        <time>2015-09-11T08:56:00Z</time>
      </trkpt>
      <trkpt lat="42.25655" lon="8.93846">
        <ele>1745.41</ele>
        <time>2015-09-11T08:56:13Z</time>
      </trkpt>
      <trkpt lat="42.25661" lon="8.93857">
        <ele>1745.41</ele>
        <time>2015-09-11T08:56:27Z</time>
      </trkpt>
      <trkpt lat="42.25661" lon="8.93859">
        <ele>1745.41</ele>
        <time>2015-09-11T08:56:31Z</time>
      </trkpt>
      <trkpt lat="42.25662" lon="8.93859">
        <ele>1744.93</ele>
        <time>2015-09-11T08:56:45Z</time>
      </trkpt>
      <trkpt lat="42.25663" lon="8.93859">
        <ele>1744.93</ele>
        <time>2015-09-11T08:56:46Z</time>
      </trkpt>
      <trkpt lat="42.25671" lon="8.93863">
        <ele>1745.41</ele>
        <time>2015-09-11T08:56:53Z</time>
      </trkpt>
      <trkpt lat="42.25675" lon="8.93866">
        <ele>1745.41</ele>
        <time>2015-09-11T08:56:57Z</time>
      </trkpt>
      <trkpt lat="42.25678" lon="8.93869">
        <ele>1745.89</ele>
        <time>2015-09-11T08:57:00Z</time>
      </trkpt>
      <trkpt lat="42.25686" lon="8.93885">
        <ele>1745.89</ele>
        <time>2015-09-11T08:57:13Z</time>
      </trkpt>
      <trkpt lat="42.2569" lon="8.93894">
        <ele>1745.89</ele>
        <time>2015-09-11T08:57:19Z</time>
      </trkpt>
      <trkpt lat="42.25691" lon="8.93901">
        <ele>1745.89</ele>
        <time>2015-09-11T08:57:31Z</time>
      </trkpt>
      <trkpt lat="42.25694" lon="8.93907">
        <ele>1746.37</ele>
        <time>2015-09-11T08:57:35Z</time>
      </trkpt>
      <trkpt lat="42.25697" lon="8.93912">
        <ele>1746.37</ele>
        <time>2015-09-11T08:57:42Z</time>
      </trkpt>
      <trkpt lat="42.25698" lon="8.93916">
        <ele>1746.37</ele>
        <time>2015-09-11T08:57:45Z</time>
      </trkpt>
      <trkpt lat="42.25701" lon="8.93925">
        <ele>1746.85</ele>
        <time>2015-09-11T08:57:51Z</time>
      </trkpt>
      <trkpt lat="42.25697" lon="8.93932">
        <ele>1746.37</ele>
        <time>2015-09-11T08:57:56Z</time>
      </trkpt>
      <trkpt lat="42.25693" lon="8.93936">
        <ele>1746.37</ele>
        <time>2015-09-11T08:58:00Z</time>
      </trkpt>
      <trkpt lat="42.2569" lon="8.93943">
        <ele>1745.89</ele>
        <time>2015-09-11T08:58:07Z</time>
      </trkpt>
      <trkpt lat="42.25694" lon="8.93942">
        <ele>1746.37</ele>
        <time>2015-09-11T08:58:20Z</time>
      </trkpt>
      <trkpt lat="42.25693" lon="8.93941">
        <ele>1745.89</ele>
        <time>2015-09-11T08:58:34Z</time>
      </trkpt>
      <trkpt lat="42.25692" lon="8.9394">
        <ele>1744.93</ele>
        <time>2015-09-11T08:58:36Z</time>
      </trkpt>
      <trkpt lat="42.2569" lon="8.93941">
        <ele>1745.41</ele>
        <time>2015-09-11T08:58:38Z</time>
      </trkpt>
      <trkpt lat="42.2568" lon="8.93952">
        <ele>1746.37</ele>
        <time>2015-09-11T08:58:48Z</time>
      </trkpt>
      <trkpt lat="42.25677" lon="8.9396">
        <ele>1745.41</ele>
        <time>2015-09-11T08:58:54Z</time>
      </trkpt>
      <trkpt lat="42.25674" lon="8.93966">
        <ele>1745.41</ele>
        <time>2015-09-11T08:59:00Z</time>
      </trkpt>
      <trkpt lat="42.25672" lon="8.93969">
        <ele>1744.93</ele>
        <time>2015-09-11T08:59:03Z</time>
      </trkpt>
      <trkpt lat="42.25669" lon="8.93975">
        <ele>1745.41</ele>
        <time>2015-09-11T08:59:09Z</time>
      </trkpt>
      <trkpt lat="42.25669" lon="8.93979">
        <ele>1745.41</ele>
        <time>2015-09-11T08:59:22Z</time>
      </trkpt>
      <trkpt lat="42.25669" lon="8.93979">
        <ele>1745.41</ele>
        <time>2015-09-11T08:59:26Z</time>
      </trkpt>
      <trkpt lat="42.25667" lon="8.93989">
        <ele>1744.93</ele>
        <time>2015-09-11T08:59:32Z</time>
      </trkpt>
      <trkpt lat="42.25662" lon="8.93992">
        <ele>1745.41</ele>
        <time>2015-09-11T08:59:38Z</time>
      </trkpt>
      <trkpt lat="42.25665" lon="8.94004">
        <ele>1745.89</ele>
        <time>2015-09-11T08:59:46Z</time>
      </trkpt>
      <trkpt lat="42.25665" lon="8.94013">
        <ele>1745.89</ele>
        <time>2015-09-11T08:59:51Z</time>
      </trkpt>
      <trkpt lat="42.2566" lon="8.94035">
        <ele>1745.89</ele>
        <time>2015-09-11T09:00:04Z</time>
      </trkpt>
      <trkpt lat="42.25658" lon="8.94049">
        <ele>1744.93</ele>
        <time>2015-09-11T09:00:12Z</time>
      </trkpt>
      <trkpt lat="42.25649" lon="8.94061">
        <ele>1744.45</ele>
        <time>2015-09-11T09:00:21Z</time>
      </trkpt>
      <trkpt lat="42.25644" lon="8.9408">
        <ele>1743.97</ele>
        <time>2015-09-11T09:00:33Z</time>
      </trkpt>
      <trkpt lat="42.2564" lon="8.94099">
        <ele>1743.97</ele>
        <time>2015-09-11T09:00:44Z</time>
      </trkpt>
      <trkpt lat="42.25631" lon="8.94114">
        <ele>1743.97</ele>
        <time>2015-09-11T09:00:57Z</time>
      </trkpt>
      <trkpt lat="42.25627" lon="8.94114">
        <ele>1743.49</ele>
        <time>2015-09-11T09:01:11Z</time>
      </trkpt>
      <trkpt lat="42.25627" lon="8.94115">
        <ele>1744.45</ele>
        <time>2015-09-11T09:01:26Z</time>
      </trkpt>
      <trkpt lat="42.25624" lon="8.94122">
        <ele>1743.97</ele>
        <time>2015-09-11T09:01:37Z</time>
      </trkpt>
      <trkpt lat="42.25624" lon="8.94126">
        <ele>1743.97</ele>
        <time>2015-09-11T09:01:42Z</time>
      </trkpt>
      <trkpt lat="42.25615" lon="8.94151">
        <ele>1744.45</ele>
        <time>2015-09-11T09:01:58Z</time>
      </trkpt>
      <trkpt lat="42.25613" lon="8.94154">
        <ele>1744.45</ele>
        <time>2015-09-11T09:02:00Z</time>
      </trkpt>
      <trkpt lat="42.25597" lon="8.9417">
        <ele>1744.45</ele>
        <time>2015-09-11T09:02:16Z</time>
      </trkpt>
      <trkpt lat="42.2559" lon="8.94175">
        <ele>1743.97</ele>
        <time>2015-09-11T09:02:24Z</time>
      </trkpt>
      <trkpt lat="42.25588" lon="8.94179">
        <ele>1744.45</ele>
        <time>2015-09-11T09:02:27Z</time>
      </trkpt>
      <trkpt lat="42.2558" lon="8.94186">
        <ele>1744.45</ele>
        <time>2015-09-11T09:02:39Z</time>
      </trkpt>
      <trkpt lat="42.25572" lon="8.94191">
        <ele>1744.45</ele>
        <time>2015-09-11T09:02:50Z</time>
      </trkpt>
      <trkpt lat="42.25558" lon="8.94208">
        <ele>1744.93</ele>
        <time>2015-09-11T09:03:05Z</time>
      </trkpt>
      <trkpt lat="42.25555" lon="8.94212">
        <ele>1744.93</ele>
        <time>2015-09-11T09:03:09Z</time>
      </trkpt>
      <trkpt lat="42.25542" lon="8.94216">
        <ele>1744.45</ele>
        <time>2015-09-11T09:03:19Z</time>
      </trkpt>
      <trkpt lat="42.2553" lon="8.9422">
        <ele>1744.45</ele>
        <time>2015-09-11T09:03:29Z</time>
      </trkpt>
      <trkpt lat="42.25526" lon="8.94223">
        <ele>1744.93</ele>
        <time>2015-09-11T09:03:33Z</time>
      </trkpt>
      <trkpt lat="42.25515" lon="8.94232">
        <ele>1746.85</ele>
        <time>2015-09-11T09:03:44Z</time>
      </trkpt>
      <trkpt lat="42.25515" lon="8.94233">
        <ele>1747.33</ele>
        <time>2015-09-11T09:04:00Z</time>
      </trkpt>
      <trkpt lat="42.25515" lon="8.94233">
        <ele>1746.37</ele>
        <time>2015-09-11T09:04:11Z</time>
      </trkpt>
      <trkpt lat="42.25512" lon="8.94236">
        <ele>1746.85</ele>
        <time>2015-09-11T09:04:15Z</time>
      </trkpt>
      <trkpt lat="42.25508" lon="8.94242">
        <ele>1746.37</ele>
        <time>2015-09-11T09:04:20Z</time>
      </trkpt>
      <trkpt lat="42.25503" lon="8.94248">
        <ele>1745.41</ele>
        <time>2015-09-11T09:04:26Z</time>
      </trkpt>
      <trkpt lat="42.25492" lon="8.94251">
        <ele>1744.45</ele>
        <time>2015-09-11T09:04:33Z</time>
      </trkpt>
      <trkpt lat="42.25486" lon="8.94251">
        <ele>1743.49</ele>
        <time>2015-09-11T09:04:37Z</time>
      </trkpt>
      <trkpt lat="42.25482" lon="8.94256">
        <ele>1744.45</ele>
        <time>2015-09-11T09:04:41Z</time>
      </trkpt>
      <trkpt lat="42.2548" lon="8.94257">
        <ele>1744.45</ele>
        <time>2015-09-11T09:04:43Z</time>
      </trkpt>
      <trkpt lat="42.25471" lon="8.94262">
        <ele>1744.45</ele>
        <time>2015-09-11T09:04:49Z</time>
      </trkpt>
      <trkpt lat="42.25468" lon="8.94265">
        <ele>1744.45</ele>
        <time>2015-09-11T09:04:51Z</time>
      </trkpt>
      <trkpt lat="42.25458" lon="8.94276">
        <ele>1745.41</ele>
        <time>2015-09-11T09:05:03Z</time>
      </trkpt>
      <trkpt lat="42.25455" lon="8.94285">
        <ele>1745.41</ele>
        <time>2015-09-11T09:05:08Z</time>
      </trkpt>
      <trkpt lat="42.25448" lon="8.94297">
        <ele>1745.89</ele>
        <time>2015-09-11T09:05:17Z</time>
      </trkpt>
      <trkpt lat="42.25436" lon="8.94319">
        <ele>1746.37</ele>
        <time>2015-09-11T09:05:32Z</time>
      </trkpt>
      <trkpt lat="42.25434" lon="8.94324">
        <ele>1745.41</ele>
        <time>2015-09-11T09:05:35Z</time>
      </trkpt>
      <trkpt lat="42.2543" lon="8.94335">
        <ele>1745.41</ele>
        <time>2015-09-11T09:05:42Z</time>
      </trkpt>
      <trkpt lat="42.25428" lon="8.94343">
        <ele>1745.41</ele>
        <time>2015-09-11T09:05:47Z</time>
      </trkpt>
      <trkpt lat="42.25427" lon="8.94354">
        <ele>1745.41</ele>
        <time>2015-09-11T09:05:53Z</time>
      </trkpt>
      <trkpt lat="42.25414" lon="8.94377">
        <ele>1745.41</ele>
        <time>2015-09-11T09:06:09Z</time>
      </trkpt>
      <trkpt lat="42.25407" lon="8.94387">
        <ele>1745.41</ele>
        <time>2015-09-11T09:06:17Z</time>
      </trkpt>
      <trkpt lat="42.25403" lon="8.94394">
        <ele>1745.41</ele>
        <time>2015-09-11T09:06:22Z</time>
      </trkpt>
      <trkpt lat="42.254" lon="8.94402">
        <ele>1744.93</ele>
        <time>2015-09-11T09:06:27Z</time>
      </trkpt>
      <trkpt lat="42.25396" lon="8.94414">
        <ele>1744.93</ele>
        <time>2015-09-11T09:06:34Z</time>
      </trkpt>
      <trkpt lat="42.25395" lon="8.94417">
        <ele>1744.93</ele>
        <time>2015-09-11T09:06:36Z</time>
      </trkpt>
      <trkpt lat="42.25391" lon="8.94424">
        <ele>1744.93</ele>
        <time>2015-09-11T09:06:40Z</time>
      </trkpt>
      <trkpt lat="42.25385" lon="8.94436">
        <ele>1744.93</ele>
        <time>2015-09-11T09:06:49Z</time>
      </trkpt>
      <trkpt lat="42.25382" lon="8.94448">
        <ele>1744.93</ele>
        <time>2015-09-11T09:06:56Z</time>
      </trkpt>
      <trkpt lat="42.25381" lon="8.94453">
        <ele>1745.41</ele>
        <time>2015-09-11T09:06:59Z</time>
      </trkpt>
      <trkpt lat="42.25372" lon="8.94467">
        <ele>1745.89</ele>
        <time>2015-09-11T09:07:11Z</time>
      </trkpt>
      <trkpt lat="42.25371" lon="8.9447">
        <ele>1745.89</ele>
        <time>2015-09-11T09:07:13Z</time>
      </trkpt>
      <trkpt lat="42.25366" lon="8.94474">
        <ele>1745.41</ele>
        <time>2015-09-11T09:07:25Z</time>
      </trkpt>
      <trkpt lat="42.25366" lon="8.94477">
        <ele>1745.89</ele>
        <time>2015-09-11T09:07:27Z</time>
      </trkpt>
      <trkpt lat="42.25363" lon="8.94485">
        <ele>1744.93</ele>
        <time>2015-09-11T09:07:32Z</time>
      </trkpt>
      <trkpt lat="42.25361" lon="8.94495">
        <ele>1744.93</ele>
        <time>2015-09-11T09:07:38Z</time>
      </trkpt>
      <trkpt lat="42.25359" lon="8.94499">
        <ele>1744.93</ele>
        <time>2015-09-11T09:07:44Z</time>
      </trkpt>
      <trkpt lat="42.25359" lon="8.94504">
        <ele>1745.41</ele>
        <time>2015-09-11T09:07:47Z</time>
      </trkpt>
      <trkpt lat="42.25357" lon="8.94521">
        <ele>1745.41</ele>
        <time>2015-09-11T09:07:57Z</time>
      </trkpt>
      <trkpt lat="42.25356" lon="8.94531">
        <ele>1745.41</ele>
        <time>2015-09-11T09:08:02Z</time>
      </trkpt>
      <trkpt lat="42.25354" lon="8.94539">
        <ele>1744.93</ele>
        <time>2015-09-11T09:08:07Z</time>
      </trkpt>
      <trkpt lat="42.25351" lon="8.94542">
        <ele>1744.93</ele>
        <time>2015-09-11T09:08:10Z</time>
      </trkpt>
      <trkpt lat="42.25348" lon="8.9455">
        <ele>1744.93</ele>
        <time>2015-09-11T09:08:15Z</time>
      </trkpt>
      <trkpt lat="42.25344" lon="8.94566">
        <ele>1744.93</ele>
        <time>2015-09-11T09:08:25Z</time>
      </trkpt>
      <trkpt lat="42.25335" lon="8.94581">
        <ele>1744.45</ele>
        <time>2015-09-11T09:08:36Z</time>
      </trkpt>
      <trkpt lat="42.25329" lon="8.94587">
        <ele>1744.45</ele>
        <time>2015-09-11T09:08:42Z</time>
      </trkpt>
      <trkpt lat="42.25325" lon="8.94589">
        <ele>1743.97</ele>
        <time>2015-09-11T09:08:46Z</time>
      </trkpt>
      <trkpt lat="42.2532" lon="8.9459">
        <ele>1743.97</ele>
        <time>2015-09-11T09:08:50Z</time>
      </trkpt>
      <trkpt lat="42.25308" lon="8.94605">
        <ele>1743.97</ele>
        <time>2015-09-11T09:09:03Z</time>
      </trkpt>
      <trkpt lat="42.253" lon="8.94618">
        <ele>1743.97</ele>
        <time>2015-09-11T09:09:12Z</time>
      </trkpt>
      <trkpt lat="42.25298" lon="8.94627">
        <ele>1743.97</ele>
        <time>2015-09-11T09:09:17Z</time>
      </trkpt>
      <trkpt lat="42.25293" lon="8.94654">
        <ele>1743.97</ele>
        <time>2015-09-11T09:09:34Z</time>
      </trkpt>
      <trkpt lat="42.25288" lon="8.94664">
        <ele>1744.93</ele>
        <time>2015-09-11T09:09:41Z</time>
      </trkpt>
      <trkpt lat="42.25276" lon="8.94687">
        <ele>1744.93</ele>
        <time>2015-09-11T09:09:56Z</time>
      </trkpt>
      <trkpt lat="42.25269" lon="8.9471">
        <ele>1744.93</ele>
        <time>2015-09-11T09:10:10Z</time>
      </trkpt>
      <trkpt lat="42.25264" lon="8.94736">
        <ele>1744.45</ele>
        <time>2015-09-11T09:10:24Z</time>
      </trkpt>
      <trkpt lat="42.25257" lon="8.94762">
        <ele>1744.93</ele>
        <time>2015-09-11T09:10:39Z</time>
      </trkpt>
      <trkpt lat="42.25254" lon="8.94774">
        <ele>1744.93</ele>
        <time>2015-09-11T09:10:46Z</time>
      </trkpt>
      <trkpt lat="42.25254" lon="8.94806">
        <ele>1744.45</ele>
        <time>2015-09-11T09:11:03Z</time>
      </trkpt>
      <trkpt lat="42.25254" lon="8.94808">
        <ele>1744.45</ele>
        <time>2015-09-11T09:11:05Z</time>
      </trkpt>
      <trkpt lat="42.25255" lon="8.94833">
        <ele>1744.45</ele>
        <time>2015-09-11T09:11:18Z</time>
      </trkpt>
      <trkpt lat="42.25256" lon="8.94854">
        <ele>1744.45</ele>
        <time>2015-09-11T09:11:29Z</time>
      </trkpt>
      <trkpt lat="42.25258" lon="8.94866">
        <ele>1744.45</ele>
        <time>2015-09-11T09:11:35Z</time>
      </trkpt>
      <trkpt lat="42.2526" lon="8.94894">
        <ele>1744.93</ele>
        <time>2015-09-11T09:11:51Z</time>
      </trkpt>
      <trkpt lat="42.25268" lon="8.9492">
        <ele>1744.93</ele>
        <time>2015-09-11T09:12:06Z</time>
      </trkpt>
      <trkpt lat="42.25272" lon="8.9493">
        <ele>1744.45</ele>
        <time>2015-09-11T09:12:13Z</time>
      </trkpt>
      <trkpt lat="42.25276" lon="8.94945">
        <ele>1744.45</ele>
        <time>2015-09-11T09:12:22Z</time>
      </trkpt>
      <trkpt lat="42.25291" lon="8.94969">
        <ele>1743.97</ele>
        <time>2015-09-11T09:12:39Z</time>
      </trkpt>
      <trkpt lat="42.25295" lon="8.9498">
        <ele>1743.97</ele>
        <time>2015-09-11T09:12:45Z</time>
      </trkpt>
      <trkpt lat="42.25299" lon="8.94999">
        <ele>1743.97</ele>
        <time>2015-09-11T09:12:57Z</time>
      </trkpt>
      <trkpt lat="42.253" lon="8.9502">
        <ele>1743.97</ele>
        <time>2015-09-11T09:13:09Z</time>
      </trkpt>
      <trkpt lat="42.25301" lon="8.95026">
        <ele>1743.97</ele>
        <time>2015-09-11T09:13:12Z</time>
      </trkpt>
      <trkpt lat="42.25305" lon="8.9505">
        <ele>1745.41</ele>
        <time>2015-09-11T09:13:26Z</time>
      </trkpt>
      <trkpt lat="42.25304" lon="8.95052">
        <ele>1744.93</ele>
        <time>2015-09-11T09:13:27Z</time>
      </trkpt>
      <trkpt lat="42.25306" lon="8.9507">
        <ele>1744.93</ele>
        <time>2015-09-11T09:13:38Z</time>
      </trkpt>
      <trkpt lat="42.25307" lon="8.9508">
        <ele>1744.93</ele>
        <time>2015-09-11T09:13:48Z</time>
      </trkpt>
      <trkpt lat="42.25319" lon="8.95102">
        <ele>1744.93</ele>
        <time>2015-09-11T09:14:04Z</time>
      </trkpt>
      <trkpt lat="42.25326" lon="8.95126">
        <ele>1744.93</ele>
        <time>2015-09-11T09:14:19Z</time>
      </trkpt>
      <trkpt lat="42.25328" lon="8.95149">
        <ele>1744.45</ele>
        <time>2015-09-11T09:14:33Z</time>
      </trkpt>
      <trkpt lat="42.25328" lon="8.95151">
        <ele>1744.93</ele>
        <time>2015-09-11T09:14:34Z</time>
      </trkpt>
      <trkpt lat="42.25327" lon="8.95158">
        <ele>1744.93</ele>
        <time>2015-09-11T09:14:38Z</time>
      </trkpt>
      <trkpt lat="42.25327" lon="8.95162">
        <ele>1744.93</ele>
        <time>2015-09-11T09:14:40Z</time>
      </trkpt>
      <trkpt lat="42.25325" lon="8.95179">
        <ele>1745.41</ele>
        <time>2015-09-11T09:14:51Z</time>
      </trkpt>
      <trkpt lat="42.25323" lon="8.95187">
        <ele>1744.93</ele>
        <time>2015-09-11T09:14:56Z</time>
      </trkpt>
      <trkpt lat="42.25325" lon="8.95199">
        <ele>1744.45</ele>
        <time>2015-09-11T09:15:03Z</time>
      </trkpt>
      <trkpt lat="42.25327" lon="8.95208">
        <ele>1744.45</ele>
        <time>2015-09-11T09:15:08Z</time>
      </trkpt>
      <trkpt lat="42.25327" lon="8.95232">
        <ele>1744.93</ele>
        <time>2015-09-11T09:15:22Z</time>
      </trkpt>
      <trkpt lat="42.25326" lon="8.95251">
        <ele>1744.45</ele>
        <time>2015-09-11T09:15:33Z</time>
      </trkpt>
      <trkpt lat="42.25327" lon="8.95271">
        <ele>1745.41</ele>
        <time>2015-09-11T09:15:45Z</time>
      </trkpt>
      <trkpt lat="42.25331" lon="8.95293">
        <ele>1745.41</ele>
        <time>2015-09-11T09:15:57Z</time>
      </trkpt>
      <trkpt lat="42.25332" lon="8.95301">
        <ele>1745.41</ele>
        <time>2015-09-11T09:16:01Z</time>
      </trkpt>
      <trkpt lat="42.25336" lon="8.95323">
        <ele>1744.93</ele>
        <time>2015-09-11T09:16:14Z</time>
      </trkpt>
      <trkpt lat="42.25348" lon="8.95347">
        <ele>1744.45</ele>
        <time>2015-09-11T09:16:29Z</time>
      </trkpt>
      <trkpt lat="42.25356" lon="8.95365">
        <ele>1743.97</ele>
        <time>2015-09-11T09:16:42Z</time>
      </trkpt>
      <trkpt lat="42.25363" lon="8.95388">
        <ele>1744.45</ele>
        <time>2015-09-11T09:16:56Z</time>
      </trkpt>
      <trkpt lat="42.25372" lon="8.95403">
        <ele>1744.93</ele>
        <time>2015-09-11T09:17:08Z</time>
      </trkpt>
      <trkpt lat="42.25383" lon="8.95419">
        <ele>1744.45</ele>
        <time>2015-09-11T09:17:21Z</time>
      </trkpt>
      <trkpt lat="42.25397" lon="8.95445">
        <ele>1744.93</ele>
        <time>2015-09-11T09:17:38Z</time>
      </trkpt>
      <trkpt lat="42.25403" lon="8.9547">
        <ele>1744.45</ele>
        <time>2015-09-11T09:17:53Z</time>
      </trkpt>
      <trkpt lat="42.25412" lon="8.95488">
        <ele>1745.41</ele>
        <time>2015-09-11T09:18:05Z</time>
      </trkpt>
      <trkpt lat="42.25422" lon="8.9551">
        <ele>1745.89</ele>
        <time>2015-09-11T09:18:20Z</time>
      </trkpt>
      <trkpt lat="42.25434" lon="8.9553">
        <ele>1745.89</ele>
        <time>2015-09-11T09:18:34Z</time>
      </trkpt>
      <trkpt lat="42.25443" lon="8.95552">
        <ele>1745.89</ele>
        <time>2015-09-11T09:18:48Z</time>
      </trkpt>
      <trkpt lat="42.25443" lon="8.95555">
        <ele>1745.89</ele>
        <time>2015-09-11T09:18:50Z</time>
      </trkpt>
      <trkpt lat="42.25454" lon="8.95575">
        <ele>1746.37</ele>
        <time>2015-09-11T09:19:06Z</time>
      </trkpt>
      <trkpt lat="42.25464" lon="8.95594">
        <ele>1746.85</ele>
        <time>2015-09-11T09:19:20Z</time>
      </trkpt>
      <trkpt lat="42.25466" lon="8.95598">
        <ele>1746.85</ele>
        <time>2015-09-11T09:19:23Z</time>
      </trkpt>
      <trkpt lat="42.25478" lon="8.95614">
        <ele>1746.85</ele>
        <time>2015-09-11T09:19:37Z</time>
      </trkpt>
      <trkpt lat="42.2549" lon="8.95631">
        <ele>1747.33</ele>
        <time>2015-09-11T09:19:51Z</time>
      </trkpt>
      <trkpt lat="42.25504" lon="8.95649">
        <ele>1747.81</ele>
        <time>2015-09-11T09:20:07Z</time>
      </trkpt>
      <trkpt lat="42.25511" lon="8.95653">
        <ele>1747.81</ele>
        <time>2015-09-11T09:20:14Z</time>
      </trkpt>
      <trkpt lat="42.25516" lon="8.95658">
        <ele>1747.81</ele>
        <time>2015-09-11T09:20:20Z</time>
      </trkpt>
      <trkpt lat="42.25524" lon="8.95663">
        <ele>1747.81</ele>
        <time>2015-09-11T09:20:31Z</time>
      </trkpt>
      <trkpt lat="42.25522" lon="8.95663">
        <ele>1747.33</ele>
        <time>2015-09-11T09:20:43Z</time>
      </trkpt>
      <trkpt lat="42.25519" lon="8.95666">
        <ele>1746.85</ele>
        <time>2015-09-11T09:20:47Z</time>
      </trkpt>
      <trkpt lat="42.25517" lon="8.9567">
        <ele>1745.89</ele>
        <time>2015-09-11T09:20:51Z</time>
      </trkpt>
      <trkpt lat="42.25514" lon="8.95676">
        <ele>1744.93</ele>
        <time>2015-09-11T09:20:56Z</time>
      </trkpt>
      <trkpt lat="42.25511" lon="8.95678">
        <ele>1744.45</ele>
        <time>2015-09-11T09:20:59Z</time>
      </trkpt>
      <trkpt lat="42.25511" lon="8.95682">
        <ele>1743.49</ele>
        <time>2015-09-11T09:21:02Z</time>
      </trkpt>
      <trkpt lat="42.25503" lon="8.95684">
        <ele>1742.53</ele>
        <time>2015-09-11T09:21:08Z</time>
      </trkpt>
      <trkpt lat="42.25499" lon="8.95685">
        <ele>1742.05</ele>
        <time>2015-09-11T09:21:12Z</time>
      </trkpt>
      <trkpt lat="42.25496" lon="8.9569">
        <ele>1741.57</ele>
        <time>2015-09-11T09:21:16Z</time>
      </trkpt>
      <trkpt lat="42.25494" lon="8.95696">
        <ele>1740.6</ele>
        <time>2015-09-11T09:21:20Z</time>
      </trkpt>
      <trkpt lat="42.25492" lon="8.95699">
        <ele>1740.12</ele>
        <time>2015-09-11T09:21:23Z</time>
      </trkpt>
      <trkpt lat="42.25481" lon="8.95704">
        <ele>1739.16</ele>
        <time>2015-09-11T09:21:33Z</time>
      </trkpt>
      <trkpt lat="42.25475" lon="8.95705">
        <ele>1738.2</ele>
        <time>2015-09-11T09:21:38Z</time>
      </trkpt>
      <trkpt lat="42.2547" lon="8.95703">
        <ele>1737.24</ele>
        <time>2015-09-11T09:21:44Z</time>
      </trkpt>
      <trkpt lat="42.25461" lon="8.95698">
        <ele>1736.28</ele>
        <time>2015-09-11T09:21:51Z</time>
      </trkpt>
      <trkpt lat="42.25459" lon="8.957">
        <ele>1735.8</ele>
        <time>2015-09-11T09:21:53Z</time>
      </trkpt>
      <trkpt lat="42.25453" lon="8.9571">
        <ele>1735.32</ele>
        <time>2015-09-11T09:22:02Z</time>
      </trkpt>
      <trkpt lat="42.25446" lon="8.9572">
        <ele>1734.36</ele>
        <time>2015-09-11T09:22:14Z</time>
      </trkpt>
      <trkpt lat="42.25445" lon="8.95723">
        <ele>1733.88</ele>
        <time>2015-09-11T09:22:16Z</time>
      </trkpt>
      <trkpt lat="42.25445" lon="8.95729">
        <ele>1733.88</ele>
        <time>2015-09-11T09:22:20Z</time>
      </trkpt>
      <trkpt lat="42.25441" lon="8.95737">
        <ele>1733.39</ele>
        <time>2015-09-11T09:22:26Z</time>
      </trkpt>
      <trkpt lat="42.25435" lon="8.95741">
        <ele>1732.91</ele>
        <time>2015-09-11T09:22:31Z</time>
      </trkpt>
      <trkpt lat="42.25431" lon="8.95746">
        <ele>1732.43</ele>
        <time>2015-09-11T09:22:35Z</time>
      </trkpt>
      <trkpt lat="42.25429" lon="8.95748">
        <ele>1732.43</ele>
        <time>2015-09-11T09:22:37Z</time>
      </trkpt>
      <trkpt lat="42.25427" lon="8.95752">
        <ele>1731.95</ele>
        <time>2015-09-11T09:22:41Z</time>
      </trkpt>
      <trkpt lat="42.2542" lon="8.95753">
        <ele>1730.99</ele>
        <time>2015-09-11T09:22:46Z</time>
      </trkpt>
      <trkpt lat="42.25407" lon="8.95754">
        <ele>1730.51</ele>
        <time>2015-09-11T09:22:58Z</time>
      </trkpt>
      <trkpt lat="42.25405" lon="8.95754">
        <ele>1730.03</ele>
        <time>2015-09-11T09:23:00Z</time>
      </trkpt>
      <trkpt lat="42.25397" lon="8.95752">
        <ele>1729.55</ele>
        <time>2015-09-11T09:23:09Z</time>
      </trkpt>
      <trkpt lat="42.25391" lon="8.95753">
        <ele>1728.11</ele>
        <time>2015-09-11T09:23:22Z</time>
      </trkpt>
      <trkpt lat="42.25388" lon="8.95754">
        <ele>1728.11</ele>
        <time>2015-09-11T09:23:24Z</time>
      </trkpt>
      <trkpt lat="42.25387" lon="8.95756">
        <ele>1728.11</ele>
        <time>2015-09-11T09:23:26Z</time>
      </trkpt>
      <trkpt lat="42.25383" lon="8.95758">
        <ele>1728.59</ele>
        <time>2015-09-11T09:23:36Z</time>
      </trkpt>
      <trkpt lat="42.25376" lon="8.95758">
        <ele>1729.07</ele>
        <time>2015-09-11T09:23:43Z</time>
      </trkpt>
      <trkpt lat="42.25373" lon="8.95758">
        <ele>1729.55</ele>
        <time>2015-09-11T09:23:46Z</time>
      </trkpt>
      <trkpt lat="42.25371" lon="8.95756">
        <ele>1729.55</ele>
        <time>2015-09-11T09:23:48Z</time>
      </trkpt>
      <trkpt lat="42.25368" lon="8.95758">
        <ele>1730.03</ele>
        <time>2015-09-11T09:23:51Z</time>
      </trkpt>
      <trkpt lat="42.25365" lon="8.95761">
        <ele>1730.51</ele>
        <time>2015-09-11T09:23:55Z</time>
      </trkpt>
      <trkpt lat="42.2536" lon="8.95764">
        <ele>1730.51</ele>
        <time>2015-09-11T09:24:00Z</time>
      </trkpt>
      <trkpt lat="42.25351" lon="8.95771">
        <ele>1731.47</ele>
        <time>2015-09-11T09:24:10Z</time>
      </trkpt>
      <trkpt lat="42.25348" lon="8.95776">
        <ele>1731.47</ele>
        <time>2015-09-11T09:24:15Z</time>
      </trkpt>
      <trkpt lat="42.25346" lon="8.95777">
        <ele>1730.99</ele>
        <time>2015-09-11T09:24:23Z</time>
      </trkpt>
      <trkpt lat="42.25335" lon="8.95788">
        <ele>1730.51</ele>
        <time>2015-09-11T09:24:34Z</time>
      </trkpt>
      <trkpt lat="42.25334" lon="8.95789">
        <ele>1730.51</ele>
        <time>2015-09-11T09:24:35Z</time>
      </trkpt>
      <trkpt lat="42.25322" lon="8.95804">
        <ele>1731.95</ele>
        <time>2015-09-11T09:24:48Z</time>
      </trkpt>
      <trkpt lat="42.25322" lon="8.95805">
        <ele>1731.95</ele>
        <time>2015-09-11T09:24:49Z</time>
      </trkpt>
      <trkpt lat="42.25317" lon="8.95814">
        <ele>1732.43</ele>
        <time>2015-09-11T09:24:56Z</time>
      </trkpt>
      <trkpt lat="42.25312" lon="8.95822">
        <ele>1731.95</ele>
        <time>2015-09-11T09:25:03Z</time>
      </trkpt>
      <trkpt lat="42.25304" lon="8.95838">
        <ele>1731.95</ele>
        <time>2015-09-11T09:25:14Z</time>
      </trkpt>
      <trkpt lat="42.25297" lon="8.9585">
        <ele>1731.47</ele>
        <time>2015-09-11T09:25:24Z</time>
      </trkpt>
      <trkpt lat="42.25293" lon="8.95855">
        <ele>1731.95</ele>
        <time>2015-09-11T09:25:29Z</time>
      </trkpt>
      <trkpt lat="42.2529" lon="8.95859">
        <ele>1732.43</ele>
        <time>2015-09-11T09:25:33Z</time>
      </trkpt>
      <trkpt lat="42.25289" lon="8.95862">
        <ele>1732.91</ele>
        <time>2015-09-11T09:25:35Z</time>
      </trkpt>
      <trkpt lat="42.2528" lon="8.95877">
        <ele>1732.91</ele>
        <time>2015-09-11T09:25:46Z</time>
      </trkpt>
      <trkpt lat="42.25279" lon="8.95885">
        <ele>1731.95</ele>
        <time>2015-09-11T09:25:52Z</time>
      </trkpt>
      <trkpt lat="42.25278" lon="8.95888">
        <ele>1731.47</ele>
        <time>2015-09-11T09:26:00Z</time>
      </trkpt>
      <trkpt lat="42.25275" lon="8.95894">
        <ele>1731.47</ele>
        <time>2015-09-11T09:26:05Z</time>
      </trkpt>
      <trkpt lat="42.25269" lon="8.95904">
        <ele>1730.51</ele>
        <time>2015-09-11T09:26:13Z</time>
      </trkpt>
      <trkpt lat="42.25265" lon="8.95912">
        <ele>1729.55</ele>
        <time>2015-09-11T09:26:20Z</time>
      </trkpt>
      <trkpt lat="42.25252" lon="8.95919">
        <ele>1729.07</ele>
        <time>2015-09-11T09:26:32Z</time>
      </trkpt>
      <trkpt lat="42.25245" lon="8.95931">
        <ele>1727.63</ele>
        <time>2015-09-11T09:26:42Z</time>
      </trkpt>
      <trkpt lat="42.2524" lon="8.95938">
        <ele>1727.63</ele>
        <time>2015-09-11T09:26:48Z</time>
      </trkpt>
      <trkpt lat="42.25236" lon="8.95942">
        <ele>1727.15</ele>
        <time>2015-09-11T09:26:52Z</time>
      </trkpt>
      <trkpt lat="42.25232" lon="8.95947">
        <ele>1726.67</ele>
        <time>2015-09-11T09:26:57Z</time>
      </trkpt>
      <trkpt lat="42.25226" lon="8.95954">
        <ele>1726.18</ele>
        <time>2015-09-11T09:27:04Z</time>
      </trkpt>
      <trkpt lat="42.25222" lon="8.95958">
        <ele>1726.67</ele>
        <time>2015-09-11T09:27:08Z</time>
      </trkpt>
      <trkpt lat="42.25215" lon="8.95964">
        <ele>1726.67</ele>
        <time>2015-09-11T09:27:14Z</time>
      </trkpt>
      <trkpt lat="42.25207" lon="8.95976">
        <ele>1725.7</ele>
        <time>2015-09-11T09:27:23Z</time>
      </trkpt>
      <trkpt lat="42.25204" lon="8.9598">
        <ele>1725.7</ele>
        <time>2015-09-11T09:27:27Z</time>
      </trkpt>
      <trkpt lat="42.25197" lon="8.95985">
        <ele>1726.18</ele>
        <time>2015-09-11T09:27:33Z</time>
      </trkpt>
      <trkpt lat="42.25196" lon="8.95988">
        <ele>1726.18</ele>
        <time>2015-09-11T09:27:35Z</time>
      </trkpt>
      <trkpt lat="42.25191" lon="8.95992">
        <ele>1726.18</ele>
        <time>2015-09-11T09:27:40Z</time>
      </trkpt>
      <trkpt lat="42.25189" lon="8.95994">
        <ele>1726.18</ele>
        <time>2015-09-11T09:27:43Z</time>
      </trkpt>
      <trkpt lat="42.25185" lon="8.95999">
        <ele>1725.7</ele>
        <time>2015-09-11T09:27:48Z</time>
      </trkpt>
      <trkpt lat="42.25182" lon="8.95999">
        <ele>1725.7</ele>
        <time>2015-09-11T09:28:03Z</time>
      </trkpt>
      <trkpt lat="42.25179" lon="8.96">
        <ele>1726.67</ele>
        <time>2015-09-11T09:28:07Z</time>
      </trkpt>
      <trkpt lat="42.25166" lon="8.96012">
        <ele>1726.18</ele>
        <time>2015-09-11T09:28:21Z</time>
      </trkpt>
      <trkpt lat="42.25162" lon="8.96014">
        <ele>1726.67</ele>
        <time>2015-09-11T09:28:26Z</time>
      </trkpt>
      <trkpt lat="42.25156" lon="8.96023">
        <ele>1725.22</ele>
        <time>2015-09-11T09:28:33Z</time>
      </trkpt>
      <trkpt lat="42.25146" lon="8.96024">
        <ele>1723.78</ele>
        <time>2015-09-11T09:28:42Z</time>
      </trkpt>
      <trkpt lat="42.25145" lon="8.96025">
        <ele>1723.78</ele>
        <time>2015-09-11T09:28:44Z</time>
      </trkpt>
      <trkpt lat="42.25143" lon="8.96028">
        <ele>1723.3</ele>
        <time>2015-09-11T09:28:47Z</time>
      </trkpt>
      <trkpt lat="42.25142" lon="8.96031">
        <ele>1723.3</ele>
        <time>2015-09-11T09:28:49Z</time>
      </trkpt>
      <trkpt lat="42.25141" lon="8.96034">
        <ele>1722.34</ele>
        <time>2015-09-11T09:28:52Z</time>
      </trkpt>
      <trkpt lat="42.25138" lon="8.9604">
        <ele>1721.86</ele>
        <time>2015-09-11T09:28:57Z</time>
      </trkpt>
      <trkpt lat="42.25138" lon="8.96045">
        <ele>1721.38</ele>
        <time>2015-09-11T09:29:00Z</time>
      </trkpt>
      <trkpt lat="42.25128" lon="8.96058">
        <ele>1718.97</ele>
        <time>2015-09-11T09:29:12Z</time>
      </trkpt>
      <trkpt lat="42.25123" lon="8.96065">
        <ele>1718.97</ele>
        <time>2015-09-11T09:29:18Z</time>
      </trkpt>
      <trkpt lat="42.25114" lon="8.96079">
        <ele>1718.01</ele>
        <time>2015-09-11T09:29:31Z</time>
      </trkpt>
      <trkpt lat="42.25104" lon="8.96089">
        <ele>1717.05</ele>
        <time>2015-09-11T09:29:41Z</time>
      </trkpt>
      <trkpt lat="42.251" lon="8.96094">
        <ele>1717.05</ele>
        <time>2015-09-11T09:29:46Z</time>
      </trkpt>
      <trkpt lat="42.25101" lon="8.96104">
        <ele>1716.09</ele>
        <time>2015-09-11T09:29:53Z</time>
      </trkpt>
      <trkpt lat="42.25101" lon="8.96116">
        <ele>1715.13</ele>
        <time>2015-09-11T09:30:02Z</time>
      </trkpt>
      <trkpt lat="42.25103" lon="8.9612">
        <ele>1714.65</ele>
        <time>2015-09-11T09:30:05Z</time>
      </trkpt>
      <trkpt lat="42.25101" lon="8.96128">
        <ele>1713.69</ele>
        <time>2015-09-11T09:30:11Z</time>
      </trkpt>
      <trkpt lat="42.25099" lon="8.96133">
        <ele>1712.73</ele>
        <time>2015-09-11T09:30:16Z</time>
      </trkpt>
      <trkpt lat="42.25097" lon="8.96135">
        <ele>1712.25</ele>
        <time>2015-09-11T09:30:18Z</time>
      </trkpt>
      <trkpt lat="42.25094" lon="8.96138">
        <ele>1711.76</ele>
        <time>2015-09-11T09:30:24Z</time>
      </trkpt>
      <trkpt lat="42.25088" lon="8.96142">
        <ele>1709.36</ele>
        <time>2015-09-11T09:30:33Z</time>
      </trkpt>
      <trkpt lat="42.25084" lon="8.9615">
        <ele>1707.92</ele>
        <time>2015-09-11T09:30:41Z</time>
      </trkpt>
      <trkpt lat="42.25079" lon="8.96158">
        <ele>1706</ele>
        <time>2015-09-11T09:30:49Z</time>
      </trkpt>
      <trkpt lat="42.25072" lon="8.96162">
        <ele>1704.55</ele>
        <time>2015-09-11T09:31:03Z</time>
      </trkpt>
      <trkpt lat="42.2507" lon="8.96163">
        <ele>1703.59</ele>
        <time>2015-09-11T09:31:06Z</time>
      </trkpt>
      <trkpt lat="42.25069" lon="8.96164">
        <ele>1703.59</ele>
        <time>2015-09-11T09:31:07Z</time>
      </trkpt>
      <trkpt lat="42.25062" lon="8.96178">
        <ele>1701.67</ele>
        <time>2015-09-11T09:31:21Z</time>
      </trkpt>
      <trkpt lat="42.25059" lon="8.9618">
        <ele>1700.71</ele>
        <time>2015-09-11T09:31:24Z</time>
      </trkpt>
      <trkpt lat="42.25057" lon="8.9618">
        <ele>1700.71</ele>
        <time>2015-09-11T09:31:26Z</time>
      </trkpt>
      <trkpt lat="42.2505" lon="8.96182">
        <ele>1699.75</ele>
        <time>2015-09-11T09:31:34Z</time>
      </trkpt>
      <trkpt lat="42.25045" lon="8.96188">
        <ele>1697.83</ele>
        <time>2015-09-11T09:31:42Z</time>
      </trkpt>
      <trkpt lat="42.25043" lon="8.96199">
        <ele>1695.9</ele>
        <time>2015-09-11T09:31:51Z</time>
      </trkpt>
      <trkpt lat="42.25034" lon="8.96202">
        <ele>1694.94</ele>
        <time>2015-09-11T09:31:59Z</time>
      </trkpt>
      <trkpt lat="42.25031" lon="8.962">
        <ele>1694.46</ele>
        <time>2015-09-11T09:32:03Z</time>
      </trkpt>
      <trkpt lat="42.25028" lon="8.96195">
        <ele>1693.98</ele>
        <time>2015-09-11T09:32:08Z</time>
      </trkpt>
      <trkpt lat="42.25024" lon="8.96199">
        <ele>1693.02</ele>
        <time>2015-09-11T09:32:14Z</time>
      </trkpt>
      <trkpt lat="42.25017" lon="8.96196">
        <ele>1691.58</ele>
        <time>2015-09-11T09:32:22Z</time>
      </trkpt>
      <trkpt lat="42.25013" lon="8.96202">
        <ele>1690.14</ele>
        <time>2015-09-11T09:32:29Z</time>
      </trkpt>
      <trkpt lat="42.25011" lon="8.96214">
        <ele>1689.17</ele>
        <time>2015-09-11T09:32:36Z</time>
      </trkpt>
      <trkpt lat="42.25009" lon="8.96217">
        <ele>1688.21</ele>
        <time>2015-09-11T09:32:39Z</time>
      </trkpt>
      <trkpt lat="42.25004" lon="8.96218">
        <ele>1687.25</ele>
        <time>2015-09-11T09:32:44Z</time>
      </trkpt>
      <trkpt lat="42.24992" lon="8.96214">
        <ele>1684.85</ele>
        <time>2015-09-11T09:32:56Z</time>
      </trkpt>
      <trkpt lat="42.24985" lon="8.96213">
        <ele>1682.93</ele>
        <time>2015-09-11T09:33:03Z</time>
      </trkpt>
      <trkpt lat="42.24981" lon="8.96214">
        <ele>1681.96</ele>
        <time>2015-09-11T09:33:08Z</time>
      </trkpt>
      <trkpt lat="42.24976" lon="8.96215">
        <ele>1681.96</ele>
        <time>2015-09-11T09:33:13Z</time>
      </trkpt>
      <trkpt lat="42.2497" lon="8.96219">
        <ele>1678.6</ele>
        <time>2015-09-11T09:33:25Z</time>
      </trkpt>
      <trkpt lat="42.24967" lon="8.9622">
        <ele>1679.08</ele>
        <time>2015-09-11T09:33:28Z</time>
      </trkpt>
      <trkpt lat="42.24956" lon="8.9621">
        <ele>1677.16</ele>
        <time>2015-09-11T09:33:41Z</time>
      </trkpt>
      <trkpt lat="42.24954" lon="8.96208">
        <ele>1676.68</ele>
        <time>2015-09-11T09:33:45Z</time>
      </trkpt>
      <trkpt lat="42.2495" lon="8.96201">
        <ele>1675.72</ele>
        <time>2015-09-11T09:33:52Z</time>
      </trkpt>
      <trkpt lat="42.24941" lon="8.9619">
        <ele>1673.79</ele>
        <time>2015-09-11T09:34:04Z</time>
      </trkpt>
      <trkpt lat="42.24939" lon="8.9619">
        <ele>1673.31</ele>
        <time>2015-09-11T09:34:07Z</time>
      </trkpt>
      <trkpt lat="42.24935" lon="8.96189">
        <ele>1672.83</ele>
        <time>2015-09-11T09:34:12Z</time>
      </trkpt>
      <trkpt lat="42.24933" lon="8.96192">
        <ele>1671.87</ele>
        <time>2015-09-11T09:34:15Z</time>
      </trkpt>
      <trkpt lat="42.24929" lon="8.96193">
        <ele>1670.43</ele>
        <time>2015-09-11T09:34:22Z</time>
      </trkpt>
      <trkpt lat="42.24927" lon="8.96191">
        <ele>1669.95</ele>
        <time>2015-09-11T09:34:25Z</time>
      </trkpt>
      <trkpt lat="42.24917" lon="8.96196">
        <ele>1668.02</ele>
        <time>2015-09-11T09:34:37Z</time>
      </trkpt>
      <trkpt lat="42.24912" lon="8.96197">
        <ele>1667.54</ele>
        <time>2015-09-11T09:34:43Z</time>
      </trkpt>
      <trkpt lat="42.24906" lon="8.96192">
        <ele>1666.58</ele>
        <time>2015-09-11T09:34:54Z</time>
      </trkpt>
      <trkpt lat="42.24902" lon="8.96192">
        <ele>1665.14</ele>
        <time>2015-09-11T09:35:00Z</time>
      </trkpt>
      <trkpt lat="42.24901" lon="8.96189">
        <ele>1664.66</ele>
        <time>2015-09-11T09:35:04Z</time>
      </trkpt>
      <trkpt lat="42.24891" lon="8.9618">
        <ele>1664.66</ele>
        <time>2015-09-11T09:35:14Z</time>
      </trkpt>
      <trkpt lat="42.24884" lon="8.96179">
        <ele>1664.18</ele>
        <time>2015-09-11T09:35:25Z</time>
      </trkpt>
      <trkpt lat="42.24882" lon="8.9618">
        <ele>1663.7</ele>
        <time>2015-09-11T09:35:27Z</time>
      </trkpt>
      <trkpt lat="42.24878" lon="8.9618">
        <ele>1663.7</ele>
        <time>2015-09-11T09:35:31Z</time>
      </trkpt>
      <trkpt lat="42.24877" lon="8.96179">
        <ele>1663.22</ele>
        <time>2015-09-11T09:35:33Z</time>
      </trkpt>
      <trkpt lat="42.24874" lon="8.9618">
        <ele>1662.74</ele>
        <time>2015-09-11T09:35:35Z</time>
      </trkpt>
      <trkpt lat="42.24868" lon="8.9618">
        <ele>1661.78</ele>
        <time>2015-09-11T09:35:44Z</time>
      </trkpt>
      <trkpt lat="42.24868" lon="8.96181">
        <ele>1661.78</ele>
        <time>2015-09-11T09:35:45Z</time>
      </trkpt>
      <trkpt lat="42.24866" lon="8.96183">
        <ele>1661.3</ele>
        <time>2015-09-11T09:35:48Z</time>
      </trkpt>
      <trkpt lat="42.24862" lon="8.96182">
        <ele>1660.33</ele>
        <time>2015-09-11T09:35:55Z</time>
      </trkpt>
      <trkpt lat="42.24855" lon="8.96178">
        <ele>1658.41</ele>
        <time>2015-09-11T09:36:06Z</time>
      </trkpt>
      <trkpt lat="42.24852" lon="8.96179">
        <ele>1658.41</ele>
        <time>2015-09-11T09:36:10Z</time>
      </trkpt>
      <trkpt lat="42.24848" lon="8.9618">
        <ele>1656.97</ele>
        <time>2015-09-11T09:36:15Z</time>
      </trkpt>
      <trkpt lat="42.24839" lon="8.96181">
        <ele>1656.49</ele>
        <time>2015-09-11T09:36:27Z</time>
      </trkpt>
      <trkpt lat="42.24832" lon="8.9619">
        <ele>1655.53</ele>
        <time>2015-09-11T09:36:40Z</time>
      </trkpt>
      <trkpt lat="42.24828" lon="8.96191">
        <ele>1655.05</ele>
        <time>2015-09-11T09:36:46Z</time>
      </trkpt>
      <trkpt lat="42.24825" lon="8.96192">
        <ele>1655.05</ele>
        <time>2015-09-11T09:36:49Z</time>
      </trkpt>
      <trkpt lat="42.24821" lon="8.96191">
        <ele>1653.6</ele>
        <time>2015-09-11T09:36:55Z</time>
      </trkpt>
      <trkpt lat="42.24818" lon="8.96191">
        <ele>1653.12</ele>
        <time>2015-09-11T09:36:58Z</time>
      </trkpt>
      <trkpt lat="42.24817" lon="8.96193">
        <ele>1652.64</ele>
        <time>2015-09-11T09:37:00Z</time>
      </trkpt>
      <trkpt lat="42.24813" lon="8.96199">
        <ele>1652.64</ele>
        <time>2015-09-11T09:37:05Z</time>
      </trkpt>
      <trkpt lat="42.24804" lon="8.96202">
        <ele>1651.68</ele>
        <time>2015-09-11T09:37:14Z</time>
      </trkpt>
      <trkpt lat="42.24796" lon="8.96206">
        <ele>1650.72</ele>
        <time>2015-09-11T09:37:26Z</time>
      </trkpt>
      <trkpt lat="42.24793" lon="8.96214">
        <ele>1649.28</ele>
        <time>2015-09-11T09:37:38Z</time>
      </trkpt>
      <trkpt lat="42.24793" lon="8.96215">
        <ele>1648.32</ele>
        <time>2015-09-11T09:37:42Z</time>
      </trkpt>
      <trkpt lat="42.24794" lon="8.96225">
        <ele>1646.88</ele>
        <time>2015-09-11T09:37:56Z</time>
      </trkpt>
      <trkpt lat="42.24786" lon="8.96227">
        <ele>1645.43</ele>
        <time>2015-09-11T09:38:07Z</time>
      </trkpt>
      <trkpt lat="42.24783" lon="8.96229">
        <ele>1644.47</ele>
        <time>2015-09-11T09:38:10Z</time>
      </trkpt>
      <trkpt lat="42.24783" lon="8.96225">
        <ele>1643.99</ele>
        <time>2015-09-11T09:38:13Z</time>
      </trkpt>
      <trkpt lat="42.24781" lon="8.96222">
        <ele>1643.51</ele>
        <time>2015-09-11T09:38:17Z</time>
      </trkpt>
      <trkpt lat="42.24778" lon="8.96222">
        <ele>1643.51</ele>
        <time>2015-09-11T09:38:20Z</time>
      </trkpt>
      <trkpt lat="42.24774" lon="8.96222">
        <ele>1642.55</ele>
        <time>2015-09-11T09:38:24Z</time>
      </trkpt>
      <trkpt lat="42.24772" lon="8.96223">
        <ele>1642.55</ele>
        <time>2015-09-11T09:38:27Z</time>
      </trkpt>
      <trkpt lat="42.24773" lon="8.96229">
        <ele>1641.59</ele>
        <time>2015-09-11T09:38:32Z</time>
      </trkpt>
      <trkpt lat="42.24772" lon="8.96231">
        <ele>1641.59</ele>
        <time>2015-09-11T09:38:34Z</time>
      </trkpt>
      <trkpt lat="42.2477" lon="8.96231">
        <ele>1640.15</ele>
        <time>2015-09-11T09:38:37Z</time>
      </trkpt>
      <trkpt lat="42.24764" lon="8.96233">
        <ele>1639.67</ele>
        <time>2015-09-11T09:38:43Z</time>
      </trkpt>
      <trkpt lat="42.24762" lon="8.96239">
        <ele>1639.19</ele>
        <time>2015-09-11T09:38:49Z</time>
      </trkpt>
      <trkpt lat="42.24755" lon="8.96242">
        <ele>1638.22</ele>
        <time>2015-09-11T09:38:56Z</time>
      </trkpt>
      <trkpt lat="42.24749" lon="8.96245">
        <ele>1637.74</ele>
        <time>2015-09-11T09:39:03Z</time>
      </trkpt>
      <trkpt lat="42.24747" lon="8.96251">
        <ele>1637.26</ele>
        <time>2015-09-11T09:39:07Z</time>
      </trkpt>
      <trkpt lat="42.24735" lon="8.96264">
        <ele>1635.82</ele>
        <time>2015-09-11T09:39:20Z</time>
      </trkpt>
      <trkpt lat="42.24726" lon="8.96267">
        <ele>1634.86</ele>
        <time>2015-09-11T09:39:31Z</time>
      </trkpt>
      <trkpt lat="42.24722" lon="8.96268">
        <ele>1634.86</ele>
        <time>2015-09-11T09:39:44Z</time>
      </trkpt>
      <trkpt lat="42.24715" lon="8.96269">
        <ele>1633.9</ele>
        <time>2015-09-11T09:39:56Z</time>
      </trkpt>
      <trkpt lat="42.24712" lon="8.9627">
        <ele>1633.42</ele>
        <time>2015-09-11T09:39:59Z</time>
      </trkpt>
      <trkpt lat="42.24709" lon="8.96268">
        <ele>1633.42</ele>
        <time>2015-09-11T09:40:03Z</time>
      </trkpt>
      <trkpt lat="42.24707" lon="8.9627">
        <ele>1632.94</ele>
        <time>2015-09-11T09:40:06Z</time>
      </trkpt>
      <trkpt lat="42.24701" lon="8.96273">
        <ele>1632.46</ele>
        <time>2015-09-11T09:40:14Z</time>
      </trkpt>
      <trkpt lat="42.24691" lon="8.96278">
        <ele>1631.98</ele>
        <time>2015-09-11T09:40:25Z</time>
      </trkpt>
      <trkpt lat="42.24688" lon="8.9628">
        <ele>1631.98</ele>
        <time>2015-09-11T09:40:28Z</time>
      </trkpt>
      <trkpt lat="42.24683" lon="8.96281">
        <ele>1631.01</ele>
        <time>2015-09-11T09:40:32Z</time>
      </trkpt>
      <trkpt lat="42.24673" lon="8.96285">
        <ele>1630.53</ele>
        <time>2015-09-11T09:40:43Z</time>
      </trkpt>
      <trkpt lat="42.24672" lon="8.96286">
        <ele>1629.57</ele>
        <time>2015-09-11T09:40:46Z</time>
      </trkpt>
      <trkpt lat="42.24665" lon="8.96289">
        <ele>1627.17</ele>
        <time>2015-09-11T09:40:58Z</time>
      </trkpt>
      <trkpt lat="42.24665" lon="8.9629">
        <ele>1627.65</ele>
        <time>2015-09-11T09:40:59Z</time>
      </trkpt>
      <trkpt lat="42.24664" lon="8.9629">
        <ele>1627.17</ele>
        <time>2015-09-11T09:41:14Z</time>
      </trkpt>
      <trkpt lat="42.24661" lon="8.96289">
        <ele>1627.17</ele>
        <time>2015-09-11T09:41:25Z</time>
      </trkpt>
      <trkpt lat="42.24661" lon="8.96292">
        <ele>1627.65</ele>
        <time>2015-09-11T09:41:41Z</time>
      </trkpt>
      <trkpt lat="42.24658" lon="8.96298">
        <ele>1626.21</ele>
        <time>2015-09-11T09:41:46Z</time>
      </trkpt>
      <trkpt lat="42.24656" lon="8.96301">
        <ele>1626.21</ele>
        <time>2015-09-11T09:41:54Z</time>
      </trkpt>
      <trkpt lat="42.24652" lon="8.96298">
        <ele>1625.73</ele>
        <time>2015-09-11T09:42:06Z</time>
      </trkpt>
      <trkpt lat="42.24649" lon="8.96299">
        <ele>1625.25</ele>
        <time>2015-09-11T09:42:10Z</time>
      </trkpt>
      <trkpt lat="42.24647" lon="8.96298">
        <ele>1625.73</ele>
        <time>2015-09-11T09:42:22Z</time>
      </trkpt>
      <trkpt lat="42.24651" lon="8.96298">
        <ele>1626.21</ele>
        <time>2015-09-11T09:42:39Z</time>
      </trkpt>
      <trkpt lat="42.24651" lon="8.963">
        <ele>1625.73</ele>
        <time>2015-09-11T09:42:41Z</time>
      </trkpt>
      <trkpt lat="42.24652" lon="8.9631">
        <ele>1625.25</ele>
        <time>2015-09-11T09:42:47Z</time>
      </trkpt>
      <trkpt lat="42.24644" lon="8.96326">
        <ele>1624.28</ele>
        <time>2015-09-11T09:43:00Z</time>
      </trkpt>
      <trkpt lat="42.24649" lon="8.96331">
        <ele>1624.28</ele>
        <time>2015-09-11T09:43:13Z</time>
      </trkpt>
      <trkpt lat="42.24649" lon="8.96331">
        <ele>1624.28</ele>
        <time>2015-09-11T09:43:17Z</time>
      </trkpt>
      <trkpt lat="42.24645" lon="8.96336">
        <ele>1623.8</ele>
        <time>2015-09-11T09:43:22Z</time>
      </trkpt>
      <trkpt lat="42.2464" lon="8.96341">
        <ele>1623.8</ele>
        <time>2015-09-11T09:43:28Z</time>
      </trkpt>
      <trkpt lat="42.24636" lon="8.96351">
        <ele>1623.8</ele>
        <time>2015-09-11T09:43:38Z</time>
      </trkpt>
      <trkpt lat="42.24632" lon="8.96352">
        <ele>1623.32</ele>
        <time>2015-09-11T09:43:41Z</time>
      </trkpt>
      <trkpt lat="42.24627" lon="8.96361">
        <ele>1622.84</ele>
        <time>2015-09-11T09:43:48Z</time>
      </trkpt>
      <trkpt lat="42.24625" lon="8.96364">
        <ele>1622.36</ele>
        <time>2015-09-11T09:43:51Z</time>
      </trkpt>
      <trkpt lat="42.24622" lon="8.96366">
        <ele>1622.36</ele>
        <time>2015-09-11T09:43:54Z</time>
      </trkpt>
      <trkpt lat="42.24618" lon="8.96367">
        <ele>1621.88</ele>
        <time>2015-09-11T09:43:57Z</time>
      </trkpt>
      <trkpt lat="42.24614" lon="8.96374">
        <ele>1621.88</ele>
        <time>2015-09-11T09:44:03Z</time>
      </trkpt>
      <trkpt lat="42.24612" lon="8.96375">
        <ele>1621.88</ele>
        <time>2015-09-11T09:44:05Z</time>
      </trkpt>
      <trkpt lat="42.24605" lon="8.9638">
        <ele>1620.92</ele>
        <time>2015-09-11T09:44:13Z</time>
      </trkpt>
      <trkpt lat="42.24603" lon="8.96386">
        <ele>1619.48</ele>
        <time>2015-09-11T09:44:21Z</time>
      </trkpt>
      <trkpt lat="42.24602" lon="8.96389">
        <ele>1619</ele>
        <time>2015-09-11T09:44:24Z</time>
      </trkpt>
      <trkpt lat="42.24603" lon="8.96393">
        <ele>1618.52</ele>
        <time>2015-09-11T09:44:27Z</time>
      </trkpt>
      <trkpt lat="42.24597" lon="8.96408">
        <ele>1618.04</ele>
        <time>2015-09-11T09:44:41Z</time>
      </trkpt>
      <trkpt lat="42.24596" lon="8.96408">
        <ele>1618.04</ele>
        <time>2015-09-11T09:44:43Z</time>
      </trkpt>
      <trkpt lat="42.24592" lon="8.96413">
        <ele>1617.56</ele>
        <time>2015-09-11T09:44:48Z</time>
      </trkpt>
      <trkpt lat="42.24587" lon="8.96419">
        <ele>1617.07</ele>
        <time>2015-09-11T09:44:53Z</time>
      </trkpt>
      <trkpt lat="42.24584" lon="8.96423">
        <ele>1617.07</ele>
        <time>2015-09-11T09:44:59Z</time>
      </trkpt>
      <trkpt lat="42.24577" lon="8.96436">
        <ele>1616.59</ele>
        <time>2015-09-11T09:45:11Z</time>
      </trkpt>
      <trkpt lat="42.2457" lon="8.9645">
        <ele>1615.15</ele>
        <time>2015-09-11T09:45:22Z</time>
      </trkpt>
      <trkpt lat="42.24567" lon="8.96454">
        <ele>1614.19</ele>
        <time>2015-09-11T09:45:27Z</time>
      </trkpt>
      <trkpt lat="42.24563" lon="8.9646">
        <ele>1613.23</ele>
        <time>2015-09-11T09:45:33Z</time>
      </trkpt>
      <trkpt lat="42.24562" lon="8.96462">
        <ele>1613.23</ele>
        <time>2015-09-11T09:45:36Z</time>
      </trkpt>
      <trkpt lat="42.24556" lon="8.96467">
        <ele>1612.27</ele>
        <time>2015-09-11T09:45:41Z</time>
      </trkpt>
      <trkpt lat="42.24552" lon="8.96474">
        <ele>1612.27</ele>
        <time>2015-09-11T09:45:46Z</time>
      </trkpt>
      <trkpt lat="42.2455" lon="8.96478">
        <ele>1611.79</ele>
        <time>2015-09-11T09:45:49Z</time>
      </trkpt>
      <trkpt lat="42.24551" lon="8.96481">
        <ele>1611.79</ele>
        <time>2015-09-11T09:45:51Z</time>
      </trkpt>
      <trkpt lat="42.24548" lon="8.96494">
        <ele>1611.31</ele>
        <time>2015-09-11T09:46:02Z</time>
      </trkpt>
      <trkpt lat="42.24541" lon="8.96504">
        <ele>1610.35</ele>
        <time>2015-09-11T09:46:13Z</time>
      </trkpt>
      <trkpt lat="42.24541" lon="8.96508">
        <ele>1610.35</ele>
        <time>2015-09-11T09:46:16Z</time>
      </trkpt>
      <trkpt lat="42.24541" lon="8.96515">
        <ele>1610.83</ele>
        <time>2015-09-11T09:46:22Z</time>
      </trkpt>
      <trkpt lat="42.24534" lon="8.96535">
        <ele>1610.35</ele>
        <time>2015-09-11T09:46:36Z</time>
      </trkpt>
      <trkpt lat="42.24531" lon="8.96539">
        <ele>1610.35</ele>
        <time>2015-09-11T09:46:40Z</time>
      </trkpt>
      <trkpt lat="42.24531" lon="8.96543">
        <ele>1609.86</ele>
        <time>2015-09-11T09:46:44Z</time>
      </trkpt>
      <trkpt lat="42.24528" lon="8.9655">
        <ele>1609.38</ele>
        <time>2015-09-11T09:46:50Z</time>
      </trkpt>
      <trkpt lat="42.24513" lon="8.96562">
        <ele>1609.38</ele>
        <time>2015-09-11T09:47:05Z</time>
      </trkpt>
      <trkpt lat="42.245" lon="8.96571">
        <ele>1608.9</ele>
        <time>2015-09-11T09:47:17Z</time>
      </trkpt>
      <trkpt lat="42.2449" lon="8.96574">
        <ele>1607.94</ele>
        <time>2015-09-11T09:47:28Z</time>
      </trkpt>
      <trkpt lat="42.24487" lon="8.96577">
        <ele>1608.42</ele>
        <time>2015-09-11T09:47:31Z</time>
      </trkpt>
      <trkpt lat="42.24474" lon="8.96591">
        <ele>1607.46</ele>
        <time>2015-09-11T09:47:45Z</time>
      </trkpt>
      <trkpt lat="42.24471" lon="8.96593">
        <ele>1607.46</ele>
        <time>2015-09-11T09:47:48Z</time>
      </trkpt>
      <trkpt lat="42.24462" lon="8.96602">
        <ele>1607.46</ele>
        <time>2015-09-11T09:47:58Z</time>
      </trkpt>
      <trkpt lat="42.24461" lon="8.96602">
        <ele>1606.98</ele>
        <time>2015-09-11T09:48:02Z</time>
      </trkpt>
      <trkpt lat="42.24456" lon="8.96606">
        <ele>1607.46</ele>
        <time>2015-09-11T09:48:06Z</time>
      </trkpt>
      <trkpt lat="42.24444" lon="8.96621">
        <ele>1606.5</ele>
        <time>2015-09-11T09:48:20Z</time>
      </trkpt>
      <trkpt lat="42.24442" lon="8.96623">
        <ele>1606.02</ele>
        <time>2015-09-11T09:48:22Z</time>
      </trkpt>
      <trkpt lat="42.24438" lon="8.96637">
        <ele>1605.54</ele>
        <time>2015-09-11T09:48:33Z</time>
      </trkpt>
      <trkpt lat="42.24437" lon="8.96643">
        <ele>1605.54</ele>
        <time>2015-09-11T09:48:38Z</time>
      </trkpt>
      <trkpt lat="42.24432" lon="8.9665">
        <ele>1606.02</ele>
        <time>2015-09-11T09:48:44Z</time>
      </trkpt>
      <trkpt lat="42.24426" lon="8.96656">
        <ele>1606.02</ele>
        <time>2015-09-11T09:48:50Z</time>
      </trkpt>
      <trkpt lat="42.24425" lon="8.96658">
        <ele>1606.02</ele>
        <time>2015-09-11T09:48:52Z</time>
      </trkpt>
      <trkpt lat="42.24419" lon="8.96663">
        <ele>1606.02</ele>
        <time>2015-09-11T09:48:57Z</time>
      </trkpt>
      <trkpt lat="42.24403" lon="8.96672">
        <ele>1606.98</ele>
        <time>2015-09-11T09:49:11Z</time>
      </trkpt>
      <trkpt lat="42.24391" lon="8.96683">
        <ele>1606.98</ele>
        <time>2015-09-11T09:49:23Z</time>
      </trkpt>
      <trkpt lat="42.24381" lon="8.96695">
        <ele>1606.5</ele>
        <time>2015-09-11T09:49:34Z</time>
      </trkpt>
      <trkpt lat="42.24378" lon="8.967">
        <ele>1606.98</ele>
        <time>2015-09-11T09:49:39Z</time>
      </trkpt>
      <trkpt lat="42.24376" lon="8.96704">
        <ele>1606.5</ele>
        <time>2015-09-11T09:49:44Z</time>
      </trkpt>
      <trkpt lat="42.24374" lon="8.9671">
        <ele>1606.98</ele>
        <time>2015-09-11T09:49:48Z</time>
      </trkpt>
      <trkpt lat="42.24373" lon="8.96717">
        <ele>1606.98</ele>
        <time>2015-09-11T09:49:52Z</time>
      </trkpt>
      <trkpt lat="42.24363" lon="8.96733">
        <ele>1606.98</ele>
        <time>2015-09-11T09:50:05Z</time>
      </trkpt>
      <trkpt lat="42.2436" lon="8.96751">
        <ele>1606.98</ele>
        <time>2015-09-11T09:50:16Z</time>
      </trkpt>
      <trkpt lat="42.2435" lon="8.9677">
        <ele>1606.02</ele>
        <time>2015-09-11T09:50:29Z</time>
      </trkpt>
      <trkpt lat="42.24347" lon="8.96776">
        <ele>1606.5</ele>
        <time>2015-09-11T09:50:35Z</time>
      </trkpt>
      <trkpt lat="42.24351" lon="8.96787">
        <ele>1606.02</ele>
        <time>2015-09-11T09:50:48Z</time>
      </trkpt>
      <trkpt lat="42.24352" lon="8.96788">
        <ele>1605.54</ele>
        <time>2015-09-11T09:50:52Z</time>
      </trkpt>
      <trkpt lat="42.24351" lon="8.9679">
        <ele>1605.54</ele>
        <time>2015-09-11T09:50:54Z</time>
      </trkpt>
      <trkpt lat="42.24353" lon="8.96796">
        <ele>1605.54</ele>
        <time>2015-09-11T09:50:58Z</time>
      </trkpt>
      <trkpt lat="42.24356" lon="8.96802">
        <ele>1604.58</ele>
        <time>2015-09-11T09:51:09Z</time>
      </trkpt>
      <trkpt lat="42.24355" lon="8.96804">
        <ele>1604.1</ele>
        <time>2015-09-11T09:51:11Z</time>
      </trkpt>
      <trkpt lat="42.24354" lon="8.96809">
        <ele>1604.1</ele>
        <time>2015-09-11T09:51:14Z</time>
      </trkpt>
      <trkpt lat="42.24357" lon="8.96813">
        <ele>1604.1</ele>
        <time>2015-09-11T09:51:27Z</time>
      </trkpt>
      <trkpt lat="42.24357" lon="8.96813">
        <ele>1604.1</ele>
        <time>2015-09-11T09:51:34Z</time>
      </trkpt>
      <trkpt lat="42.24357" lon="8.96808">
        <ele>1604.1</ele>
        <time>2015-09-11T09:51:38Z</time>
      </trkpt>
      <trkpt lat="42.24352" lon="8.96794">
        <ele>1605.06</ele>
        <time>2015-09-11T09:51:51Z</time>
      </trkpt>
      <trkpt lat="42.24351" lon="8.9679">
        <ele>1605.54</ele>
        <time>2015-09-11T09:52:04Z</time>
      </trkpt>
      <trkpt lat="42.24344" lon="8.96791">
        <ele>1605.54</ele>
        <time>2015-09-11T09:52:13Z</time>
      </trkpt>
      <trkpt lat="42.24343" lon="8.96791">
        <ele>1606.02</ele>
        <time>2015-09-11T09:52:15Z</time>
      </trkpt>
      <trkpt lat="42.24341" lon="8.96791">
        <ele>1606.5</ele>
        <time>2015-09-11T09:52:17Z</time>
      </trkpt>
      <trkpt lat="42.24338" lon="8.96789">
        <ele>1606.5</ele>
        <time>2015-09-11T09:52:20Z</time>
      </trkpt>
      <trkpt lat="42.24334" lon="8.96792">
        <ele>1606.5</ele>
        <time>2015-09-11T09:52:25Z</time>
      </trkpt>
      <trkpt lat="42.24327" lon="8.96803">
        <ele>1606.5</ele>
        <time>2015-09-11T09:52:35Z</time>
      </trkpt>
      <trkpt lat="42.24321" lon="8.96807">
        <ele>1606.02</ele>
        <time>2015-09-11T09:52:42Z</time>
      </trkpt>
      <trkpt lat="42.24316" lon="8.96813">
        <ele>1606.02</ele>
        <time>2015-09-11T09:52:50Z</time>
      </trkpt>
      <trkpt lat="42.24312" lon="8.96822">
        <ele>1605.06</ele>
        <time>2015-09-11T09:52:59Z</time>
      </trkpt>
      <trkpt lat="42.24303" lon="8.96825">
        <ele>1605.06</ele>
        <time>2015-09-11T09:53:08Z</time>
      </trkpt>
      <trkpt lat="42.24293" lon="8.96824">
        <ele>1605.06</ele>
        <time>2015-09-11T09:53:18Z</time>
      </trkpt>
      <trkpt lat="42.2429" lon="8.96823">
        <ele>1605.06</ele>
        <time>2015-09-11T09:53:22Z</time>
      </trkpt>
      <trkpt lat="42.24287" lon="8.96826">
        <ele>1605.06</ele>
        <time>2015-09-11T09:53:26Z</time>
      </trkpt>
      <trkpt lat="42.24282" lon="8.96831">
        <ele>1604.1</ele>
        <time>2015-09-11T09:53:33Z</time>
      </trkpt>
      <trkpt lat="42.2428" lon="8.96837">
        <ele>1603.62</ele>
        <time>2015-09-11T09:53:38Z</time>
      </trkpt>
      <trkpt lat="42.24276" lon="8.96852">
        <ele>1603.62</ele>
        <time>2015-09-11T09:53:50Z</time>
      </trkpt>
      <trkpt lat="42.24275" lon="8.96853">
        <ele>1603.62</ele>
        <time>2015-09-11T09:53:51Z</time>
      </trkpt>
      <trkpt lat="42.24265" lon="8.96864">
        <ele>1604.58</ele>
        <time>2015-09-11T09:54:03Z</time>
      </trkpt>
      <trkpt lat="42.24262" lon="8.9687">
        <ele>1604.58</ele>
        <time>2015-09-11T09:54:08Z</time>
      </trkpt>
      <trkpt lat="42.24257" lon="8.96875">
        <ele>1605.06</ele>
        <time>2015-09-11T09:54:16Z</time>
      </trkpt>
      <trkpt lat="42.24253" lon="8.9688">
        <ele>1605.54</ele>
        <time>2015-09-11T09:54:21Z</time>
      </trkpt>
      <trkpt lat="42.2425" lon="8.96883">
        <ele>1606.02</ele>
        <time>2015-09-11T09:54:24Z</time>
      </trkpt>
      <trkpt lat="42.24247" lon="8.96887">
        <ele>1606.02</ele>
        <time>2015-09-11T09:54:28Z</time>
      </trkpt>
      <trkpt lat="42.2424" lon="8.96899">
        <ele>1606.02</ele>
        <time>2015-09-11T09:54:42Z</time>
      </trkpt>
      <trkpt lat="42.24238" lon="8.96901">
        <ele>1605.54</ele>
        <time>2015-09-11T09:54:45Z</time>
      </trkpt>
      <trkpt lat="42.24232" lon="8.96908">
        <ele>1605.54</ele>
        <time>2015-09-11T09:54:53Z</time>
      </trkpt>
      <trkpt lat="42.24231" lon="8.96911">
        <ele>1605.06</ele>
        <time>2015-09-11T09:54:55Z</time>
      </trkpt>
      <trkpt lat="42.24229" lon="8.96926">
        <ele>1603.62</ele>
        <time>2015-09-11T09:55:07Z</time>
      </trkpt>
      <trkpt lat="42.24219" lon="8.9694">
        <ele>1604.58</ele>
        <time>2015-09-11T09:55:21Z</time>
      </trkpt>
      <trkpt lat="42.24218" lon="8.96948">
        <ele>1604.58</ele>
        <time>2015-09-11T09:55:29Z</time>
      </trkpt>
      <trkpt lat="42.2421" lon="8.96959">
        <ele>1605.54</ele>
        <time>2015-09-11T09:55:42Z</time>
      </trkpt>
      <trkpt lat="42.24208" lon="8.96962">
        <ele>1605.54</ele>
        <time>2015-09-11T09:55:55Z</time>
      </trkpt>
      <trkpt lat="42.24201" lon="8.96975">
        <ele>1606.98</ele>
        <time>2015-09-11T09:56:07Z</time>
      </trkpt>
      <trkpt lat="42.242" lon="8.96986">
        <ele>1606.02</ele>
        <time>2015-09-11T09:56:14Z</time>
      </trkpt>
      <trkpt lat="42.24195" lon="8.96994">
        <ele>1605.54</ele>
        <time>2015-09-11T09:56:24Z</time>
      </trkpt>
      <trkpt lat="42.24189" lon="8.97002">
        <ele>1607.94</ele>
        <time>2015-09-11T09:56:34Z</time>
      </trkpt>
      <trkpt lat="42.24184" lon="8.97018">
        <ele>1607.94</ele>
        <time>2015-09-11T09:56:46Z</time>
      </trkpt>
      <trkpt lat="42.24174" lon="8.97027">
        <ele>1606.98</ele>
        <time>2015-09-11T09:56:58Z</time>
      </trkpt>
      <trkpt lat="42.24162" lon="8.97034">
        <ele>1606.02</ele>
        <time>2015-09-11T09:57:12Z</time>
      </trkpt>
      <trkpt lat="42.24162" lon="8.97036">
        <ele>1606.02</ele>
        <time>2015-09-11T09:57:14Z</time>
      </trkpt>
      <trkpt lat="42.24159" lon="8.9704">
        <ele>1606.02</ele>
        <time>2015-09-11T09:57:18Z</time>
      </trkpt>
      <trkpt lat="42.24155" lon="8.97043">
        <ele>1606.02</ele>
        <time>2015-09-11T09:57:22Z</time>
      </trkpt>
      <trkpt lat="42.24148" lon="8.97057">
        <ele>1605.06</ele>
        <time>2015-09-11T09:57:35Z</time>
      </trkpt>
      <trkpt lat="42.24147" lon="8.97062">
        <ele>1605.06</ele>
        <time>2015-09-11T09:57:38Z</time>
      </trkpt>
      <trkpt lat="42.24139" lon="8.97071">
        <ele>1605.54</ele>
        <time>2015-09-11T09:57:48Z</time>
      </trkpt>
      <trkpt lat="42.24132" lon="8.9708">
        <ele>1606.02</ele>
        <time>2015-09-11T09:57:58Z</time>
      </trkpt>
      <trkpt lat="42.24127" lon="8.97088">
        <ele>1606.02</ele>
        <time>2015-09-11T09:58:06Z</time>
      </trkpt>
      <trkpt lat="42.24121" lon="8.97087">
        <ele>1606.02</ele>
        <time>2015-09-11T09:58:19Z</time>
      </trkpt>
      <trkpt lat="42.2412" lon="8.97087">
        <ele>1606.5</ele>
        <time>2015-09-11T09:58:46Z</time>
      </trkpt>
      <trkpt lat="42.2412" lon="8.97086">
        <ele>1606.02</ele>
        <time>2015-09-11T09:59:07Z</time>
      </trkpt>
      <trkpt lat="42.2412" lon="8.97086">
        <ele>1606.98</ele>
        <time>2015-09-11T09:59:31Z</time>
      </trkpt>
      <trkpt lat="42.24122" lon="8.97088">
        <ele>1605.54</ele>
        <time>2015-09-11T09:59:48Z</time>
      </trkpt>
      <trkpt lat="42.24122" lon="8.97088">
        <ele>1606.02</ele>
        <time>2015-09-11T10:00:03Z</time>
      </trkpt>
      <trkpt lat="42.24121" lon="8.97087">
        <ele>1606.5</ele>
        <time>2015-09-11T10:00:22Z</time>
      </trkpt>
      <trkpt lat="42.24121" lon="8.97087">
        <ele>1606.02</ele>
        <time>2015-09-11T10:01:01Z</time>
      </trkpt>
      <trkpt lat="42.24121" lon="8.97087">
        <ele>1606.02</ele>
        <time>2015-09-11T10:01:29Z</time>
      </trkpt>
      <trkpt lat="42.24121" lon="8.97086">
        <ele>1606.5</ele>
        <time>2015-09-11T10:02:02Z</time>
      </trkpt>
      <trkpt lat="42.24122" lon="8.97086">
        <ele>1606.5</ele>
        <time>2015-09-11T10:02:27Z</time>
      </trkpt>
      <trkpt lat="42.24122" lon="8.97086">
        <ele>1606.02</ele>
        <time>2015-09-11T10:03:03Z</time>
      </trkpt>
      <trkpt lat="42.24121" lon="8.97086">
        <ele>1606.02</ele>
        <time>2015-09-11T10:03:41Z</time>
      </trkpt>
      <trkpt lat="42.24121" lon="8.97086">
        <ele>1606.5</ele>
        <time>2015-09-11T10:04:14Z</time>
      </trkpt>
      <trkpt lat="42.24122" lon="8.97086">
        <ele>1606.5</ele>
        <time>2015-09-11T10:04:33Z</time>
      </trkpt>
      <trkpt lat="42.24122" lon="8.97087">
        <ele>1606.5</ele>
        <time>2015-09-11T10:04:57Z</time>
      </trkpt>
      <trkpt lat="42.24122" lon="8.97087">
        <ele>1605.54</ele>
        <time>2015-09-11T10:05:13Z</time>
      </trkpt>
      <trkpt lat="42.24123" lon="8.97088">
        <ele>1605.54</ele>
        <time>2015-09-11T10:05:47Z</time>
      </trkpt>
      <trkpt lat="42.24122" lon="8.97088">
        <ele>1605.06</ele>
        <time>2015-09-11T10:06:25Z</time>
      </trkpt>
      <trkpt lat="42.24122" lon="8.97089">
        <ele>1606.5</ele>
        <time>2015-09-11T10:06:41Z</time>
      </trkpt>
      <trkpt lat="42.24121" lon="8.97089">
        <ele>1606.02</ele>
        <time>2015-09-11T10:06:55Z</time>
      </trkpt>
      <trkpt lat="42.24121" lon="8.97089">
        <ele>1606.02</ele>
        <time>2015-09-11T10:06:58Z</time>
      </trkpt>
      <trkpt lat="42.24121" lon="8.9709">
        <ele>1605.54</ele>
        <time>2015-09-11T10:07:05Z</time>
      </trkpt>
      <trkpt lat="42.2412" lon="8.97093">
        <ele>1605.54</ele>
        <time>2015-09-11T10:07:08Z</time>
      </trkpt>
      <trkpt lat="42.24116" lon="8.97095">
        <ele>1605.06</ele>
        <time>2015-09-11T10:07:14Z</time>
      </trkpt>
      <trkpt lat="42.24115" lon="8.97098">
        <ele>1605.06</ele>
        <time>2015-09-11T10:07:16Z</time>
      </trkpt>
      <trkpt lat="42.24113" lon="8.97099">
        <ele>1605.06</ele>
        <time>2015-09-11T10:07:18Z</time>
      </trkpt>
      <trkpt lat="42.24111" lon="8.971">
        <ele>1605.06</ele>
        <time>2015-09-11T10:07:20Z</time>
      </trkpt>
      <trkpt lat="42.24107" lon="8.97103">
        <ele>1604.58</ele>
        <time>2015-09-11T10:07:24Z</time>
      </trkpt>
      <trkpt lat="42.24104" lon="8.97105">
        <ele>1604.1</ele>
        <time>2015-09-11T10:07:29Z</time>
      </trkpt>
      <trkpt lat="42.24099" lon="8.97112">
        <ele>1603.62</ele>
        <time>2015-09-11T10:07:38Z</time>
      </trkpt>
      <trkpt lat="42.24092" lon="8.97121">
        <ele>1602.66</ele>
        <time>2015-09-11T10:07:48Z</time>
      </trkpt>
      <trkpt lat="42.24087" lon="8.97125">
        <ele>1602.66</ele>
        <time>2015-09-11T10:07:53Z</time>
      </trkpt>
      <trkpt lat="42.24083" lon="8.97131">
        <ele>1602.17</ele>
        <time>2015-09-11T10:07:58Z</time>
      </trkpt>
      <trkpt lat="42.24079" lon="8.97137">
        <ele>1602.17</ele>
        <time>2015-09-11T10:08:04Z</time>
      </trkpt>
      <trkpt lat="42.24071" lon="8.97145">
        <ele>1601.69</ele>
        <time>2015-09-11T10:08:12Z</time>
      </trkpt>
      <trkpt lat="42.24066" lon="8.97152">
        <ele>1600.73</ele>
        <time>2015-09-11T10:08:20Z</time>
      </trkpt>
      <trkpt lat="42.24064" lon="8.97155">
        <ele>1600.73</ele>
        <time>2015-09-11T10:08:22Z</time>
      </trkpt>
      <trkpt lat="42.2406" lon="8.97157">
        <ele>1600.73</ele>
        <time>2015-09-11T10:08:26Z</time>
      </trkpt>
      <trkpt lat="42.24058" lon="8.97159">
        <ele>1600.73</ele>
        <time>2015-09-11T10:08:28Z</time>
      </trkpt>
      <trkpt lat="42.24055" lon="8.97161">
        <ele>1601.21</ele>
        <time>2015-09-11T10:08:31Z</time>
      </trkpt>
      <trkpt lat="42.24051" lon="8.97164">
        <ele>1601.69</ele>
        <time>2015-09-11T10:08:36Z</time>
      </trkpt>
      <trkpt lat="42.24044" lon="8.97177">
        <ele>1601.21</ele>
        <time>2015-09-11T10:08:48Z</time>
      </trkpt>
      <trkpt lat="42.24038" lon="8.97182">
        <ele>1602.17</ele>
        <time>2015-09-11T10:08:55Z</time>
      </trkpt>
      <trkpt lat="42.24033" lon="8.97186">
        <ele>1602.17</ele>
        <time>2015-09-11T10:09:00Z</time>
      </trkpt>
      <trkpt lat="42.24025" lon="8.972">
        <ele>1602.66</ele>
        <time>2015-09-11T10:09:12Z</time>
      </trkpt>
      <trkpt lat="42.24024" lon="8.97201">
        <ele>1602.66</ele>
        <time>2015-09-11T10:09:13Z</time>
      </trkpt>
      <trkpt lat="42.2402" lon="8.97206">
        <ele>1603.14</ele>
        <time>2015-09-11T10:09:19Z</time>
      </trkpt>
      <trkpt lat="42.24015" lon="8.97211">
        <ele>1603.62</ele>
        <time>2015-09-11T10:09:26Z</time>
      </trkpt>
      <trkpt lat="42.24013" lon="8.97211">
        <ele>1603.62</ele>
        <time>2015-09-11T10:09:29Z</time>
      </trkpt>
      <trkpt lat="42.24006" lon="8.97224">
        <ele>1604.1</ele>
        <time>2015-09-11T10:09:40Z</time>
      </trkpt>
      <trkpt lat="42.24002" lon="8.97231">
        <ele>1603.62</ele>
        <time>2015-09-11T10:09:46Z</time>
      </trkpt>
      <trkpt lat="42.23993" lon="8.97246">
        <ele>1604.1</ele>
        <time>2015-09-11T10:09:59Z</time>
      </trkpt>
      <trkpt lat="42.23988" lon="8.97253">
        <ele>1604.58</ele>
        <time>2015-09-11T10:10:06Z</time>
      </trkpt>
      <trkpt lat="42.23984" lon="8.97257">
        <ele>1604.1</ele>
        <time>2015-09-11T10:10:11Z</time>
      </trkpt>
      <trkpt lat="42.23977" lon="8.97266">
        <ele>1604.1</ele>
        <time>2015-09-11T10:10:20Z</time>
      </trkpt>
      <trkpt lat="42.23973" lon="8.97272">
        <ele>1603.62</ele>
        <time>2015-09-11T10:10:26Z</time>
      </trkpt>
      <trkpt lat="42.23971" lon="8.97278">
        <ele>1603.14</ele>
        <time>2015-09-11T10:10:30Z</time>
      </trkpt>
      <trkpt lat="42.23967" lon="8.97282">
        <ele>1602.66</ele>
        <time>2015-09-11T10:10:34Z</time>
      </trkpt>
      <trkpt lat="42.23961" lon="8.97286">
        <ele>1603.14</ele>
        <time>2015-09-11T10:10:41Z</time>
      </trkpt>
      <trkpt lat="42.23959" lon="8.97287">
        <ele>1603.14</ele>
        <time>2015-09-11T10:10:43Z</time>
      </trkpt>
      <trkpt lat="42.23955" lon="8.97291">
        <ele>1602.66</ele>
        <time>2015-09-11T10:10:47Z</time>
      </trkpt>
      <trkpt lat="42.23944" lon="8.97298">
        <ele>1602.17</ele>
        <time>2015-09-11T10:10:57Z</time>
      </trkpt>
      <trkpt lat="42.23937" lon="8.97301">
        <ele>1601.21</ele>
        <time>2015-09-11T10:11:05Z</time>
      </trkpt>
      <trkpt lat="42.23931" lon="8.97306">
        <ele>1600.73</ele>
        <time>2015-09-11T10:11:11Z</time>
      </trkpt>
      <trkpt lat="42.23923" lon="8.97315">
        <ele>1600.25</ele>
        <time>2015-09-11T10:11:21Z</time>
      </trkpt>
      <trkpt lat="42.23918" lon="8.97321">
        <ele>1600.25</ele>
        <time>2015-09-11T10:11:26Z</time>
      </trkpt>
      <trkpt lat="42.2391" lon="8.97328">
        <ele>1600.73</ele>
        <time>2015-09-11T10:11:34Z</time>
      </trkpt>
      <trkpt lat="42.23906" lon="8.97333">
        <ele>1600.25</ele>
        <time>2015-09-11T10:11:38Z</time>
      </trkpt>
      <trkpt lat="42.23898" lon="8.97339">
        <ele>1600.73</ele>
        <time>2015-09-11T10:11:47Z</time>
      </trkpt>
      <trkpt lat="42.23893" lon="8.97344">
        <ele>1601.21</ele>
        <time>2015-09-11T10:11:53Z</time>
      </trkpt>
      <trkpt lat="42.23888" lon="8.97351">
        <ele>1600.73</ele>
        <time>2015-09-11T10:11:58Z</time>
      </trkpt>
      <trkpt lat="42.23875" lon="8.9736">
        <ele>1600.73</ele>
        <time>2015-09-11T10:12:10Z</time>
      </trkpt>
      <trkpt lat="42.23871" lon="8.97361">
        <ele>1600.25</ele>
        <time>2015-09-11T10:12:13Z</time>
      </trkpt>
      <trkpt lat="42.23865" lon="8.97362">
        <ele>1600.73</ele>
        <time>2015-09-11T10:12:18Z</time>
      </trkpt>
      <trkpt lat="42.23862" lon="8.97364">
        <ele>1600.25</ele>
        <time>2015-09-11T10:12:20Z</time>
      </trkpt>
      <trkpt lat="42.23858" lon="8.97367">
        <ele>1600.25</ele>
        <time>2015-09-11T10:12:25Z</time>
      </trkpt>
      <trkpt lat="42.23843" lon="8.97378">
        <ele>1600.25</ele>
        <time>2015-09-11T10:12:39Z</time>
      </trkpt>
      <trkpt lat="42.23836" lon="8.97382">
        <ele>1600.73</ele>
        <time>2015-09-11T10:12:46Z</time>
      </trkpt>
      <trkpt lat="42.23834" lon="8.97384">
        <ele>1600.73</ele>
        <time>2015-09-11T10:12:48Z</time>
      </trkpt>
      <trkpt lat="42.23824" lon="8.97391">
        <ele>1601.21</ele>
        <time>2015-09-11T10:12:57Z</time>
      </trkpt>
      <trkpt lat="42.2382" lon="8.97395">
        <ele>1601.21</ele>
        <time>2015-09-11T10:13:01Z</time>
      </trkpt>
      <trkpt lat="42.23814" lon="8.97405">
        <ele>1601.21</ele>
        <time>2015-09-11T10:13:09Z</time>
      </trkpt>
      <trkpt lat="42.238" lon="8.97414">
        <ele>1601.21</ele>
        <time>2015-09-11T10:13:22Z</time>
      </trkpt>
      <trkpt lat="42.23796" lon="8.97417">
        <ele>1601.69</ele>
        <time>2015-09-11T10:13:26Z</time>
      </trkpt>
      <trkpt lat="42.2379" lon="8.97418">
        <ele>1601.69</ele>
        <time>2015-09-11T10:13:32Z</time>
      </trkpt>
      <trkpt lat="42.23784" lon="8.97422">
        <ele>1601.69</ele>
        <time>2015-09-11T10:13:37Z</time>
      </trkpt>
      <trkpt lat="42.23768" lon="8.97434">
        <ele>1601.69</ele>
        <time>2015-09-11T10:13:52Z</time>
      </trkpt>
      <trkpt lat="42.23757" lon="8.97445">
        <ele>1602.17</ele>
        <time>2015-09-11T10:14:03Z</time>
      </trkpt>
      <trkpt lat="42.23751" lon="8.97451">
        <ele>1602.66</ele>
        <time>2015-09-11T10:14:11Z</time>
      </trkpt>
      <trkpt lat="42.23745" lon="8.97452">
        <ele>1603.62</ele>
        <time>2015-09-11T10:14:18Z</time>
      </trkpt>
      <trkpt lat="42.23741" lon="8.9746">
        <ele>1604.1</ele>
        <time>2015-09-11T10:14:25Z</time>
      </trkpt>
      <trkpt lat="42.23737" lon="8.97465">
        <ele>1604.58</ele>
        <time>2015-09-11T10:14:29Z</time>
      </trkpt>
      <trkpt lat="42.23733" lon="8.97466">
        <ele>1604.58</ele>
        <time>2015-09-11T10:14:33Z</time>
      </trkpt>
      <trkpt lat="42.23728" lon="8.97466">
        <ele>1605.06</ele>
        <time>2015-09-11T10:14:37Z</time>
      </trkpt>
      <trkpt lat="42.23725" lon="8.97465">
        <ele>1605.06</ele>
        <time>2015-09-11T10:14:40Z</time>
      </trkpt>
      <trkpt lat="42.23721" lon="8.97462">
        <ele>1605.06</ele>
        <time>2015-09-11T10:14:44Z</time>
      </trkpt>
      <trkpt lat="42.23719" lon="8.97459">
        <ele>1605.54</ele>
        <time>2015-09-11T10:14:48Z</time>
      </trkpt>
      <trkpt lat="42.23718" lon="8.97456">
        <ele>1604.58</ele>
        <time>2015-09-11T10:14:50Z</time>
      </trkpt>
      <trkpt lat="42.23716" lon="8.97452">
        <ele>1604.1</ele>
        <time>2015-09-11T10:14:54Z</time>
      </trkpt>
      <trkpt lat="42.23716" lon="8.97441">
        <ele>1603.62</ele>
        <time>2015-09-11T10:15:04Z</time>
      </trkpt>
      <trkpt lat="42.2371" lon="8.97436">
        <ele>1601.69</ele>
        <time>2015-09-11T10:15:15Z</time>
      </trkpt>
      <trkpt lat="42.23703" lon="8.97428">
        <ele>1599.77</ele>
        <time>2015-09-11T10:15:25Z</time>
      </trkpt>
      <trkpt lat="42.23693" lon="8.97431">
        <ele>1597.37</ele>
        <time>2015-09-11T10:15:34Z</time>
      </trkpt>
      <trkpt lat="42.23688" lon="8.97435">
        <ele>1596.89</ele>
        <time>2015-09-11T10:15:39Z</time>
      </trkpt>
      <trkpt lat="42.23678" lon="8.97437">
        <ele>1595.45</ele>
        <time>2015-09-11T10:15:49Z</time>
      </trkpt>
      <trkpt lat="42.23674" lon="8.97442">
        <ele>1594.96</ele>
        <time>2015-09-11T10:15:56Z</time>
      </trkpt>
      <trkpt lat="42.2366" lon="8.97444">
        <ele>1591.6</ele>
        <time>2015-09-11T10:16:10Z</time>
      </trkpt>
      <trkpt lat="42.23651" lon="8.97445">
        <ele>1589.68</ele>
        <time>2015-09-11T10:16:20Z</time>
      </trkpt>
      <trkpt lat="42.23648" lon="8.97442">
        <ele>1587.75</ele>
        <time>2015-09-11T10:16:27Z</time>
      </trkpt>
      <trkpt lat="42.23641" lon="8.97447">
        <ele>1585.83</ele>
        <time>2015-09-11T10:16:35Z</time>
      </trkpt>
      <trkpt lat="42.23631" lon="8.97463">
        <ele>1583.43</ele>
        <time>2015-09-11T10:16:48Z</time>
      </trkpt>
      <trkpt lat="42.23628" lon="8.97466">
        <ele>1582.47</ele>
        <time>2015-09-11T10:16:52Z</time>
      </trkpt>
      <trkpt lat="42.23621" lon="8.97466">
        <ele>1580.54</ele>
        <time>2015-09-11T10:16:58Z</time>
      </trkpt>
      <trkpt lat="42.23619" lon="8.9747">
        <ele>1579.58</ele>
        <time>2015-09-11T10:17:02Z</time>
      </trkpt>
      <trkpt lat="42.23613" lon="8.97477">
        <ele>1577.66</ele>
        <time>2015-09-11T10:17:11Z</time>
      </trkpt>
      <trkpt lat="42.23602" lon="8.97477">
        <ele>1574.78</ele>
        <time>2015-09-11T10:17:23Z</time>
      </trkpt>
      <trkpt lat="42.23593" lon="8.97476">
        <ele>1574.3</ele>
        <time>2015-09-11T10:17:33Z</time>
      </trkpt>
      <trkpt lat="42.23585" lon="8.9748">
        <ele>1571.41</ele>
        <time>2015-09-11T10:17:45Z</time>
      </trkpt>
      <trkpt lat="42.23582" lon="8.97482">
        <ele>1570.45</ele>
        <time>2015-09-11T10:17:49Z</time>
      </trkpt>
      <trkpt lat="42.23579" lon="8.97481">
        <ele>1569.01</ele>
        <time>2015-09-11T10:17:53Z</time>
      </trkpt>
      <trkpt lat="42.23576" lon="8.97481">
        <ele>1568.53</ele>
        <time>2015-09-11T10:17:56Z</time>
      </trkpt>
      <trkpt lat="42.23572" lon="8.97484">
        <ele>1568.05</ele>
        <time>2015-09-11T10:18:01Z</time>
      </trkpt>
      <trkpt lat="42.23568" lon="8.97483">
        <ele>1567.09</ele>
        <time>2015-09-11T10:18:06Z</time>
      </trkpt>
      <trkpt lat="42.23564" lon="8.97487">
        <ele>1566.61</ele>
        <time>2015-09-11T10:18:10Z</time>
      </trkpt>
      <trkpt lat="42.23553" lon="8.97487">
        <ele>1564.2</ele>
        <time>2015-09-11T10:18:22Z</time>
      </trkpt>
      <trkpt lat="42.23551" lon="8.97489">
        <ele>1563.72</ele>
        <time>2015-09-11T10:18:25Z</time>
      </trkpt>
      <trkpt lat="42.23548" lon="8.97492">
        <ele>1563.24</ele>
        <time>2015-09-11T10:18:29Z</time>
      </trkpt>
      <trkpt lat="42.2354" lon="8.97498">
        <ele>1561.8</ele>
        <time>2015-09-11T10:18:41Z</time>
      </trkpt>
      <trkpt lat="42.23539" lon="8.97501">
        <ele>1561.32</ele>
        <time>2015-09-11T10:18:44Z</time>
      </trkpt>
      <trkpt lat="42.23534" lon="8.97502">
        <ele>1559.88</ele>
        <time>2015-09-11T10:18:50Z</time>
      </trkpt>
      <trkpt lat="42.23529" lon="8.97503">
        <ele>1557.95</ele>
        <time>2015-09-11T10:18:57Z</time>
      </trkpt>
      <trkpt lat="42.23524" lon="8.97506">
        <ele>1556.99</ele>
        <time>2015-09-11T10:19:02Z</time>
      </trkpt>
      <trkpt lat="42.23517" lon="8.9751">
        <ele>1555.07</ele>
        <time>2015-09-11T10:19:11Z</time>
      </trkpt>
      <trkpt lat="42.23516" lon="8.97513">
        <ele>1555.07</ele>
        <time>2015-09-11T10:19:13Z</time>
      </trkpt>
      <trkpt lat="42.23511" lon="8.97517">
        <ele>1554.11</ele>
        <time>2015-09-11T10:19:19Z</time>
      </trkpt>
      <trkpt lat="42.23499" lon="8.97532">
        <ele>1551.22</ele>
        <time>2015-09-11T10:19:32Z</time>
      </trkpt>
      <trkpt lat="42.23481" lon="8.97542">
        <ele>1549.78</ele>
        <time>2015-09-11T10:19:46Z</time>
      </trkpt>
      <trkpt lat="42.23477" lon="8.97544">
        <ele>1549.3</ele>
        <time>2015-09-11T10:19:49Z</time>
      </trkpt>
      <trkpt lat="42.23463" lon="8.97548">
        <ele>1547.86</ele>
        <time>2015-09-11T10:20:03Z</time>
      </trkpt>
      <trkpt lat="42.23462" lon="8.97549">
        <ele>1548.34</ele>
        <time>2015-09-11T10:20:06Z</time>
      </trkpt>
      <trkpt lat="42.23455" lon="8.97549">
        <ele>1547.86</ele>
        <time>2015-09-11T10:20:13Z</time>
      </trkpt>
      <trkpt lat="42.2345" lon="8.97552">
        <ele>1546.9</ele>
        <time>2015-09-11T10:20:17Z</time>
      </trkpt>
      <trkpt lat="42.23438" lon="8.97554">
        <ele>1546.42</ele>
        <time>2015-09-11T10:20:27Z</time>
      </trkpt>
      <trkpt lat="42.23426" lon="8.97571">
        <ele>1545.46</ele>
        <time>2015-09-11T10:20:41Z</time>
      </trkpt>
      <trkpt lat="42.23416" lon="8.9758">
        <ele>1544.98</ele>
        <time>2015-09-11T10:20:52Z</time>
      </trkpt>
      <trkpt lat="42.23404" lon="8.97581">
        <ele>1545.94</ele>
        <time>2015-09-11T10:21:03Z</time>
      </trkpt>
      <trkpt lat="42.23388" lon="8.97589">
        <ele>1545.94</ele>
        <time>2015-09-11T10:21:17Z</time>
      </trkpt>
      <trkpt lat="42.23374" lon="8.97593">
        <ele>1545.46</ele>
        <time>2015-09-11T10:21:30Z</time>
      </trkpt>
      <trkpt lat="42.23355" lon="8.97607">
        <ele>1545.46</ele>
        <time>2015-09-11T10:21:46Z</time>
      </trkpt>
      <trkpt lat="42.23344" lon="8.97611">
        <ele>1544.98</ele>
        <time>2015-09-11T10:21:55Z</time>
      </trkpt>
      <trkpt lat="42.2333" lon="8.97615">
        <ele>1544.98</ele>
        <time>2015-09-11T10:22:07Z</time>
      </trkpt>
      <trkpt lat="42.23321" lon="8.9762">
        <ele>1544.98</ele>
        <time>2015-09-11T10:22:14Z</time>
      </trkpt>
      <trkpt lat="42.233" lon="8.97623">
        <ele>1544.98</ele>
        <time>2015-09-11T10:22:31Z</time>
      </trkpt>
      <trkpt lat="42.2328" lon="8.97628">
        <ele>1544.5</ele>
        <time>2015-09-11T10:22:47Z</time>
      </trkpt>
      <trkpt lat="42.23262" lon="8.97635">
        <ele>1544.5</ele>
        <time>2015-09-11T10:23:02Z</time>
      </trkpt>
      <trkpt lat="42.23243" lon="8.9764">
        <ele>1544.5</ele>
        <time>2015-09-11T10:23:17Z</time>
      </trkpt>
      <trkpt lat="42.23226" lon="8.97649">
        <ele>1544.5</ele>
        <time>2015-09-11T10:23:32Z</time>
      </trkpt>
      <trkpt lat="42.2321" lon="8.97661">
        <ele>1544.5</ele>
        <time>2015-09-11T10:23:47Z</time>
      </trkpt>
      <trkpt lat="42.23193" lon="8.97671">
        <ele>1544.01</ele>
        <time>2015-09-11T10:24:02Z</time>
      </trkpt>
      <trkpt lat="42.23178" lon="8.97687">
        <ele>1544.01</ele>
        <time>2015-09-11T10:24:17Z</time>
      </trkpt>
      <trkpt lat="42.23176" lon="8.9769">
        <ele>1544.01</ele>
        <time>2015-09-11T10:24:19Z</time>
      </trkpt>
      <trkpt lat="42.23171" lon="8.97693">
        <ele>1544.01</ele>
        <time>2015-09-11T10:24:23Z</time>
      </trkpt>
      <trkpt lat="42.23152" lon="8.97708">
        <ele>1544.01</ele>
        <time>2015-09-11T10:24:39Z</time>
      </trkpt>
      <trkpt lat="42.23149" lon="8.97711">
        <ele>1544.01</ele>
        <time>2015-09-11T10:24:42Z</time>
      </trkpt>
      <trkpt lat="42.23131" lon="8.97718">
        <ele>1544.98</ele>
        <time>2015-09-11T10:24:57Z</time>
      </trkpt>
      <trkpt lat="42.2313" lon="8.9772">
        <ele>1544.5</ele>
        <time>2015-09-11T10:24:58Z</time>
      </trkpt>
      <trkpt lat="42.23123" lon="8.97722">
        <ele>1544.98</ele>
        <time>2015-09-11T10:25:03Z</time>
      </trkpt>
      <trkpt lat="42.2311" lon="8.97725">
        <ele>1545.46</ele>
        <time>2015-09-11T10:25:14Z</time>
      </trkpt>
      <trkpt lat="42.23092" lon="8.97733">
        <ele>1545.94</ele>
        <time>2015-09-11T10:25:28Z</time>
      </trkpt>
      <trkpt lat="42.23088" lon="8.97735">
        <ele>1545.94</ele>
        <time>2015-09-11T10:25:32Z</time>
      </trkpt>
      <trkpt lat="42.23074" lon="8.97749">
        <ele>1546.42</ele>
        <time>2015-09-11T10:25:46Z</time>
      </trkpt>
      <trkpt lat="42.23072" lon="8.97751">
        <ele>1546.42</ele>
        <time>2015-09-11T10:25:47Z</time>
      </trkpt>
      <trkpt lat="42.23066" lon="8.97754">
        <ele>1546.42</ele>
        <time>2015-09-11T10:25:53Z</time>
      </trkpt>
      <trkpt lat="42.2305" lon="8.97761">
        <ele>1546.42</ele>
        <time>2015-09-11T10:26:06Z</time>
      </trkpt>
      <trkpt lat="42.23045" lon="8.97763">
        <ele>1546.9</ele>
        <time>2015-09-11T10:26:10Z</time>
      </trkpt>
      <trkpt lat="42.2303" lon="8.97773">
        <ele>1546.9</ele>
        <time>2015-09-11T10:26:24Z</time>
      </trkpt>
      <trkpt lat="42.23014" lon="8.97778">
        <ele>1546.42</ele>
        <time>2015-09-11T10:26:36Z</time>
      </trkpt>
      <trkpt lat="42.23006" lon="8.97778">
        <ele>1546.9</ele>
        <time>2015-09-11T10:26:42Z</time>
      </trkpt>
      <trkpt lat="42.22987" lon="8.97773">
        <ele>1546.42</ele>
        <time>2015-09-11T10:26:57Z</time>
      </trkpt>
      <trkpt lat="42.22971" lon="8.97772">
        <ele>1546.42</ele>
        <time>2015-09-11T10:27:10Z</time>
      </trkpt>
      <trkpt lat="42.22955" lon="8.9777">
        <ele>1545.94</ele>
        <time>2015-09-11T10:27:23Z</time>
      </trkpt>
      <trkpt lat="42.22936" lon="8.9777">
        <ele>1545.94</ele>
        <time>2015-09-11T10:27:37Z</time>
      </trkpt>
      <trkpt lat="42.22933" lon="8.97771">
        <ele>1545.94</ele>
        <time>2015-09-11T10:27:40Z</time>
      </trkpt>
      <trkpt lat="42.22915" lon="8.97777">
        <ele>1546.42</ele>
        <time>2015-09-11T10:27:53Z</time>
      </trkpt>
      <trkpt lat="42.22906" lon="8.97777">
        <ele>1546.42</ele>
        <time>2015-09-11T10:28:00Z</time>
      </trkpt>
      <trkpt lat="42.22892" lon="8.97778">
        <ele>1546.9</ele>
        <time>2015-09-11T10:28:11Z</time>
      </trkpt>
      <trkpt lat="42.22875" lon="8.97781">
        <ele>1546.42</ele>
        <time>2015-09-11T10:28:25Z</time>
      </trkpt>
      <trkpt lat="42.22856" lon="8.97787">
        <ele>1546.42</ele>
        <time>2015-09-11T10:28:40Z</time>
      </trkpt>
      <trkpt lat="42.22838" lon="8.9779">
        <ele>1546.9</ele>
        <time>2015-09-11T10:28:53Z</time>
      </trkpt>
      <trkpt lat="42.2283" lon="8.97789">
        <ele>1546.9</ele>
        <time>2015-09-11T10:28:59Z</time>
      </trkpt>
      <trkpt lat="42.22812" lon="8.97787">
        <ele>1547.38</ele>
        <time>2015-09-11T10:29:14Z</time>
      </trkpt>
      <trkpt lat="42.22797" lon="8.97783">
        <ele>1546.9</ele>
        <time>2015-09-11T10:29:27Z</time>
      </trkpt>
      <trkpt lat="42.22783" lon="8.97783">
        <ele>1547.86</ele>
        <time>2015-09-11T10:29:39Z</time>
      </trkpt>
      <trkpt lat="42.22779" lon="8.97787">
        <ele>1547.86</ele>
        <time>2015-09-11T10:29:44Z</time>
      </trkpt>
      <trkpt lat="42.22772" lon="8.97794">
        <ele>1549.3</ele>
        <time>2015-09-11T10:29:54Z</time>
      </trkpt>
      <trkpt lat="42.22763" lon="8.97792">
        <ele>1549.78</ele>
        <time>2015-09-11T10:30:04Z</time>
      </trkpt>
      <trkpt lat="42.22761" lon="8.97791">
        <ele>1549.78</ele>
        <time>2015-09-11T10:30:06Z</time>
      </trkpt>
      <trkpt lat="42.22752" lon="8.97797">
        <ele>1551.22</ele>
        <time>2015-09-11T10:30:18Z</time>
      </trkpt>
      <trkpt lat="42.22748" lon="8.97801">
        <ele>1551.71</ele>
        <time>2015-09-11T10:30:25Z</time>
      </trkpt>
      <trkpt lat="42.22744" lon="8.97802">
        <ele>1552.19</ele>
        <time>2015-09-11T10:30:28Z</time>
      </trkpt>
      <trkpt lat="42.22742" lon="8.97804">
        <ele>1552.19</ele>
        <time>2015-09-11T10:30:31Z</time>
      </trkpt>
      <trkpt lat="42.22739" lon="8.97805">
        <ele>1552.19</ele>
        <time>2015-09-11T10:30:34Z</time>
      </trkpt>
      <trkpt lat="42.22726" lon="8.97811">
        <ele>1553.15</ele>
        <time>2015-09-11T10:30:47Z</time>
      </trkpt>
      <trkpt lat="42.22724" lon="8.97812">
        <ele>1553.15</ele>
        <time>2015-09-11T10:30:49Z</time>
      </trkpt>
      <trkpt lat="42.22722" lon="8.97814">
        <ele>1553.63</ele>
        <time>2015-09-11T10:30:53Z</time>
      </trkpt>
      <trkpt lat="42.22715" lon="8.9781">
        <ele>1555.55</ele>
        <time>2015-09-11T10:31:05Z</time>
      </trkpt>
      <trkpt lat="42.22711" lon="8.97812">
        <ele>1557.47</ele>
        <time>2015-09-11T10:31:17Z</time>
      </trkpt>
      <trkpt lat="42.22706" lon="8.97817">
        <ele>1558.43</ele>
        <time>2015-09-11T10:31:30Z</time>
      </trkpt>
      <trkpt lat="42.22703" lon="8.97824">
        <ele>1559.88</ele>
        <time>2015-09-11T10:31:39Z</time>
      </trkpt>
      <trkpt lat="42.22696" lon="8.97829">
        <ele>1561.32</ele>
        <time>2015-09-11T10:31:51Z</time>
      </trkpt>
      <trkpt lat="42.22695" lon="8.97832">
        <ele>1562.28</ele>
        <time>2015-09-11T10:31:55Z</time>
      </trkpt>
      <trkpt lat="42.22688" lon="8.97832">
        <ele>1563.72</ele>
        <time>2015-09-11T10:32:06Z</time>
      </trkpt>
      <trkpt lat="42.22687" lon="8.97832">
        <ele>1564.2</ele>
        <time>2015-09-11T10:32:08Z</time>
      </trkpt>
      <trkpt lat="42.22682" lon="8.9783">
        <ele>1565.64</ele>
        <time>2015-09-11T10:32:20Z</time>
      </trkpt>
      <trkpt lat="42.22679" lon="8.97832">
        <ele>1566.61</ele>
        <time>2015-09-11T10:32:24Z</time>
      </trkpt>
      <trkpt lat="42.22672" lon="8.97839">
        <ele>1568.05</ele>
        <time>2015-09-11T10:32:34Z</time>
      </trkpt>
      <trkpt lat="42.22672" lon="8.97841">
        <ele>1568.53</ele>
        <time>2015-09-11T10:32:35Z</time>
      </trkpt>
      <trkpt lat="42.2267" lon="8.97843">
        <ele>1568.53</ele>
        <time>2015-09-11T10:32:37Z</time>
      </trkpt>
      <trkpt lat="42.22666" lon="8.97846">
        <ele>1569.01</ele>
        <time>2015-09-11T10:32:41Z</time>
      </trkpt>
      <trkpt lat="42.22655" lon="8.97853">
        <ele>1569.01</ele>
        <time>2015-09-11T10:32:53Z</time>
      </trkpt>
      <trkpt lat="42.22653" lon="8.97853">
        <ele>1568.53</ele>
        <time>2015-09-11T10:32:55Z</time>
      </trkpt>
      <trkpt lat="42.22648" lon="8.97853">
        <ele>1568.53</ele>
        <time>2015-09-11T10:33:00Z</time>
      </trkpt>
      <trkpt lat="42.22644" lon="8.97852">
        <ele>1569.01</ele>
        <time>2015-09-11T10:33:03Z</time>
      </trkpt>
      <trkpt lat="42.22638" lon="8.97854">
        <ele>1569.01</ele>
        <time>2015-09-11T10:33:09Z</time>
      </trkpt>
      <trkpt lat="42.22632" lon="8.97854">
        <ele>1569.01</ele>
        <time>2015-09-11T10:33:14Z</time>
      </trkpt>
      <trkpt lat="42.2262" lon="8.97861">
        <ele>1569.49</ele>
        <time>2015-09-11T10:33:26Z</time>
      </trkpt>
      <trkpt lat="42.22615" lon="8.97861">
        <ele>1569.49</ele>
        <time>2015-09-11T10:33:33Z</time>
      </trkpt>
      <trkpt lat="42.22611" lon="8.97862">
        <ele>1570.45</ele>
        <time>2015-09-11T10:33:39Z</time>
      </trkpt>
      <trkpt lat="42.22606" lon="8.97865">
        <ele>1571.41</ele>
        <time>2015-09-11T10:33:44Z</time>
      </trkpt>
      <trkpt lat="42.22605" lon="8.97869">
        <ele>1571.89</ele>
        <time>2015-09-11T10:33:48Z</time>
      </trkpt>
      <trkpt lat="42.22602" lon="8.97872">
        <ele>1572.37</ele>
        <time>2015-09-11T10:33:55Z</time>
      </trkpt>
      <trkpt lat="42.226" lon="8.97875">
        <ele>1572.37</ele>
        <time>2015-09-11T10:33:58Z</time>
      </trkpt>
      <trkpt lat="42.22597" lon="8.97877">
        <ele>1573.33</ele>
        <time>2015-09-11T10:34:01Z</time>
      </trkpt>
      <trkpt lat="42.22595" lon="8.97879">
        <ele>1573.33</ele>
        <time>2015-09-11T10:34:04Z</time>
      </trkpt>
      <trkpt lat="42.22592" lon="8.97886">
        <ele>1573.82</ele>
        <time>2015-09-11T10:34:10Z</time>
      </trkpt>
      <trkpt lat="42.2259" lon="8.97888">
        <ele>1573.82</ele>
        <time>2015-09-11T10:34:12Z</time>
      </trkpt>
      <trkpt lat="42.22581" lon="8.9789">
        <ele>1574.78</ele>
        <time>2015-09-11T10:34:23Z</time>
      </trkpt>
      <trkpt lat="42.22577" lon="8.97891">
        <ele>1575.26</ele>
        <time>2015-09-11T10:34:27Z</time>
      </trkpt>
      <trkpt lat="42.22575" lon="8.97894">
        <ele>1575.26</ele>
        <time>2015-09-11T10:34:30Z</time>
      </trkpt>
      <trkpt lat="42.22574" lon="8.97896">
        <ele>1575.74</ele>
        <time>2015-09-11T10:34:33Z</time>
      </trkpt>
      <trkpt lat="42.22568" lon="8.97898">
        <ele>1576.22</ele>
        <time>2015-09-11T10:34:39Z</time>
      </trkpt>
      <trkpt lat="42.22564" lon="8.97903">
        <ele>1576.22</ele>
        <time>2015-09-11T10:34:44Z</time>
      </trkpt>
      <trkpt lat="42.22561" lon="8.97905">
        <ele>1575.74</ele>
        <time>2015-09-11T10:34:47Z</time>
      </trkpt>
      <trkpt lat="42.22552" lon="8.97913">
        <ele>1575.26</ele>
        <time>2015-09-11T10:34:58Z</time>
      </trkpt>
      <trkpt lat="42.22544" lon="8.97919">
        <ele>1575.74</ele>
        <time>2015-09-11T10:35:08Z</time>
      </trkpt>
      <trkpt lat="42.22542" lon="8.97918">
        <ele>1576.22</ele>
        <time>2015-09-11T10:35:11Z</time>
      </trkpt>
      <trkpt lat="42.2254" lon="8.97918">
        <ele>1576.22</ele>
        <time>2015-09-11T10:35:13Z</time>
      </trkpt>
      <trkpt lat="42.22537" lon="8.97917">
        <ele>1576.7</ele>
        <time>2015-09-11T10:35:16Z</time>
      </trkpt>
      <trkpt lat="42.22526" lon="8.97915">
        <ele>1577.18</ele>
        <time>2015-09-11T10:35:28Z</time>
      </trkpt>
      <trkpt lat="42.22517" lon="8.97921">
        <ele>1577.18</ele>
        <time>2015-09-11T10:35:39Z</time>
      </trkpt>
      <trkpt lat="42.22508" lon="8.97925">
        <ele>1578.14</ele>
        <time>2015-09-11T10:35:49Z</time>
      </trkpt>
      <trkpt lat="42.22505" lon="8.97926">
        <ele>1578.62</ele>
        <time>2015-09-11T10:35:53Z</time>
      </trkpt>
      <trkpt lat="42.22503" lon="8.97927">
        <ele>1578.62</ele>
        <time>2015-09-11T10:35:55Z</time>
      </trkpt>
      <trkpt lat="42.225" lon="8.97926">
        <ele>1579.1</ele>
        <time>2015-09-11T10:35:58Z</time>
      </trkpt>
      <trkpt lat="42.22495" lon="8.97929">
        <ele>1579.58</ele>
        <time>2015-09-11T10:36:05Z</time>
      </trkpt>
      <trkpt lat="42.22491" lon="8.97931">
        <ele>1579.1</ele>
        <time>2015-09-11T10:36:09Z</time>
      </trkpt>
      <trkpt lat="42.22481" lon="8.9794">
        <ele>1579.58</ele>
        <time>2015-09-11T10:36:21Z</time>
      </trkpt>
      <trkpt lat="42.22479" lon="8.97939">
        <ele>1579.58</ele>
        <time>2015-09-11T10:36:28Z</time>
      </trkpt>
      <trkpt lat="42.22475" lon="8.97942">
        <ele>1579.58</ele>
        <time>2015-09-11T10:36:32Z</time>
      </trkpt>
      <trkpt lat="42.22471" lon="8.97943">
        <ele>1580.06</ele>
        <time>2015-09-11T10:36:36Z</time>
      </trkpt>
      <trkpt lat="42.22464" lon="8.97949">
        <ele>1580.54</ele>
        <time>2015-09-11T10:36:44Z</time>
      </trkpt>
      <trkpt lat="42.22459" lon="8.97948">
        <ele>1581.03</ele>
        <time>2015-09-11T10:36:50Z</time>
      </trkpt>
      <trkpt lat="42.22448" lon="8.97952">
        <ele>1581.51</ele>
        <time>2015-09-11T10:37:02Z</time>
      </trkpt>
      <trkpt lat="42.22444" lon="8.97955">
        <ele>1582.47</ele>
        <time>2015-09-11T10:37:08Z</time>
      </trkpt>
      <trkpt lat="42.2243" lon="8.97957">
        <ele>1582.47</ele>
        <time>2015-09-11T10:37:22Z</time>
      </trkpt>
      <trkpt lat="42.22423" lon="8.97963">
        <ele>1581.99</ele>
        <time>2015-09-11T10:37:30Z</time>
      </trkpt>
      <trkpt lat="42.22421" lon="8.97964">
        <ele>1582.47</ele>
        <time>2015-09-11T10:37:33Z</time>
      </trkpt>
      <trkpt lat="42.22418" lon="8.97968">
        <ele>1582.47</ele>
        <time>2015-09-11T10:37:37Z</time>
      </trkpt>
      <trkpt lat="42.22409" lon="8.97977">
        <ele>1581.99</ele>
        <time>2015-09-11T10:37:46Z</time>
      </trkpt>
      <trkpt lat="42.22408" lon="8.97979">
        <ele>1581.99</ele>
        <time>2015-09-11T10:37:48Z</time>
      </trkpt>
      <trkpt lat="42.22404" lon="8.97989">
        <ele>1582.95</ele>
        <time>2015-09-11T10:37:59Z</time>
      </trkpt>
      <trkpt lat="42.22402" lon="8.9799">
        <ele>1582.95</ele>
        <time>2015-09-11T10:38:04Z</time>
      </trkpt>
      <trkpt lat="42.22401" lon="8.97986">
        <ele>1583.43</ele>
        <time>2015-09-11T10:38:07Z</time>
      </trkpt>
      <trkpt lat="42.22401" lon="8.97983">
        <ele>1583.43</ele>
        <time>2015-09-11T10:38:09Z</time>
      </trkpt>
      <trkpt lat="42.22391" lon="8.97977">
        <ele>1582.47</ele>
        <time>2015-09-11T10:38:22Z</time>
      </trkpt>
      <trkpt lat="42.22384" lon="8.97973">
        <ele>1581.03</ele>
        <time>2015-09-11T10:38:35Z</time>
      </trkpt>
      <trkpt lat="42.2238" lon="8.97969">
        <ele>1579.58</ele>
        <time>2015-09-11T10:38:48Z</time>
      </trkpt>
      <trkpt lat="42.2238" lon="8.97969">
        <ele>1579.1</ele>
        <time>2015-09-11T10:39:15Z</time>
      </trkpt>
      <trkpt lat="42.22371" lon="8.97969">
        <ele>1579.1</ele>
        <time>2015-09-11T10:39:26Z</time>
      </trkpt>
      <trkpt lat="42.22359" lon="8.97969">
        <ele>1578.62</ele>
        <time>2015-09-11T10:39:38Z</time>
      </trkpt>
      <trkpt lat="42.22351" lon="8.97966">
        <ele>1577.66</ele>
        <time>2015-09-11T10:39:48Z</time>
      </trkpt>
      <trkpt lat="42.22342" lon="8.97967">
        <ele>1578.14</ele>
        <time>2015-09-11T10:39:59Z</time>
      </trkpt>
      <trkpt lat="42.22335" lon="8.97967">
        <ele>1579.1</ele>
        <time>2015-09-11T10:40:06Z</time>
      </trkpt>
      <trkpt lat="42.22326" lon="8.97968">
        <ele>1580.06</ele>
        <time>2015-09-11T10:40:16Z</time>
      </trkpt>
      <trkpt lat="42.22312" lon="8.97965">
        <ele>1579.58</ele>
        <time>2015-09-11T10:40:29Z</time>
      </trkpt>
      <trkpt lat="42.22309" lon="8.97966">
        <ele>1579.1</ele>
        <time>2015-09-11T10:40:32Z</time>
      </trkpt>
      <trkpt lat="42.22298" lon="8.97962">
        <ele>1576.7</ele>
        <time>2015-09-11T10:40:45Z</time>
      </trkpt>
      <trkpt lat="42.22292" lon="8.97962">
        <ele>1575.74</ele>
        <time>2015-09-11T10:40:53Z</time>
      </trkpt>
      <trkpt lat="42.22281" lon="8.97961">
        <ele>1574.3</ele>
        <time>2015-09-11T10:41:07Z</time>
      </trkpt>
      <trkpt lat="42.22275" lon="8.97966">
        <ele>1575.26</ele>
        <time>2015-09-11T10:41:19Z</time>
      </trkpt>
      <trkpt lat="42.22269" lon="8.97972">
        <ele>1575.74</ele>
        <time>2015-09-11T10:41:30Z</time>
      </trkpt>
      <trkpt lat="42.22257" lon="8.97972">
        <ele>1575.74</ele>
        <time>2015-09-11T10:41:42Z</time>
      </trkpt>
      <trkpt lat="42.22253" lon="8.97971">
        <ele>1575.74</ele>
        <time>2015-09-11T10:41:45Z</time>
      </trkpt>
      <trkpt lat="42.2225" lon="8.97973">
        <ele>1575.26</ele>
        <time>2015-09-11T10:41:48Z</time>
      </trkpt>
      <trkpt lat="42.22236" lon="8.9797">
        <ele>1574.3</ele>
        <time>2015-09-11T10:42:02Z</time>
      </trkpt>
      <trkpt lat="42.22235" lon="8.97971">
        <ele>1574.3</ele>
        <time>2015-09-11T10:42:03Z</time>
      </trkpt>
      <trkpt lat="42.22226" lon="8.97978">
        <ele>1575.74</ele>
        <time>2015-09-11T10:42:16Z</time>
      </trkpt>
      <trkpt lat="42.22221" lon="8.9798">
        <ele>1575.74</ele>
        <time>2015-09-11T10:42:22Z</time>
      </trkpt>
      <trkpt lat="42.22217" lon="8.97979">
        <ele>1575.74</ele>
        <time>2015-09-11T10:42:28Z</time>
      </trkpt>
      <trkpt lat="42.2221" lon="8.97983">
        <ele>1576.22</ele>
        <time>2015-09-11T10:42:40Z</time>
      </trkpt>
      <trkpt lat="42.22202" lon="8.97986">
        <ele>1577.18</ele>
        <time>2015-09-11T10:42:51Z</time>
      </trkpt>
      <trkpt lat="42.22189" lon="8.97989">
        <ele>1577.66</ele>
        <time>2015-09-11T10:43:04Z</time>
      </trkpt>
      <trkpt lat="42.22183" lon="8.9799">
        <ele>1578.14</ele>
        <time>2015-09-11T10:43:15Z</time>
      </trkpt>
      <trkpt lat="42.22175" lon="8.97994">
        <ele>1579.1</ele>
        <time>2015-09-11T10:43:26Z</time>
      </trkpt>
      <trkpt lat="42.2216" lon="8.97994">
        <ele>1578.62</ele>
        <time>2015-09-11T10:43:39Z</time>
      </trkpt>
      <trkpt lat="42.22146" lon="8.97999">
        <ele>1577.18</ele>
        <time>2015-09-11T10:43:52Z</time>
      </trkpt>
      <trkpt lat="42.22138" lon="8.98008">
        <ele>1577.18</ele>
        <time>2015-09-11T10:44:04Z</time>
      </trkpt>
      <trkpt lat="42.22128" lon="8.98011">
        <ele>1577.66</ele>
        <time>2015-09-11T10:44:16Z</time>
      </trkpt>
      <trkpt lat="42.22121" lon="8.9802">
        <ele>1579.1</ele>
        <time>2015-09-11T10:44:30Z</time>
      </trkpt>
      <trkpt lat="42.2212" lon="8.98015">
        <ele>1578.14</ele>
        <time>2015-09-11T10:44:42Z</time>
      </trkpt>
      <trkpt lat="42.2212" lon="8.98014">
        <ele>1578.14</ele>
        <time>2015-09-11T10:45:05Z</time>
      </trkpt>
      <trkpt lat="42.22119" lon="8.98015">
        <ele>1579.1</ele>
        <time>2015-09-11T10:45:29Z</time>
      </trkpt>
      <trkpt lat="42.22119" lon="8.98021">
        <ele>1579.58</ele>
        <time>2015-09-11T10:45:39Z</time>
      </trkpt>
      <trkpt lat="42.22112" lon="8.98026">
        <ele>1580.54</ele>
        <time>2015-09-11T10:45:48Z</time>
      </trkpt>
      <trkpt lat="42.22101" lon="8.98031">
        <ele>1580.06</ele>
        <time>2015-09-11T10:45:59Z</time>
      </trkpt>
      <trkpt lat="42.22093" lon="8.98033">
        <ele>1579.58</ele>
        <time>2015-09-11T10:46:07Z</time>
      </trkpt>
      <trkpt lat="42.2209" lon="8.98033">
        <ele>1579.1</ele>
        <time>2015-09-11T10:46:12Z</time>
      </trkpt>
      <trkpt lat="42.22081" lon="8.98037">
        <ele>1579.1</ele>
        <time>2015-09-11T10:46:26Z</time>
      </trkpt>
      <trkpt lat="42.22077" lon="8.98047">
        <ele>1580.06</ele>
        <time>2015-09-11T10:46:38Z</time>
      </trkpt>
      <trkpt lat="42.22075" lon="8.98052">
        <ele>1581.99</ele>
        <time>2015-09-11T10:46:46Z</time>
      </trkpt>
      <trkpt lat="42.22071" lon="8.9806">
        <ele>1583.43</ele>
        <time>2015-09-11T10:46:58Z</time>
      </trkpt>
      <trkpt lat="42.22066" lon="8.98064">
        <ele>1585.83</ele>
        <time>2015-09-11T10:47:10Z</time>
      </trkpt>
      <trkpt lat="42.22062" lon="8.98072">
        <ele>1587.27</ele>
        <time>2015-09-11T10:47:24Z</time>
      </trkpt>
      <trkpt lat="42.22062" lon="8.98079">
        <ele>1589.2</ele>
        <time>2015-09-11T10:47:35Z</time>
      </trkpt>
      <trkpt lat="42.22052" lon="8.98083">
        <ele>1590.16</ele>
        <time>2015-09-11T10:47:47Z</time>
      </trkpt>
      <trkpt lat="42.22047" lon="8.9809">
        <ele>1592.08</ele>
        <time>2015-09-11T10:47:59Z</time>
      </trkpt>
      <trkpt lat="42.22036" lon="8.9809">
        <ele>1592.08</ele>
        <time>2015-09-11T10:48:12Z</time>
      </trkpt>
      <trkpt lat="42.22031" lon="8.98079">
        <ele>1592.08</ele>
        <time>2015-09-11T10:48:27Z</time>
      </trkpt>
      <trkpt lat="42.22023" lon="8.98073">
        <ele>1592.56</ele>
        <time>2015-09-11T10:48:39Z</time>
      </trkpt>
      <trkpt lat="42.22012" lon="8.98071">
        <ele>1594.48</ele>
        <time>2015-09-11T10:48:51Z</time>
      </trkpt>
      <trkpt lat="42.22007" lon="8.98065">
        <ele>1594.96</ele>
        <time>2015-09-11T10:49:05Z</time>
      </trkpt>
      <trkpt lat="42.22004" lon="8.98056">
        <ele>1595.45</ele>
        <time>2015-09-11T10:49:10Z</time>
      </trkpt>
      <trkpt lat="42.22" lon="8.9805">
        <ele>1596.41</ele>
        <time>2015-09-11T10:49:21Z</time>
      </trkpt>
      <trkpt lat="42.21993" lon="8.98059">
        <ele>1598.81</ele>
        <time>2015-09-11T10:49:35Z</time>
      </trkpt>
      <trkpt lat="42.21989" lon="8.98054">
        <ele>1600.25</ele>
        <time>2015-09-11T10:49:46Z</time>
      </trkpt>
      <trkpt lat="42.21988" lon="8.98054">
        <ele>1600.25</ele>
        <time>2015-09-11T10:50:03Z</time>
      </trkpt>
      <trkpt lat="42.21989" lon="8.98053">
        <ele>1600.25</ele>
        <time>2015-09-11T10:50:19Z</time>
      </trkpt>
      <trkpt lat="42.2199" lon="8.98054">
        <ele>1599.29</ele>
        <time>2015-09-11T10:50:37Z</time>
      </trkpt>
      <trkpt lat="42.2199" lon="8.98054">
        <ele>1599.29</ele>
        <time>2015-09-11T10:51:06Z</time>
      </trkpt>
      <trkpt lat="42.21989" lon="8.98054">
        <ele>1599.77</ele>
        <time>2015-09-11T10:51:33Z</time>
      </trkpt>
      <trkpt lat="42.21989" lon="8.98056">
        <ele>1599.77</ele>
        <time>2015-09-11T10:51:58Z</time>
      </trkpt>
      <trkpt lat="42.21989" lon="8.98056">
        <ele>1599.77</ele>
        <time>2015-09-11T10:52:23Z</time>
      </trkpt>
      <trkpt lat="42.2199" lon="8.98055">
        <ele>1600.25</ele>
        <time>2015-09-11T10:52:48Z</time>
      </trkpt>
      <trkpt lat="42.2199" lon="8.98056">
        <ele>1600.25</ele>
        <time>2015-09-11T10:53:14Z</time>
      </trkpt>
      <trkpt lat="42.21991" lon="8.98054">
        <ele>1600.25</ele>
        <time>2015-09-11T10:53:42Z</time>
      </trkpt>
      <trkpt lat="42.21991" lon="8.98054">
        <ele>1600.73</ele>
        <time>2015-09-11T10:54:09Z</time>
      </trkpt>
      <trkpt lat="42.2199" lon="8.98054">
        <ele>1600.73</ele>
        <time>2015-09-11T10:54:33Z</time>
      </trkpt>
      <trkpt lat="42.21991" lon="8.98054">
        <ele>1600.73</ele>
        <time>2015-09-11T10:55:00Z</time>
      </trkpt>
      <trkpt lat="42.21991" lon="8.98054">
        <ele>1600.73</ele>
        <time>2015-09-11T10:55:25Z</time>
      </trkpt>
      <trkpt lat="42.2199" lon="8.98056">
        <ele>1600.73</ele>
        <time>2015-09-11T10:55:49Z</time>
      </trkpt>
      <trkpt lat="42.2199" lon="8.98056">
        <ele>1601.21</ele>
        <time>2015-09-11T10:56:20Z</time>
      </trkpt>
      <trkpt lat="42.2199" lon="8.98056">
        <ele>1601.21</ele>
        <time>2015-09-11T10:56:54Z</time>
      </trkpt>
      <trkpt lat="42.21991" lon="8.98056">
        <ele>1601.21</ele>
        <time>2015-09-11T10:57:21Z</time>
      </trkpt>
      <trkpt lat="42.21991" lon="8.98056">
        <ele>1601.69</ele>
        <time>2015-09-11T10:57:51Z</time>
      </trkpt>
      <trkpt lat="42.2199" lon="8.98055">
        <ele>1601.69</ele>
        <time>2015-09-11T10:58:23Z</time>
      </trkpt>
      <trkpt lat="42.2199" lon="8.98055">
        <ele>1601.69</ele>
        <time>2015-09-11T10:58:55Z</time>
      </trkpt>
      <trkpt lat="42.2199" lon="8.98056">
        <ele>1601.69</ele>
        <time>2015-09-11T10:59:24Z</time>
      </trkpt>
      <trkpt lat="42.2199" lon="8.98056">
        <ele>1601.69</ele>
        <time>2015-09-11T10:59:54Z</time>
      </trkpt>
      <trkpt lat="42.21989" lon="8.98055">
        <ele>1602.17</ele>
        <time>2015-09-11T11:00:21Z</time>
      </trkpt>
      <trkpt lat="42.2199" lon="8.98056">
        <ele>1601.69</ele>
        <time>2015-09-11T11:00:47Z</time>
      </trkpt>
      <trkpt lat="42.21989" lon="8.98056">
        <ele>1602.17</ele>
        <time>2015-09-11T11:01:19Z</time>
      </trkpt>
      <trkpt lat="42.2199" lon="8.98053">
        <ele>1602.17</ele>
        <time>2015-09-11T11:01:52Z</time>
      </trkpt>
      <trkpt lat="42.21989" lon="8.98054">
        <ele>1602.17</ele>
        <time>2015-09-11T11:02:21Z</time>
      </trkpt>
      <trkpt lat="42.2199" lon="8.98056">
        <ele>1602.17</ele>
        <time>2015-09-11T11:02:54Z</time>
      </trkpt>
      <trkpt lat="42.2199" lon="8.98055">
        <ele>1602.17</ele>
        <time>2015-09-11T11:03:22Z</time>
      </trkpt>
      <trkpt lat="42.21988" lon="8.98052">
        <ele>1602.66</ele>
        <time>2015-09-11T11:03:49Z</time>
      </trkpt>
      <trkpt lat="42.21988" lon="8.98053">
        <ele>1602.66</ele>
        <time>2015-09-11T11:04:19Z</time>
      </trkpt>
      <trkpt lat="42.21988" lon="8.98054">
        <ele>1602.66</ele>
        <time>2015-09-11T11:04:53Z</time>
      </trkpt>
      <trkpt lat="42.21988" lon="8.98055">
        <ele>1602.66</ele>
        <time>2015-09-11T11:05:18Z</time>
      </trkpt>
      <trkpt lat="42.21988" lon="8.98055">
        <ele>1602.66</ele>
        <time>2015-09-11T11:05:49Z</time>
      </trkpt>
      <trkpt lat="42.21989" lon="8.98055">
        <ele>1602.66</ele>
        <time>2015-09-11T11:06:17Z</time>
      </trkpt>
      <trkpt lat="42.21988" lon="8.98056">
        <ele>1602.66</ele>
        <time>2015-09-11T11:06:44Z</time>
      </trkpt>
      <trkpt lat="42.21988" lon="8.98055">
        <ele>1603.14</ele>
        <time>2015-09-11T11:07:13Z</time>
      </trkpt>
      <trkpt lat="42.21989" lon="8.98056">
        <ele>1603.14</ele>
        <time>2015-09-11T11:07:42Z</time>
      </trkpt>
      <trkpt lat="42.21989" lon="8.98056">
        <ele>1603.14</ele>
        <time>2015-09-11T11:08:10Z</time>
      </trkpt>
      <trkpt lat="42.21989" lon="8.98056">
        <ele>1603.14</ele>
        <time>2015-09-11T11:08:43Z</time>
      </trkpt>
      <trkpt lat="42.21989" lon="8.98056">
        <ele>1603.14</ele>
        <time>2015-09-11T11:09:09Z</time>
      </trkpt>
      <trkpt lat="42.2199" lon="8.98058">
        <ele>1603.62</ele>
        <time>2015-09-11T11:09:44Z</time>
      </trkpt>
      <trkpt lat="42.2199" lon="8.98058">
        <ele>1603.14</ele>
        <time>2015-09-11T11:10:15Z</time>
      </trkpt>
      <trkpt lat="42.2199" lon="8.98058">
        <ele>1603.14</ele>
        <time>2015-09-11T11:10:42Z</time>
      </trkpt>
      <trkpt lat="42.2199" lon="8.98057">
        <ele>1603.62</ele>
        <time>2015-09-11T11:11:13Z</time>
      </trkpt>
      <trkpt lat="42.2199" lon="8.98055">
        <ele>1603.62</ele>
        <time>2015-09-11T11:11:49Z</time>
      </trkpt>
      <trkpt lat="42.2199" lon="8.98054">
        <ele>1603.62</ele>
        <time>2015-09-11T11:12:17Z</time>
      </trkpt>
      <trkpt lat="42.2199" lon="8.98055">
        <ele>1603.62</ele>
        <time>2015-09-11T11:12:46Z</time>
      </trkpt>
      <trkpt lat="42.21989" lon="8.98054">
        <ele>1603.62</ele>
        <time>2015-09-11T11:13:19Z</time>
      </trkpt>
      <trkpt lat="42.21989" lon="8.98055">
        <ele>1604.1</ele>
        <time>2015-09-11T11:13:51Z</time>
      </trkpt>
      <trkpt lat="42.21989" lon="8.98056">
        <ele>1604.1</ele>
        <time>2015-09-11T11:14:23Z</time>
      </trkpt>
      <trkpt lat="42.21989" lon="8.98055">
        <ele>1604.1</ele>
        <time>2015-09-11T11:14:46Z</time>
      </trkpt>
      <trkpt lat="42.2199" lon="8.98055">
        <ele>1604.1</ele>
        <time>2015-09-11T11:15:12Z</time>
      </trkpt>
      <trkpt lat="42.2199" lon="8.98055">
        <ele>1604.1</ele>
        <time>2015-09-11T11:15:46Z</time>
      </trkpt>
      <trkpt lat="42.2199" lon="8.98054">
        <ele>1604.58</ele>
        <time>2015-09-11T11:16:19Z</time>
      </trkpt>
      <trkpt lat="42.21989" lon="8.98054">
        <ele>1604.58</ele>
        <time>2015-09-11T11:16:57Z</time>
      </trkpt>
      <trkpt lat="42.2199" lon="8.98055">
        <ele>1604.58</ele>
        <time>2015-09-11T11:17:28Z</time>
      </trkpt>
      <trkpt lat="42.2199" lon="8.98056">
        <ele>1605.06</ele>
        <time>2015-09-11T11:18:04Z</time>
      </trkpt>
      <trkpt lat="42.2199" lon="8.98056">
        <ele>1605.06</ele>
        <time>2015-09-11T11:18:39Z</time>
      </trkpt>
      <trkpt lat="42.2199" lon="8.98055">
        <ele>1605.06</ele>
        <time>2015-09-11T11:19:11Z</time>
      </trkpt>
      <trkpt lat="42.2199" lon="8.98055">
        <ele>1605.54</ele>
        <time>2015-09-11T11:19:37Z</time>
      </trkpt>
      <trkpt lat="42.2199" lon="8.98056">
        <ele>1605.54</ele>
        <time>2015-09-11T11:20:08Z</time>
      </trkpt>
      <trkpt lat="42.2199" lon="8.98056">
        <ele>1605.54</ele>
        <time>2015-09-11T11:20:43Z</time>
      </trkpt>
      <trkpt lat="42.2199" lon="8.98057">
        <ele>1605.54</ele>
        <time>2015-09-11T11:21:20Z</time>
      </trkpt>
      <trkpt lat="42.2199" lon="8.98056">
        <ele>1605.54</ele>
        <time>2015-09-11T11:21:54Z</time>
      </trkpt>
      <trkpt lat="42.2199" lon="8.98056">
        <ele>1605.54</ele>
        <time>2015-09-11T11:22:25Z</time>
      </trkpt>
      <trkpt lat="42.2199" lon="8.98057">
        <ele>1605.54</ele>
        <time>2015-09-11T11:23:03Z</time>
      </trkpt>
      <trkpt lat="42.21989" lon="8.98057">
        <ele>1605.54</ele>
        <time>2015-09-11T11:23:36Z</time>
      </trkpt>
      <trkpt lat="42.2199" lon="8.98057">
        <ele>1606.02</ele>
        <time>2015-09-11T11:24:13Z</time>
      </trkpt>
      <trkpt lat="42.21989" lon="8.98057">
        <ele>1606.02</ele>
        <time>2015-09-11T11:24:45Z</time>
      </trkpt>
      <trkpt lat="42.2199" lon="8.98058">
        <ele>1606.02</ele>
        <time>2015-09-11T11:25:13Z</time>
      </trkpt>
      <trkpt lat="42.21988" lon="8.98057">
        <ele>1572.37</ele>
        <time>2015-09-11T11:28:10Z</time>
      </trkpt>
      <trkpt lat="42.2199" lon="8.98056">
        <ele>1572.37</ele>
        <time>2015-09-11T11:28:11Z</time>
      </trkpt>
      <trkpt lat="42.21989" lon="8.98052">
        <ele>1573.82</ele>
        <time>2015-09-11T11:28:18Z</time>
      </trkpt>
      <trkpt lat="42.21989" lon="8.98053">
        <ele>1578.14</ele>
        <time>2015-09-11T11:28:22Z</time>
      </trkpt>
      <trkpt lat="42.21989" lon="8.98053">
        <ele>1581.51</ele>
        <time>2015-09-11T11:28:24Z</time>
      </trkpt>
      <trkpt lat="42.21989" lon="8.98052">
        <ele>1585.35</ele>
        <time>2015-09-11T11:28:28Z</time>
      </trkpt>
      <trkpt lat="42.21989" lon="8.98052">
        <ele>1589.2</ele>
        <time>2015-09-11T11:28:32Z</time>
      </trkpt>
      <trkpt lat="42.21989" lon="8.98052">
        <ele>1590.16</ele>
        <time>2015-09-11T11:28:34Z</time>
      </trkpt>
      <trkpt lat="42.21988" lon="8.98051">
        <ele>1593.52</ele>
        <time>2015-09-11T11:28:42Z</time>
      </trkpt>
      <trkpt lat="42.21989" lon="8.9805">
        <ele>1594.96</ele>
        <time>2015-09-11T11:28:44Z</time>
      </trkpt>
      <trkpt lat="42.21987" lon="8.9805">
        <ele>1599.29</ele>
        <time>2015-09-11T11:28:51Z</time>
      </trkpt>
      <trkpt lat="42.21988" lon="8.9805">
        <ele>1602.66</ele>
        <time>2015-09-11T11:28:58Z</time>
      </trkpt>
      <trkpt lat="42.21988" lon="8.98049">
        <ele>1605.54</ele>
        <time>2015-09-11T11:29:05Z</time>
      </trkpt>
      <trkpt lat="42.21987" lon="8.98048">
        <ele>1608.9</ele>
        <time>2015-09-11T11:29:16Z</time>
      </trkpt>
      <trkpt lat="42.21991" lon="8.98051">
        <ele>1611.79</ele>
        <time>2015-09-11T11:29:31Z</time>
      </trkpt>
      <trkpt lat="42.2199" lon="8.98054">
        <ele>1610.35</ele>
        <time>2015-09-11T11:30:02Z</time>
      </trkpt>
    </trkseg>
  </trk>
</gpx>